Logo
 


Wetterdaten - Mittwoch, 26.02.2020 - Rheinberg-Annaberg     25 m ber NN private Wetterstation Rheinberg/Angaben ohne Gewhr!
Wetterdaten: aktuell Mittwoch, 26.02.2020 16:09
Datum Zeit Temp. A. Feuchte A. Luftdruck Regen Wind Richtung Richtung Sonnenschein ET UV Solar Taupunkt Windchill Windben Empfang
26.02.2020 16:09 5,6 C 90 % 1001,5 hPa 0,0 l/m 7,6 km/h S-SW 208 0 min 0,000 mm 0,0 UV-I 146 W/m 4,1 C 4,6 C 13,4 km/h 100,00 %
26.02.2020 16:08 5,6 C 90 % 1001,5 hPa 0,0 l/m 11,1 km/h SW 219 0 min 0,000 mm 0,0 UV-I 136 W/m 4,1 C 2,0 C 15,3 km/h 100,00 %
26.02.2020 16:07 5,6 C 90 % 1001,5 hPa 0,0 l/m 7,6 km/h SW 218 0 min 0,000 mm 0,0 UV-I 130 W/m 4,1 C 4,6 C 15,3 km/h 100,00 %
26.02.2020 16:06 5,6 C 90 % 1001,5 hPa 0,0 l/m 10,4 km/h S 190 0 min 0,000 mm 0,0 UV-I 140 W/m 4,1 C 2,5 C 17,2 km/h 100,00 %
26.02.2020 16:05 5,6 C 90 % 1001,5 hPa 0,0 l/m 6,4 km/h W-SW 238 0 min 0,000 mm 0,0 UV-I 161 W/m 4,1 C 5,6 C 17,2 km/h 100,00 %
26.02.2020 16:04 5,7 C 90 % 1001,4 hPa 0,0 l/m 10,8 km/h S-SW 205 0 min 0,000 mm 0,0 UV-I 161 W/m 4,2 C 2,3 C 23,0 km/h 100,00 %
26.02.2020 16:03 5,7 C 90 % 1001,5 hPa 0,0 l/m 14,7 km/h SW 227 0 min 0,000 mm 0,2 UV-I 186 W/m 4,2 C 0,1 C 24,9 km/h 100,00 %
26.02.2020 16:02 5,7 C 91 % 1001,4 hPa 0,0 l/m 11,1 km/h W-SW 246 0 min 0,000 mm 0,2 UV-I 173 W/m 4,3 C 2,1 C 19,1 km/h 95,65 %
26.02.2020 16:01 5,7 C 91 % 1001,5 hPa 0,0 l/m 9,7 km/h SW 223 0 min 0,076 mm 0,0 UV-I 221 W/m 4,3 C 3,1 C 15,3 km/h 100,00 %
26.02.2020 16:00 5,7 C 91 % 1001,4 hPa 0,0 l/m 8,3 km/h SW 227 1 min 0,000 mm 0,4 UV-I 294 W/m 4,3 C 4,1 C 21,0 km/h 100,00 %
26.02.2020 15:59 5,7 C 91 % 1001,4 hPa 0,0 l/m 7,1 km/h W 261 0 min 0,000 mm 0,5 UV-I 222 W/m 4,3 C 5,1 C 13,4 km/h 100,00 %
26.02.2020 15:58 5,7 C 91 % 1001,4 hPa 0,0 l/m 8,0 km/h W-SW 250 1 min 0,000 mm 0,5 UV-I 302 W/m 4,3 C 4,3 C 17,2 km/h 100,00 %
26.02.2020 15:57 5,7 C 91 % 1001,4 hPa 0,0 l/m 4,7 km/h SW 232 1 min 0,000 mm 0,5 UV-I 294 W/m 4,3 C 5,7 C 13,4 km/h 100,00 %
26.02.2020 15:56 5,7 C 92 % 1001,3 hPa 0,0 l/m 5,4 km/h N-NW 329 0 min 0,000 mm 0,5 UV-I 252 W/m 4,5 C 5,7 C 13,4 km/h 92,86 %
26.02.2020 15:55 5,7 C 92 % 1001,3 hPa 0,0 l/m 8,8 km/h S-SW 213 0 min 0,000 mm 0,5 UV-I 216 W/m 4,5 C 3,7 C 13,4 km/h 100,00 %
26.02.2020 15:54 5,7 C 92 % 1001,3 hPa 0,0 l/m 2,8 km/h SW 227 0 min 0,000 mm 0,5 UV-I 200 W/m 4,5 C 5,7 C 5,7 km/h 100,00 %
26.02.2020 15:53 5,7 C 93 % 1001,3 hPa 0,0 l/m 7,9 km/h W 275 0 min 0,000 mm 0,5 UV-I 207 W/m 4,7 C 4,4 C 21,0 km/h 100,00 %
26.02.2020 15:52 5,7 C 93 % 1001,3 hPa 0,0 l/m 7,6 km/h S-SW 209 0 min 0,000 mm 0,5 UV-I 271 W/m 4,7 C 4,7 C 17,2 km/h 100,00 %
26.02.2020 15:51 5,6 C 92 % 1001,2 hPa 0,0 l/m 5,6 km/h SW 232 1 min 0,000 mm 0,6 UV-I 347 W/m 4,4 C 5,6 C 9,6 km/h 100,00 %
26.02.2020 15:50 5,6 C 93 % 1001,3 hPa 0,0 l/m 3,3 km/h W 280 1 min 0,000 mm 0,6 UV-I 329 W/m 4,6 C 5,6 C 13,4 km/h 100,00 %
26.02.2020 15:49 5,5 C 93 % 1001,3 hPa 0,0 l/m 7,7 km/h W-NW 290 1 min 0,000 mm 0,5 UV-I 296 W/m 4,5 C 4,4 C 13,4 km/h 100,00 %
26.02.2020 15:48 5,4 C 93 % 1001,3 hPa 0,0 l/m 8,8 km/h S-SW 211 0 min 0,000 mm 0,5 UV-I 268 W/m 4,4 C 3,4 C 13,4 km/h 100,00 %
26.02.2020 15:47 5,4 C 93 % 1001,3 hPa 0,0 l/m 12,4 km/h W-SW 242 0 min 0,000 mm 0,5 UV-I 283 W/m 4,4 C 1,0 C 21,0 km/h 100,00 %
26.02.2020 15:46 5,4 C 93 % 1001,3 hPa 0,0 l/m 19,0 km/h SW 223 1 min 0,000 mm 0,6 UV-I 351 W/m 4,4 C -2,3 C 24,9 km/h 100,00 %
26.02.2020 15:45 5,3 C 93 % 1001,3 hPa 0,0 l/m 10,6 km/h W-SW 240 1 min 0,000 mm 0,6 UV-I 331 W/m 4,3 C 2,0 C 19,1 km/h 100,00 %
26.02.2020 15:44 5,3 C 93 % 1001,3 hPa 0,0 l/m 12,2 km/h SW 218 1 min 0,000 mm 0,5 UV-I 314 W/m 4,3 C 1,0 C 21,0 km/h 100,00 %
26.02.2020 15:43 5,3 C 93 % 1001,2 hPa 0,0 l/m 10,3 km/h W 260 1 min 0,000 mm 0,6 UV-I 299 W/m 4,3 C 2,2 C 15,3 km/h 100,00 %
26.02.2020 15:42 5,2 C 93 % 1001,2 hPa 0,0 l/m 9,5 km/h SW 225 0 min 0,000 mm 0,6 UV-I 228 W/m 4,2 C 2,7 C 15,3 km/h 100,00 %
26.02.2020 15:41 5,2 C 93 % 1001,2 hPa 0,0 l/m 14,2 km/h SW 219 0 min 0,000 mm 0,5 UV-I 193 W/m 4,2 C -0,3 C 24,9 km/h 100,00 %
26.02.2020 15:40 5,2 C 93 % 1001,2 hPa 0,0 l/m 14,8 km/h S 190 0 min 0,000 mm 0,5 UV-I 247 W/m 4,2 C -0,6 C 24,9 km/h 100,00 %
26.02.2020 15:39 5,1 C 93 % 1001,2 hPa 0,0 l/m 14,5 km/h W 259 0 min 0,000 mm 0,2 UV-I 217 W/m 4,1 C -0,5 C 26,8 km/h 100,00 %
26.02.2020 15:38 5,1 C 93 % 1001,1 hPa 0,0 l/m 9,9 km/h W-SW 240 0 min 0,000 mm 0,0 UV-I 150 W/m 4,1 C 2,3 C 13,4 km/h 100,00 %
26.02.2020 15:37 5,1 C 93 % 1001,2 hPa 0,0 l/m 10,0 km/h S 176 0 min 0,000 mm 0,0 UV-I 126 W/m 4,1 C 2,2 C 17,2 km/h 100,00 %
26.02.2020 15:36 5,1 C 93 % 1001,1 hPa 0,0 l/m 5,1 km/h SW 227 0 min 0,000 mm 0,0 UV-I 95 W/m 4,1 C 5,1 C 7,7 km/h 100,00 %
26.02.2020 15:35 5,1 C 93 % 1001,1 hPa 0,0 l/m 7,4 km/h SW 216 0 min 0,000 mm 0,0 UV-I 81 W/m 4,1 C 4,2 C 9,6 km/h 100,00 %
26.02.2020 15:34 5,1 C 93 % 1001,0 hPa 0,0 l/m 7,9 km/h SW 216 0 min 0,000 mm 0,0 UV-I 68 W/m 4,1 C 3,8 C 11,5 km/h 100,00 %
26.02.2020 15:33 5,1 C 93 % 1001,0 hPa 0,0 l/m 8,4 km/h SW 220 0 min 0,000 mm 0,0 UV-I 62 W/m 4,1 C 3,4 C 15,3 km/h 95,65 %
26.02.2020 15:32 5,1 C 93 % 1001,0 hPa 0,0 l/m 9,7 km/h SW 227 0 min 0,000 mm 0,0 UV-I 61 W/m 4,1 C 2,4 C 15,3 km/h 100,00 %
26.02.2020 15:31 5,1 C 93 % 1001,0 hPa 0,0 l/m 10,5 km/h S-SW 206 0 min 0,000 mm 0,0 UV-I 65 W/m 4,1 C 1,8 C 17,2 km/h 100,00 %
26.02.2020 15:30 5,1 C 93 % 1001,0 hPa 0,0 l/m 9,5 km/h S-SW 204 0 min 0,000 mm 0,0 UV-I 72 W/m 4,1 C 2,5 C 15,3 km/h 100,00 %
26.02.2020 15:29 5,0 C 93 % 1001,0 hPa 0,0 l/m 9,1 km/h S-SW 207 0 min 0,000 mm 0,0 UV-I 88 W/m 4,0 C 2,7 C 13,4 km/h 100,00 %
26.02.2020 15:28 5,0 C 93 % 1001,0 hPa 0,0 l/m 12,4 km/h SW 232 0 min 0,000 mm 0,2 UV-I 103 W/m 4,0 C 0,5 C 21,0 km/h 96,30 %
26.02.2020 15:27 5,0 C 94 % 1001,0 hPa 0,0 l/m 9,9 km/h W-SW 252 0 min 0,000 mm 0,5 UV-I 109 W/m 4,1 C 2,1 C 15,3 km/h 100,00 %
26.02.2020 15:26 5,0 C 94 % 1000,9 hPa 0,0 l/m 8,6 km/h S-SW 203 0 min 0,000 mm 0,6 UV-I 123 W/m 4,1 C 3,1 C 13,4 km/h 100,00 %
26.02.2020 15:25 5,0 C 94 % 1001,0 hPa 0,0 l/m 11,7 km/h SW 225 0 min 0,000 mm 0,6 UV-I 140 W/m 4,1 C 0,9 C 17,2 km/h 100,00 %
26.02.2020 15:24 5,1 C 94 % 1000,9 hPa 0,0 l/m 16,0 km/h SW 219 0 min 0,000 mm 0,6 UV-I 141 W/m 4,2 C -1,3 C 24,9 km/h 100,00 %
26.02.2020 15:23 5,0 C 94 % 1000,9 hPa 0,0 l/m 7,9 km/h S-SW 205 0 min 0,000 mm 0,6 UV-I 265 W/m 4,1 C 3,7 C 11,5 km/h 100,00 %
26.02.2020 15:22 4,9 C 94 % 1000,9 hPa 0,0 l/m 8,6 km/h SW 215 0 min 0,000 mm 0,7 UV-I 271 W/m 4,0 C 3,0 C 13,4 km/h 100,00 %
26.02.2020 15:21 4,9 C 94 % 1000,8 hPa 0,0 l/m 5,8 km/h S-SW 210 0 min 0,000 mm 0,7 UV-I 266 W/m 4,0 C 4,9 C 9,6 km/h 100,00 %
26.02.2020 15:20 4,9 C 94 % 1000,9 hPa 0,0 l/m 13,2 km/h SW 214 0 min 0,000 mm 0,7 UV-I 279 W/m 4,0 C -0,1 C 21,0 km/h 100,00 %
26.02.2020 15:19 4,9 C 94 % 1000,8 hPa 0,0 l/m 10,3 km/h SW 218 0 min 0,000 mm 0,7 UV-I 258 W/m 4,0 C 1,8 C 15,3 km/h 100,00 %
26.02.2020 15:18 4,8 C 94 % 1000,9 hPa 0,0 l/m 10,7 km/h S-SW 211 0 min 0,000 mm 0,7 UV-I 246 W/m 3,9 C 1,4 C 15,3 km/h 100,00 %
26.02.2020 15:17 4,8 C 94 % 1000,9 hPa 0,0 l/m 9,2 km/h SW 225 0 min 0,000 mm 0,7 UV-I 243 W/m 3,9 C 2,4 C 21,0 km/h 100,00 %
26.02.2020 15:16 4,8 C 94 % 1000,9 hPa 0,0 l/m 6,8 km/h S-SW 213 0 min 0,000 mm 0,7 UV-I 247 W/m 3,9 C 4,5 C 11,5 km/h 100,00 %
26.02.2020 15:15 4,7 C 94 % 1000,9 hPa 0,0 l/m 5,1 km/h S-SW 198 0 min 0,000 mm 0,6 UV-I 245 W/m 3,8 C 4,7 C 9,6 km/h 100,00 %
26.02.2020 15:14 4,7 C 94 % 1000,9 hPa 0,0 l/m 8,1 km/h S-SW 212 0 min 0,000 mm 0,7 UV-I 204 W/m 3,8 C 3,2 C 13,4 km/h 100,00 %
26.02.2020 15:13 4,6 C 94 % 1000,9 hPa 0,0 l/m 7,9 km/h W-SW 237 0 min 0,000 mm 0,6 UV-I 222 W/m 3,7 C 3,3 C 15,3 km/h 100,00 %
26.02.2020 15:12 4,6 C 94 % 1000,9 hPa 0,0 l/m 7,1 km/h S-SW 202 0 min 0,000 mm 0,7 UV-I 228 W/m 3,7 C 4,0 C 11,5 km/h 100,00 %
26.02.2020 15:11 4,5 C 94 % 1000,8 hPa 0,0 l/m 7,0 km/h SW 219 0 min 0,000 mm 0,5 UV-I 164 W/m 3,6 C 4,0 C 15,3 km/h 100,00 %
26.02.2020 15:10 4,5 C 94 % 1000,9 hPa 0,0 l/m 7,7 km/h S-SW 194 0 min 0,000 mm 0,5 UV-I 159 W/m 3,6 C 3,3 C 13,4 km/h 97,62 %
26.02.2020 15:09 4,4 C 94 % 1000,9 hPa 0,0 l/m 7,0 km/h S-SW 203 0 min 0,000 mm 0,6 UV-I 177 W/m 3,5 C 3,9 C 13,4 km/h 98,58 %
26.02.2020 15:08 4,4 C 94 % 1000,8 hPa 0,0 l/m 8,4 km/h S-SW 202 0 min 0,000 mm 0,6 UV-I 186 W/m 3,5 C 2,6 C 13,4 km/h 100,00 %
26.02.2020 15:07 4,4 C 94 % 1000,8 hPa 0,0 l/m 9,7 km/h SW 222 0 min 0,000 mm 0,6 UV-I 205 W/m 3,5 C 1,6 C 13,4 km/h 95,83 %
26.02.2020 15:06 4,3 C 94 % 1000,8 hPa 0,0 l/m 10,0 km/h SW 220 0 min 0,000 mm 0,6 UV-I 203 W/m 3,4 C 1,3 C 15,3 km/h 100,00 %
26.02.2020 15:05 4,3 C 94 % 1000,7 hPa 0,0 l/m 9,6 km/h SW 217 0 min 0,000 mm 0,6 UV-I 224 W/m 3,4 C 1,6 C 15,3 km/h 100,00 %
26.02.2020 15:04 4,3 C 94 % 1000,7 hPa 0,0 l/m 7,4 km/h S-SW 200 0 min 0,000 mm 0,7 UV-I 228 W/m 3,4 C 3,4 C 11,5 km/h 91,67 %
26.02.2020 15:03 4,2 C 94 % 1000,7 hPa 0,0 l/m 7,5 km/h SW 217 0 min 0,000 mm 0,7 UV-I 221 W/m 3,3 C 3,2 C 11,5 km/h 100,00 %
26.02.2020 15:02 4,2 C 94 % 1000,7 hPa 0,0 l/m 9,0 km/h SW 218 0 min 0,000 mm 0,7 UV-I 214 W/m 3,3 C 1,9 C 13,4 km/h 100,00 %
26.02.2020 15:01 4,1 C 94 % 1000,6 hPa 0,0 l/m 5,1 km/h W-SW 237 0 min 0,025 mm 0,7 UV-I 219 W/m 3,2 C 4,1 C 7,7 km/h 95,65 %
26.02.2020 15:00 4,1 C 94 % 1000,7 hPa 0,0 l/m 6,1 km/h SW 225 0 min 0,000 mm 0,7 UV-I 215 W/m 3,2 C 4,1 C 9,6 km/h 100,00 %
26.02.2020 14:59 4,0 C 94 % 1000,6 hPa 0,0 l/m 9,3 km/h SW 216 0 min 0,000 mm 0,7 UV-I 215 W/m 3,1 C 1,5 C 13,4 km/h 100,00 %
26.02.2020 14:58 3,9 C 93 % 1000,6 hPa 0,0 l/m 7,9 km/h S-SW 207 0 min 0,000 mm 0,7 UV-I 228 W/m 2,9 C 2,5 C 11,5 km/h 100,00 %
26.02.2020 14:57 3,8 C 93 % 1000,6 hPa 0,0 l/m 5,6 km/h SW 214 0 min 0,000 mm 0,7 UV-I 246 W/m 2,8 C 3,8 C 9,6 km/h 100,00 %
26.02.2020 14:56 3,8 C 93 % 1000,6 hPa 0,0 l/m 3,0 km/h W-SW 240 0 min 0,000 mm 0,7 UV-I 258 W/m 2,8 C 3,8 C 5,7 km/h 100,00 %
26.02.2020 14:55 3,7 C 93 % 1000,6 hPa 0,0 l/m 5,7 km/h W-SW 240 0 min 0,000 mm 0,7 UV-I 252 W/m 2,7 C 3,7 C 7,7 km/h 100,00 %
26.02.2020 14:54 3,6 C 93 % 1000,6 hPa 0,0 l/m 8,9 km/h SW 215 0 min 0,000 mm 0,6 UV-I 235 W/m 2,6 C 1,4 C 13,4 km/h 100,00 %
26.02.2020 14:53 3,6 C 93 % 1000,6 hPa 0,0 l/m 8,2 km/h S-SW 213 0 min 0,000 mm 0,6 UV-I 210 W/m 2,6 C 2,0 C 15,3 km/h 96,15 %
26.02.2020 14:52 3,5 C 93 % 1000,6 hPa 0,0 l/m 6,6 km/h S 173 0 min 0,000 mm 0,6 UV-I 195 W/m 2,5 C 3,3 C 11,5 km/h 100,00 %
26.02.2020 14:51 3,5 C 93 % 1000,5 hPa 0,0 l/m 8,2 km/h S-SW 204 0 min 0,000 mm 0,5 UV-I 184 W/m 2,5 C 1,9 C 13,4 km/h 100,00 %
26.02.2020 14:50 3,4 C 93 % 1000,5 hPa 0,0 l/m 7,2 km/h S-SW 213 0 min 0,000 mm 0,5 UV-I 174 W/m 2,4 C 2,7 C 15,3 km/h 100,00 %
26.02.2020 14:49 3,4 C 93 % 1000,5 hPa 0,0 l/m 4,3 km/h SW 218 0 min 0,000 mm 0,5 UV-I 165 W/m 2,4 C 3,4 C 9,6 km/h 95,83 %
26.02.2020 14:48 3,4 C 93 % 1000,5 hPa 0,0 l/m 3,0 km/h S-SW 200 0 min 0,000 mm 0,0 UV-I 154 W/m 2,4 C 3,4 C 5,7 km/h 100,00 %
26.02.2020 14:47 3,3 C 93 % 1000,5 hPa 0,0 l/m 5,4 km/h S-SW 198 0 min 0,000 mm 0,0 UV-I 141 W/m 2,3 C 3,3 C 9,6 km/h 100,00 %
26.02.2020 14:46 3,3 C 93 % 1000,5 hPa 0,0 l/m 5,9 km/h S-SW 202 0 min 0,000 mm 0,0 UV-I 130 W/m 2,3 C 3,3 C 7,7 km/h 100,00 %
26.02.2020 14:45 3,3 C 93 % 1000,5 hPa 0,0 l/m 6,9 km/h S-SW 205 0 min 0,000 mm 0,0 UV-I 119 W/m 2,3 C 2,8 C 9,6 km/h 100,00 %
26.02.2020 14:44 3,3 C 93 % 1000,5 hPa 0,0 l/m 9,8 km/h SW 229 0 min 0,000 mm 0,0 UV-I 108 W/m 2,3 C 0,3 C 15,3 km/h 100,00 %
26.02.2020 14:43 3,3 C 92 % 1000,5 hPa 0,0 l/m 12,5 km/h SW 221 0 min 0,000 mm 0,0 UV-I 100 W/m 2,1 C -1,5 C 17,2 km/h 100,00 %
26.02.2020 14:42 3,2 C 92 % 1000,5 hPa 0,0 l/m 6,0 km/h SW 221 0 min 0,000 mm 0,0 UV-I 92 W/m 2,0 C 3,2 C 11,5 km/h 100,00 %
26.02.2020 14:41 3,2 C 92 % 1000,5 hPa 0,0 l/m 7,6 km/h S-SW 196 0 min 0,000 mm 0,0 UV-I 83 W/m 2,0 C 2,1 C 15,3 km/h 100,00 %
26.02.2020 14:40 3,2 C 92 % 1000,5 hPa 0,0 l/m 9,7 km/h S-SW 213 0 min 0,000 mm 0,0 UV-I 78 W/m 2,0 C 0,3 C 19,1 km/h 100,00 %
26.02.2020 14:39 3,2 C 92 % 1000,5 hPa 0,2 l/m 9,0 km/h SW 218 0 min 0,000 mm 0,0 UV-I 75 W/m 2,0 C 0,9 C 13,4 km/h 100,00 %
26.02.2020 14:38 3,2 C 92 % 1000,6 hPa 0,0 l/m 8,4 km/h SW 224 0 min 0,000 mm 0,0 UV-I 71 W/m 2,0 C 1,4 C 13,4 km/h 100,00 %
26.02.2020 14:37 3,2 C 92 % 1000,5 hPa 0,0 l/m 12,9 km/h SW 231 0 min 0,000 mm 0,0 UV-I 68 W/m 2,0 C -1,9 C 19,1 km/h 100,00 %
26.02.2020 14:36 3,2 C 92 % 1000,5 hPa 0,0 l/m 11,4 km/h W-SW 242 0 min 0,000 mm 0,0 UV-I 64 W/m 2,0 C -0,9 C 23,0 km/h 100,00 %
26.02.2020 14:35 3,2 C 92 % 1000,5 hPa 0,0 l/m 11,7 km/h SW 233 0 min 0,000 mm 0,0 UV-I 58 W/m 2,0 C -1,1 C 17,2 km/h 100,00 %
26.02.2020 14:34 3,2 C 92 % 1000,5 hPa 0,0 l/m 6,5 km/h SW 234 0 min 0,000 mm 0,0 UV-I 53 W/m 2,0 C 3,1 C 11,5 km/h 100,00 %
26.02.2020 14:33 3,2 C 91 % 1000,5 hPa 0,0 l/m 10,4 km/h S-SW 192 0 min 0,000 mm 0,0 UV-I 49 W/m 1,9 C -0,2 C 19,1 km/h 100,00 %
26.02.2020 14:32 3,2 C 91 % 1000,6 hPa 0,0 l/m 6,5 km/h SW 223 0 min 0,000 mm 0,0 UV-I 46 W/m 1,9 C 3,1 C 11,5 km/h 100,00 %
26.02.2020 14:31 3,2 C 91 % 1000,5 hPa 0,0 l/m 13,0 km/h W-SW 240 0 min 0,000 mm 0,0 UV-I 40 W/m 1,9 C -1,9 C 19,1 km/h 100,00 %
26.02.2020 14:30 3,3 C 91 % 1000,5 hPa 0,0 l/m 12,7 km/h SW 235 0 min 0,000 mm 0,0 UV-I 33 W/m 2,0 C -1,6 C 21,0 km/h 100,00 %
26.02.2020 14:29 3,3 C 91 % 1000,5 hPa 0,0 l/m 12,3 km/h SW 222 0 min 0,000 mm 0,0 UV-I 27 W/m 2,0 C -1,4 C 21,0 km/h 100,00 %
26.02.2020 14:28 3,4 C 91 % 1000,5 hPa 0,0 l/m 10,1 km/h W-SW 237 0 min 0,000 mm 0,0 UV-I 24 W/m 2,1 C 0,2 C 17,2 km/h 100,00 %
26.02.2020 14:27 3,5 C 91 % 1000,5 hPa 0,0 l/m 9,6 km/h SW 229 0 min 0,000 mm 0,0 UV-I 20 W/m 2,2 C 0,7 C 17,2 km/h 100,00 %
26.02.2020 14:26 3,6 C 91 % 1000,6 hPa 0,2 l/m 16,4 km/h W-SW 242 0 min 0,000 mm 0,0 UV-I 17 W/m 2,3 C -3,3 C 23,0 km/h 100,00 %
26.02.2020 14:25 3,7 C 91 % 1000,6 hPa 0,0 l/m 16,6 km/h SW 225 0 min 0,000 mm 0,0 UV-I 14 W/m 2,4 C -3,3 C 26,8 km/h 100,00 %
26.02.2020 14:24 3,8 C 91 % 1000,5 hPa 0,0 l/m 18,3 km/h W-SW 251 0 min 0,000 mm 0,0 UV-I 12 W/m 2,5 C -4,0 C 28,7 km/h 100,00 %
26.02.2020 14:23 3,9 C 91 % 1000,5 hPa 0,0 l/m 16,8 km/h S-SW 211 0 min 0,000 mm 0,0 UV-I 12 W/m 2,6 C -3,2 C 23,0 km/h 100,00 %
26.02.2020 14:22 4,0 C 91 % 1000,5 hPa 0,0 l/m 10,4 km/h W-SW 239 0 min 0,000 mm 0,0 UV-I 10 W/m 2,7 C 0,7 C 17,2 km/h 100,00 %
26.02.2020 14:21 4,1 C 91 % 1000,5 hPa 0,0 l/m 8,1 km/h SW 236 0 min 0,000 mm 0,0 UV-I 9 W/m 2,8 C 2,6 C 15,3 km/h 100,00 %
26.02.2020 14:20 4,2 C 91 % 1000,4 hPa 0,0 l/m 6,6 km/h SW 225 0 min 0,000 mm 0,0 UV-I 9 W/m 2,9 C 4,0 C 17,2 km/h 100,00 %
26.02.2020 14:19 4,2 C 91 % 1000,4 hPa 0,2 l/m 9,6 km/h SW 219 0 min 0,000 mm 0,0 UV-I 9 W/m 2,9 C 1,5 C 15,3 km/h 96,15 %
26.02.2020 14:18 4,4 C 91 % 1000,4 hPa 0,0 l/m 5,3 km/h SW 234 0 min 0,000 mm 0,0 UV-I 7 W/m 3,1 C 4,4 C 9,6 km/h 100,00 %
26.02.2020 14:17 4,5 C 91 % 1000,4 hPa 0,0 l/m 9,4 km/h SW 224 0 min 0,000 mm 0,0 UV-I 6 W/m 3,2 C 2,0 C 15,3 km/h 100,00 %
26.02.2020 14:16 4,6 C 91 % 1000,4 hPa 0,0 l/m 11,6 km/h W-SW 241 0 min 0,000 mm 0,0 UV-I 4 W/m 3,3 C 0,5 C 19,1 km/h 100,00 %
26.02.2020 14:15 4,7 C 92 % 1000,4 hPa 0,0 l/m 4,7 km/h W-SW 239 0 min 0,000 mm 0,0 UV-I 3 W/m 3,5 C 4,7 C 7,7 km/h 100,00 %
26.02.2020 14:14 4,7 C 92 % 1000,3 hPa 0,0 l/m 8,7 km/h SW 235 0 min 0,000 mm 0,0 UV-I 5 W/m 3,5 C 2,7 C 24,9 km/h 100,00 %
26.02.2020 14:13 4,7 C 92 % 1000,3 hPa 0,2 l/m 6,1 km/h W-SW 238 0 min 0,000 mm 0,0 UV-I 7 W/m 3,5 C 4,7 C 11,5 km/h 96,15 %
26.02.2020 14:12 4,7 C 92 % 1000,2 hPa 0,0 l/m 8,8 km/h SW 232 0 min 0,000 mm 0,0 UV-I 8 W/m 3,5 C 2,6 C 17,2 km/h 100,00 %
26.02.2020 14:11 4,7 C 92 % 1000,1 hPa 0,0 l/m 5,2 km/h SW 221 0 min 0,000 mm 0,0 UV-I 13 W/m 3,5 C 4,7 C 9,6 km/h 100,00 %
26.02.2020 14:10 4,7 C 92 % 1000,1 hPa 0,0 l/m 6,9 km/h SW 218 0 min 0,000 mm 0,0 UV-I 17 W/m 3,5 C 4,3 C 11,5 km/h 100,00 %
26.02.2020 14:09 4,7 C 91 % 1000,1 hPa 0,0 l/m 7,3 km/h W-SW 240 0 min 0,000 mm 0,0 UV-I 22 W/m 3,4 C 3,9 C 13,4 km/h 100,00 %
26.02.2020 14:08 4,7 C 91 % 1000,0 hPa 0,0 l/m 6,6 km/h SW 221 0 min 0,000 mm 0,0 UV-I 30 W/m 3,4 C 4,5 C 11,5 km/h 100,00 %
26.02.2020 14:07 4,7 C 91 % 1000,0 hPa 0,0 l/m 7,9 km/h SW 232 0 min 0,000 mm 0,0 UV-I 39 W/m 3,4 C 3,4 C 11,5 km/h 97,44 %
26.02.2020 14:06 4,7 C 91 % 999,9 hPa 0,0 l/m 6,7 km/h W-SW 247 0 min 0,000 mm 0,0 UV-I 45 W/m 3,4 C 4,4 C 11,5 km/h 98,49 %
26.02.2020 14:05 4,7 C 91 % 999,8 hPa 0,0 l/m 6,8 km/h W 259 0 min 0,000 mm 0,0 UV-I 49 W/m 3,4 C 4,4 C 9,6 km/h 100,00 %
26.02.2020 14:04 4,7 C 91 % 999,9 hPa 0,0 l/m 9,1 km/h W-SW 241 0 min 0,000 mm 0,0 UV-I 56 W/m 3,4 C 2,4 C 13,4 km/h 100,00 %
26.02.2020 14:03 4,7 C 91 % 999,9 hPa 0,0 l/m 12,9 km/h SW 217 0 min 0,000 mm 0,0 UV-I 64 W/m 3,4 C -0,1 C 17,2 km/h 100,00 %
26.02.2020 14:02 4,7 C 91 % 999,8 hPa 0,0 l/m 7,2 km/h W-SW 242 0 min 0,000 mm 0,0 UV-I 69 W/m 3,4 C 4,0 C 11,5 km/h 100,00 %
26.02.2020 14:01 4,8 C 91 % 999,7 hPa 0,0 l/m 9,1 km/h SW 218 0 min 0,000 mm 0,0 UV-I 65 W/m 3,5 C 2,5 C 17,2 km/h 95,83 %
26.02.2020 14:00 4,8 C 91 % 999,8 hPa 0,0 l/m 10,3 km/h W-SW 245 0 min 0,077 mm 0,0 UV-I 52 W/m 3,5 C 1,6 C 21,0 km/h 100,00 %
26.02.2020 13:59 4,8 C 91 % 999,8 hPa 0,0 l/m 6,7 km/h SW 217 0 min 0,000 mm 0,0 UV-I 43 W/m 3,5 C 4,6 C 11,5 km/h 100,00 %
26.02.2020 13:58 4,9 C 91 % 999,8 hPa 0,0 l/m 10,8 km/h SW 215 0 min 0,000 mm 0,0 UV-I 44 W/m 3,6 C 1,4 C 24,9 km/h 100,00 %
26.02.2020 13:57 4,9 C 91 % 999,8 hPa 0,0 l/m 11,6 km/h SW 219 0 min 0,000 mm 0,0 UV-I 50 W/m 3,6 C 0,9 C 17,2 km/h 100,00 %
26.02.2020 13:56 4,9 C 91 % 999,8 hPa 0,0 l/m 13,9 km/h SW 227 0 min 0,000 mm 0,0 UV-I 61 W/m 3,6 C -0,5 C 26,8 km/h 100,00 %
26.02.2020 13:55 5,0 C 91 % 999,8 hPa 0,0 l/m 13,4 km/h SW 219 0 min 0,000 mm 0,0 UV-I 76 W/m 3,7 C -0,1 C 19,1 km/h 100,00 %
26.02.2020 13:54 5,0 C 91 % 999,7 hPa 0,0 l/m 14,5 km/h W-SW 238 0 min 0,000 mm 0,0 UV-I 92 W/m 3,7 C -0,7 C 28,7 km/h 100,00 %
26.02.2020 13:53 5,0 C 91 % 999,8 hPa 0,0 l/m 11,1 km/h S-SW 197 0 min 0,000 mm 0,0 UV-I 103 W/m 3,7 C 1,3 C 21,0 km/h 96,67 %
26.02.2020 13:52 5,0 C 91 % 999,8 hPa 0,0 l/m 14,7 km/h SW 232 0 min 0,000 mm 0,4 UV-I 117 W/m 3,7 C -0,8 C 23,0 km/h 100,00 %
26.02.2020 13:51 5,0 C 91 % 999,8 hPa 0,0 l/m 13,4 km/h S-SW 207 0 min 0,000 mm 0,5 UV-I 132 W/m 3,7 C -0,1 C 19,1 km/h 93,33 %
26.02.2020 13:50 5,1 C 91 % 999,7 hPa 0,0 l/m 15,2 km/h W-SW 245 0 min 0,000 mm 0,6 UV-I 147 W/m 3,8 C -0,9 C 24,9 km/h 100,00 %
26.02.2020 13:49 5,1 C 91 % 999,8 hPa 0,0 l/m 12,9 km/h S-SW 207 0 min 0,000 mm 0,6 UV-I 156 W/m 3,8 C 0,3 C 21,0 km/h 100,00 %
26.02.2020 13:48 5,1 C 91 % 999,7 hPa 0,0 l/m 10,7 km/h W-SW 242 0 min 0,000 mm 0,6 UV-I 159 W/m 3,8 C 1,7 C 15,3 km/h 100,00 %
26.02.2020 13:47 5,1 C 91 % 999,7 hPa 0,0 l/m 15,8 km/h SW 221 0 min 0,000 mm 0,6 UV-I 148 W/m 3,8 C -1,2 C 23,0 km/h 100,00 %
26.02.2020 13:46 5,2 C 91 % 999,7 hPa 0,2 l/m 17,2 km/h S-SW 211 0 min 0,000 mm 0,2 UV-I 130 W/m 3,9 C -1,7 C 23,0 km/h 100,00 %
26.02.2020 13:45 5,2 C 91 % 999,6 hPa 0,0 l/m 13,3 km/h S-SW 210 0 min 0,000 mm 0,0 UV-I 93 W/m 3,9 C 0,2 C 24,9 km/h 100,00 %
26.02.2020 13:44 5,2 C 91 % 999,6 hPa 0,0 l/m 15,0 km/h S 190 0 min 0,000 mm 0,0 UV-I 68 W/m 3,9 C -0,7 C 24,9 km/h 100,00 %
26.02.2020 13:43 5,3 C 91 % 999,6 hPa 0,0 l/m 13,9 km/h SW 227 0 min 0,000 mm 0,0 UV-I 59 W/m 4,0 C 0,0 C 23,0 km/h 100,00 %
26.02.2020 13:42 5,3 C 91 % 999,6 hPa 0,0 l/m 11,6 km/h S-SW 202 0 min 0,000 mm 0,0 UV-I 51 W/m 4,0 C 1,3 C 17,2 km/h 100,00 %
26.02.2020 13:41 5,3 C 91 % 999,6 hPa 0,0 l/m 8,8 km/h SW 231 0 min 0,000 mm 0,0 UV-I 42 W/m 4,0 C 3,3 C 13,4 km/h 100,00 %
26.02.2020 13:40 5,4 C 91 % 999,6 hPa 0,0 l/m 7,4 km/h S-SW 200 0 min 0,000 mm 0,0 UV-I 41 W/m 4,1 C 4,5 C 15,3 km/h 100,00 %
26.02.2020 13:39 5,4 C 91 % 999,6 hPa 0,0 l/m 5,1 km/h W-SW 250 0 min 0,000 mm 0,0 UV-I 44 W/m 4,1 C 5,4 C 9,6 km/h 100,00 %
26.02.2020 13:38 5,4 C 90 % 999,6 hPa 0,2 l/m 7,9 km/h SW 217 0 min 0,000 mm 0,0 UV-I 43 W/m 3,9 C 4,1 C 15,3 km/h 100,00 %
26.02.2020 13:37 5,4 C 91 % 999,6 hPa 0,0 l/m 14,0 km/h SW 235 0 min 0,000 mm 0,0 UV-I 35 W/m 4,1 C 0,1 C 21,0 km/h 100,00 %
26.02.2020 13:36 5,5 C 91 % 999,6 hPa 0,0 l/m 8,7 km/h SW 226 0 min 0,000 mm 0,0 UV-I 31 W/m 4,2 C 3,6 C 17,2 km/h 100,00 %
26.02.2020 13:35 5,6 C 91 % 999,5 hPa 0,0 l/m 10,7 km/h W 264 0 min 0,000 mm 0,0 UV-I 31 W/m 4,2 C 2,3 C 15,3 km/h 100,00 %
26.02.2020 13:34 5,6 C 91 % 999,5 hPa 0,0 l/m 13,7 km/h SW 236 0 min 0,000 mm 0,0 UV-I 35 W/m 4,2 C 0,5 C 21,0 km/h 100,00 %
26.02.2020 13:33 5,7 C 91 % 999,5 hPa 0,0 l/m 14,5 km/h S-SW 204 0 min 0,000 mm 0,0 UV-I 42 W/m 4,3 C 0,2 C 21,0 km/h 96,55 %
26.02.2020 13:32 5,8 C 91 % 999,5 hPa 0,0 l/m 15,3 km/h SW 232 0 min 0,000 mm 0,0 UV-I 52 W/m 4,4 C -0,1 C 23,0 km/h 100,00 %
26.02.2020 13:31 5,8 C 92 % 999,5 hPa 0,0 l/m 13,3 km/h S-SW 208 0 min 0,000 mm 0,0 UV-I 69 W/m 4,6 C 0,9 C 21,0 km/h 100,00 %
26.02.2020 13:30 5,8 C 92 % 999,4 hPa 0,0 l/m 13,6 km/h SW 231 0 min 0,000 mm 0,0 UV-I 90 W/m 4,6 C 0,8 C 24,9 km/h 96,15 %
26.02.2020 13:29 5,8 C 92 % 999,4 hPa 0,0 l/m 14,8 km/h S-SW 211 0 min 0,000 mm 0,0 UV-I 134 W/m 4,6 C 0,1 C 23,0 km/h 100,00 %
26.02.2020 13:28 5,8 C 92 % 999,4 hPa 0,0 l/m 17,5 km/h SW 227 0 min 0,000 mm 0,4 UV-I 192 W/m 4,6 C -1,1 C 26,8 km/h 100,00 %
26.02.2020 13:27 5,8 C 92 % 999,4 hPa 0,0 l/m 6,2 km/h SW 226 0 min 0,000 mm 0,6 UV-I 242 W/m 4,6 C 5,8 C 17,2 km/h 100,00 %
26.02.2020 13:26 5,8 C 92 % 999,4 hPa 0,0 l/m 7,2 km/h SW 215 1 min 0,000 mm 0,7 UV-I 535 W/m 4,6 C 5,1 C 13,4 km/h 100,00 %
26.02.2020 13:25 5,7 C 92 % 999,3 hPa 0,0 l/m 9,2 km/h SW 220 1 min 0,000 mm 1,0 UV-I 582 W/m 4,5 C 3,4 C 17,2 km/h 100,00 %
26.02.2020 13:24 5,6 C 92 % 999,3 hPa 0,0 l/m 11,6 km/h W-SW 242 1 min 0,000 mm 1,2 UV-I 509 W/m 4,4 C 1,7 C 23,0 km/h 100,00 %
26.02.2020 13:23 5,6 C 92 % 999,3 hPa 0,0 l/m 11,0 km/h SW 229 1 min 0,000 mm 1,2 UV-I 373 W/m 4,4 C 2,1 C 17,2 km/h 100,00 %
26.02.2020 13:22 5,6 C 92 % 999,3 hPa 0,0 l/m 15,0 km/h SW 216 1 min 0,000 mm 1,0 UV-I 353 W/m 4,4 C -0,2 C 23,0 km/h 100,00 %
26.02.2020 13:21 5,5 C 92 % 999,3 hPa 0,0 l/m 16,0 km/h SW 232 1 min 0,000 mm 0,9 UV-I 338 W/m 4,3 C -0,8 C 23,0 km/h 100,00 %
26.02.2020 13:20 5,5 C 92 % 999,3 hPa 0,0 l/m 12,0 km/h W-SW 238 1 min 0,000 mm 1,0 UV-I 322 W/m 4,3 C 1,3 C 17,2 km/h 100,00 %
26.02.2020 13:19 5,5 C 93 % 999,3 hPa 0,0 l/m 13,4 km/h SW 217 1 min 0,000 mm 0,9 UV-I 332 W/m 4,5 C 0,5 C 21,0 km/h 100,00 %
26.02.2020 13:18 5,5 C 93 % 999,3 hPa 0,0 l/m 12,7 km/h SW 225 1 min 0,000 mm 0,8 UV-I 325 W/m 4,5 C 0,9 C 21,0 km/h 95,65 %
26.02.2020 13:17 5,5 C 93 % 999,2 hPa 0,0 l/m 12,3 km/h SW 214 0 min 0,000 mm 0,7 UV-I 264 W/m 4,5 C 1,2 C 17,2 km/h 100,00 %
26.02.2020 13:16 5,4 C 93 % 999,2 hPa 0,0 l/m 13,2 km/h S-SW 211 0 min 0,000 mm 0,8 UV-I 243 W/m 4,4 C 0,5 C 17,2 km/h 100,00 %
26.02.2020 13:15 5,4 C 93 % 999,2 hPa 0,0 l/m 7,7 km/h S-SW 204 1 min 0,000 mm 1,0 UV-I 295 W/m 4,4 C 4,3 C 11,5 km/h 100,00 %
26.02.2020 13:14 5,4 C 93 % 999,2 hPa 0,0 l/m 9,2 km/h S 182 0 min 0,000 mm 1,0 UV-I 200 W/m 4,4 C 3,1 C 15,3 km/h 100,00 %
26.02.2020 13:13 5,3 C 93 % 999,1 hPa 0,0 l/m 9,2 km/h SW 236 0 min 0,000 mm 0,9 UV-I 183 W/m 4,3 C 3,0 C 19,1 km/h 100,00 %
26.02.2020 13:12 5,3 C 93 % 999,1 hPa 0,0 l/m 7,1 km/h S-SW 193 0 min 0,000 mm 0,8 UV-I 161 W/m 4,3 C 4,7 C 13,4 km/h 100,00 %
26.02.2020 13:11 5,3 C 93 % 999,1 hPa 0,0 l/m 7,6 km/h S-SW 204 0 min 0,000 mm 0,8 UV-I 188 W/m 4,3 C 4,3 C 11,5 km/h 100,00 %
26.02.2020 13:10 5,2 C 94 % 999,2 hPa 0,0 l/m 12,1 km/h SW 219 0 min 0,000 mm 0,9 UV-I 249 W/m 4,3 C 0,9 C 15,3 km/h 95,83 %
26.02.2020 13:09 5,2 C 93 % 999,2 hPa 0,0 l/m 13,4 km/h SW 232 1 min 0,000 mm 0,9 UV-I 364 W/m 4,2 C 0,2 C 17,2 km/h 100,00 %
26.02.2020 13:08 5,2 C 93 % 999,1 hPa 0,0 l/m 12,4 km/h SW 219 1 min 0,000 mm 1,0 UV-I 394 W/m 4,2 C 0,7 C 23,0 km/h 100,00 %
26.02.2020 13:07 5,2 C 94 % 999,1 hPa 0,0 l/m 13,0 km/h SW 234 1 min 0,000 mm 1,1 UV-I 347 W/m 4,3 C 0,4 C 19,1 km/h 100,00 %
26.02.2020 13:06 5,2 C 94 % 999,1 hPa 0,0 l/m 12,5 km/h S-SW 207 0 min 0,000 mm 1,0 UV-I 220 W/m 4,3 C 0,7 C 19,1 km/h 100,00 %
26.02.2020 13:05 5,1 C 94 % 999,1 hPa 0,0 l/m 14,8 km/h SW 234 0 min 0,000 mm 0,9 UV-I 221 W/m 4,2 C -0,7 C 19,1 km/h 100,00 %
26.02.2020 13:04 5,1 C 94 % 999,1 hPa 0,0 l/m 16,6 km/h SW 230 0 min 0,000 mm 0,9 UV-I 219 W/m 4,2 C -1,6 C 26,8 km/h 100,00 %
26.02.2020 13:03 5,1 C 94 % 999,1 hPa 0,0 l/m 10,8 km/h W 260 0 min 0,000 mm 0,9 UV-I 225 W/m 4,2 C 1,6 C 21,0 km/h 100,00 %
26.02.2020 13:02 5,1 C 94 % 999,1 hPa 0,0 l/m 12,7 km/h SW 221 0 min 0,000 mm 0,8 UV-I 186 W/m 4,2 C 0,5 C 19,1 km/h 100,00 %
26.02.2020 13:01 5,1 C 94 % 999,0 hPa 0,0 l/m 12,7 km/h SW 235 0 min 0,127 mm 0,6 UV-I 157 W/m 4,2 C 0,5 C 23,0 km/h 90,91 %
26.02.2020 13:00 5,1 C 94 % 999,1 hPa 0,0 l/m 13,2 km/h SW 222 0 min 0,000 mm 0,7 UV-I 187 W/m 4,2 C 0,2 C 23,0 km/h 100,00 %
26.02.2020 12:59 5,1 C 94 % 999,0 hPa 0,0 l/m 9,0 km/h W 259 0 min 0,000 mm 0,8 UV-I 232 W/m 4,2 C 2,9 C 15,3 km/h 100,00 %
26.02.2020 12:58 5,0 C 94 % 999,1 hPa 0,0 l/m 11,7 km/h S-SW 196 0 min 0,000 mm 0,7 UV-I 232 W/m 4,1 C 0,9 C 19,1 km/h 100,00 %
26.02.2020 12:57 5,1 C 95 % 999,0 hPa 0,0 l/m 13,4 km/h W-SW 248 0 min 0,000 mm 0,7 UV-I 236 W/m 4,4 C 0,1 C 26,8 km/h 100,00 %
26.02.2020 12:56 5,0 C 95 % 999,0 hPa 0,0 l/m 11,5 km/h SW 228 0 min 0,000 mm 0,7 UV-I 226 W/m 4,3 C 1,1 C 17,2 km/h 100,00 %
26.02.2020 12:55 5,0 C 95 % 999,0 hPa 0,0 l/m 12,2 km/h SW 215 0 min 0,000 mm 0,6 UV-I 189 W/m 4,3 C 0,6 C 21,0 km/h 100,00 %
26.02.2020 12:54 5,0 C 95 % 999,0 hPa 0,0 l/m 10,6 km/h SW 217 0 min 0,000 mm 0,6 UV-I 165 W/m 4,3 C 1,7 C 17,2 km/h 100,00 %
26.02.2020 12:53 5,0 C 95 % 999,0 hPa 0,0 l/m 9,7 km/h SW 236 0 min 0,000 mm 0,6 UV-I 157 W/m 4,3 C 2,3 C 15,3 km/h 95,83 %
26.02.2020 12:52 4,9 C 95 % 999,0 hPa 0,0 l/m 11,5 km/h S 188 0 min 0,000 mm 0,6 UV-I 154 W/m 4,2 C 1,0 C 17,2 km/h 100,00 %
26.02.2020 12:51 4,9 C 95 % 999,0 hPa 0,0 l/m 15,8 km/h SW 216 0 min 0,000 mm 0,6 UV-I 232 W/m 4,2 C -1,4 C 24,9 km/h 100,00 %
26.02.2020 12:50 4,9 C 95 % 999,0 hPa 0,0 l/m 10,0 km/h S-SW 197 0 min 0,000 mm 0,7 UV-I 257 W/m 4,2 C 2,0 C 17,2 km/h 100,00 %
26.02.2020 12:49 4,9 C 95 % 999,0 hPa 0,0 l/m 11,2 km/h W-SW 251 0 min 0,000 mm 0,6 UV-I 201 W/m 4,2 C 1,1 C 17,2 km/h 100,00 %
26.02.2020 12:48 4,9 C 95 % 999,0 hPa 0,0 l/m 13,8 km/h SW 224 0 min 0,000 mm 0,5 UV-I 177 W/m 4,2 C -0,4 C 21,0 km/h 100,00 %
26.02.2020 12:47 4,9 C 95 % 999,0 hPa 0,0 l/m 9,7 km/h SW 219 0 min 0,000 mm 0,6 UV-I 206 W/m 4,2 C 2,2 C 15,3 km/h 100,00 %
26.02.2020 12:46 4,9 C 95 % 999,0 hPa 0,0 l/m 12,6 km/h SW 228 0 min 0,000 mm 0,7 UV-I 228 W/m 4,2 C 0,3 C 21,0 km/h 100,00 %
26.02.2020 12:45 4,9 C 95 % 998,9 hPa 0,0 l/m 11,8 km/h SW 227 0 min 0,000 mm 0,7 UV-I 236 W/m 4,2 C 0,8 C 19,1 km/h 100,00 %
26.02.2020 12:44 4,9 C 95 % 999,0 hPa 0,0 l/m 11,0 km/h SW 235 1 min 0,000 mm 0,7 UV-I 366 W/m 4,2 C 1,3 C 19,1 km/h 100,00 %
26.02.2020 12:43 4,8 C 95 % 998,9 hPa 0,0 l/m 10,2 km/h SW 218 1 min 0,000 mm 1,0 UV-I 366 W/m 4,1 C 1,7 C 13,4 km/h 100,00 %
26.02.2020 12:42 4,8 C 96 % 999,0 hPa 0,0 l/m 9,9 km/h SW 223 1 min 0,000 mm 1,2 UV-I 366 W/m 4,2 C 1,9 C 15,3 km/h 96,15 %
26.02.2020 12:41 4,8 C 96 % 999,0 hPa 0,0 l/m 12,8 km/h SW 227 1 min 0,000 mm 1,0 UV-I 366 W/m 4,2 C 0,0 C 21,0 km/h 100,00 %
26.02.2020 12:40 4,8 C 96 % 999,0 hPa 0,0 l/m 9,9 km/h S-SW 211 1 min 0,000 mm 1,0 UV-I 347 W/m 4,2 C 1,9 C 15,3 km/h 100,00 %
26.02.2020 12:39 4,8 C 96 % 999,0 hPa 0,0 l/m 11,6 km/h S 191 1 min 0,000 mm 1,3 UV-I 328 W/m 4,2 C 0,8 C 21,0 km/h 100,00 %
26.02.2020 12:38 4,7 C 96 % 999,0 hPa 0,0 l/m 11,6 km/h S-SW 207 1 min 0,000 mm 1,1 UV-I 327 W/m 4,1 C 0,7 C 17,2 km/h 100,00 %
26.02.2020 12:37 4,7 C 96 % 999,0 hPa 0,0 l/m 6,3 km/h SW 225 1 min 0,000 mm 1,0 UV-I 312 W/m 4,1 C 4,7 C 15,3 km/h 100,00 %
26.02.2020 12:36 4,6 C 96 % 998,9 hPa 0,0 l/m 6,0 km/h S-SW 211 1 min 0,000 mm 1,1 UV-I 319 W/m 4,0 C 4,6 C 7,7 km/h 100,00 %
26.02.2020 12:35 4,5 C 96 % 998,9 hPa 0,0 l/m 9,8 km/h SW 219 1 min 0,000 mm 1,1 UV-I 293 W/m 3,9 C 1,7 C 13,4 km/h 100,00 %
26.02.2020 12:34 4,4 C 96 % 998,9 hPa 0,0 l/m 7,4 km/h SW 220 0 min 0,000 mm 1,3 UV-I 218 W/m 3,8 C 3,5 C 9,6 km/h 100,00 %
26.02.2020 12:33 4,3 C 95 % 999,0 hPa 0,0 l/m 11,6 km/h SW 233 0 min 0,000 mm 1,0 UV-I 256 W/m 3,6 C 0,2 C 19,1 km/h 100,00 %
26.02.2020 12:32 4,3 C 95 % 998,9 hPa 0,0 l/m 9,7 km/h W-SW 243 1 min 0,000 mm 1,0 UV-I 621 W/m 3,6 C 1,5 C 17,2 km/h 100,00 %
26.02.2020 12:31 4,3 C 95 % 998,9 hPa 0,0 l/m 15,9 km/h SW 227 1 min 0,000 mm 1,2 UV-I 456 W/m 3,6 C -2,2 C 21,0 km/h 96,30 %
26.02.2020 12:30 4,3 C 96 % 998,9 hPa 0,0 l/m 13,8 km/h S-SW 205 0 min 0,000 mm 1,3 UV-I 229 W/m 3,7 C -1,1 C 26,8 km/h 100,00 %
26.02.2020 12:29 4,3 C 96 % 998,9 hPa 0,0 l/m 14,0 km/h S-SW 212 0 min 0,000 mm 1,1 UV-I 229 W/m 3,7 C -1,2 C 23,0 km/h 100,00 %
26.02.2020 12:28 4,2 C 96 % 999,0 hPa 0,0 l/m 9,6 km/h S-SW 205 0 min 0,000 mm 0,9 UV-I 229 W/m 3,6 C 1,5 C 17,2 km/h 100,00 %
26.02.2020 12:27 4,3 C 96 % 999,0 hPa 0,0 l/m 8,6 km/h W-SW 245 0 min 0,000 mm 0,8 UV-I 187 W/m 3,7 C 2,4 C 17,2 km/h 100,00 %
26.02.2020 12:26 4,3 C 96 % 998,9 hPa 0,0 l/m 11,0 km/h S 176 0 min 0,000 mm 0,8 UV-I 139 W/m 3,7 C 0,6 C 19,1 km/h 100,00 %
26.02.2020 12:25 4,3 C 96 % 998,9 hPa 0,0 l/m 11,3 km/h S-SW 212 0 min 0,000 mm 0,8 UV-I 145 W/m 3,7 C 0,4 C 19,1 km/h 95,65 %
26.02.2020 12:24 4,3 C 96 % 998,9 hPa 0,0 l/m 12,1 km/h S-SW 199 0 min 0,000 mm 0,8 UV-I 191 W/m 3,7 C -0,1 C 17,2 km/h 100,00 %
26.02.2020 12:23 4,2 C 96 % 998,7 hPa 0,0 l/m 9,3 km/h SW 214 0 min 0,000 mm 0,8 UV-I 204 W/m 3,6 C 1,7 C 13,4 km/h 100,00 %
26.02.2020 12:22 4,2 C 96 % 998,8 hPa 0,0 l/m 10,7 km/h SW 236 0 min 0,000 mm 0,7 UV-I 265 W/m 3,6 C 0,7 C 15,3 km/h 100,00 %
26.02.2020 12:21 4,2 C 96 % 998,7 hPa 0,0 l/m 7,4 km/h W-SW 243 0 min 0,000 mm 0,9 UV-I 230 W/m 3,6 C 3,3 C 15,3 km/h 100,00 %
26.02.2020 12:20 4,2 C 96 % 998,8 hPa 0,0 l/m 6,2 km/h SW 219 0 min 0,000 mm 0,8 UV-I 184 W/m 3,6 C 4,2 C 9,6 km/h 100,00 %
26.02.2020 12:19 4,2 C 96 % 998,7 hPa 0,0 l/m 9,4 km/h SW 220 0 min 0,000 mm 0,9 UV-I 192 W/m 3,6 C 1,6 C 15,3 km/h 100,00 %
26.02.2020 12:18 4,1 C 96 % 998,8 hPa 0,0 l/m 13,0 km/h S 184 0 min 0,000 mm 0,9 UV-I 197 W/m 3,5 C -0,9 C 23,0 km/h 100,00 %
26.02.2020 12:17 4,2 C 96 % 998,7 hPa 0,0 l/m 15,8 km/h W-SW 245 0 min 0,000 mm 0,9 UV-I 219 W/m 3,6 C -2,3 C 24,9 km/h 100,00 %
26.02.2020 12:16 4,1 C 96 % 998,8 hPa 0,0 l/m 15,3 km/h S-SW 196 1 min 0,000 mm 0,9 UV-I 318 W/m 3,5 C -2,2 C 21,0 km/h 93,33 %
26.02.2020 12:15 4,1 C 96 % 998,7 hPa 0,0 l/m 13,5 km/h S-SW 198 1 min 0,000 mm 1,0 UV-I 328 W/m 3,5 C -1,2 C 24,9 km/h 100,00 %
26.02.2020 12:14 4,1 C 96 % 998,7 hPa 0,0 l/m 9,5 km/h S 180 1 min 0,000 mm 1,0 UV-I 342 W/m 3,5 C 1,4 C 17,2 km/h 100,00 %
26.02.2020 12:13 4,1 C 96 % 998,7 hPa 0,0 l/m 10,7 km/h S 191 0 min 0,000 mm 1,0 UV-I 179 W/m 3,5 C 0,6 C 19,1 km/h 100,00 %
26.02.2020 12:12 4,1 C 96 % 998,7 hPa 0,0 l/m 12,4 km/h S-SW 211 0 min 0,000 mm 0,8 UV-I 164 W/m 3,5 C -0,5 C 21,0 km/h 100,00 %
26.02.2020 12:11 4,1 C 96 % 998,7 hPa 0,0 l/m 13,2 km/h SW 222 0 min 0,000 mm 0,8 UV-I 164 W/m 3,5 C -1,0 C 21,0 km/h 100,00 %
26.02.2020 12:10 4,0 C 96 % 998,7 hPa 0,0 l/m 14,5 km/h SW 236 1 min 0,000 mm 0,9 UV-I 332 W/m 3,4 C -1,9 C 21,0 km/h 100,00 %
26.02.2020 12:09 3,9 C 96 % 998,6 hPa 0,0 l/m 8,8 km/h SW 229 1 min 0,000 mm 1,2 UV-I 355 W/m 3,3 C 1,8 C 13,4 km/h 100,00 %
26.02.2020 12:08 3,8 C 96 % 998,6 hPa 0,0 l/m 17,8 km/h S-SW 205 1 min 0,000 mm 1,2 UV-I 340 W/m 3,2 C -3,8 C 24,9 km/h 100,00 %
26.02.2020 12:07 3,7 C 96 % 998,7 hPa 0,0 l/m 10,3 km/h S-SW 211 1 min 0,000 mm 1,0 UV-I 293 W/m 3,1 C 0,4 C 19,1 km/h 100,00 %
26.02.2020 12:06 3,7 C 96 % 998,7 hPa 0,0 l/m 12,9 km/h S-SW 205 1 min 0,000 mm 1,0 UV-I 336 W/m 3,1 C -1,3 C 23,0 km/h 100,00 %
26.02.2020 12:05 3,7 C 96 % 998,7 hPa 0,0 l/m 15,9 km/h S-SW 211 1 min 0,000 mm 1,0 UV-I 322 W/m 3,1 C -3,0 C 21,0 km/h 100,00 %
26.02.2020 12:04 3,7 C 96 % 998,7 hPa 0,0 l/m 17,6 km/h S-SW 194 1 min 0,000 mm 1,1 UV-I 346 W/m 3,1 C -3,8 C 24,9 km/h 100,00 %
26.02.2020 12:03 3,7 C 96 % 998,7 hPa 0,0 l/m 14,7 km/h S-SW 211 1 min 0,000 mm 1,0 UV-I 303 W/m 3,1 C -2,3 C 21,0 km/h 100,00 %
26.02.2020 12:02 3,6 C 96 % 998,7 hPa 0,0 l/m 8,1 km/h S-SO 164 1 min 0,000 mm 1,0 UV-I 329 W/m 3,0 C 2,0 C 24,9 km/h 100,00 %
26.02.2020 12:01 3,5 C 96 % 998,7 hPa 0,0 l/m 9,8 km/h S 191 1 min 0,050 mm 0,9 UV-I 309 W/m 2,9 C 0,6 C 19,1 km/h 95,83 %
26.02.2020 12:00 3,4 C 96 % 998,7 hPa 0,0 l/m 9,9 km/h S-SW 209 1 min 0,000 mm 0,9 UV-I 290 W/m 2,8 C 0,4 C 15,3 km/h 96,15 %
26.02.2020 11:59 3,4 C 96 % 998,7 hPa 0,0 l/m 11,3 km/h S-SW 207 0 min 0,000 mm 0,9 UV-I 281 W/m 2,8 C -0,6 C 24,9 km/h 100,00 %
26.02.2020 11:58 3,4 C 96 % 998,6 hPa 0,0 l/m 11,2 km/h W-SW 239 0 min 0,000 mm 0,9 UV-I 245 W/m 2,8 C -0,6 C 17,2 km/h 100,00 %
26.02.2020 11:57 3,4 C 96 % 998,6 hPa 0,0 l/m 16,3 km/h W-SW 242 0 min 0,000 mm 0,8 UV-I 187 W/m 2,8 C -3,5 C 23,0 km/h 100,00 %
26.02.2020 11:56 3,4 C 96 % 998,7 hPa 0,0 l/m 10,0 km/h SW 235 0 min 0,000 mm 0,7 UV-I 158 W/m 2,8 C 0,3 C 17,2 km/h 100,00 %
26.02.2020 11:55 3,4 C 96 % 998,6 hPa 0,0 l/m 9,3 km/h SW 220 0 min 0,000 mm 0,6 UV-I 135 W/m 2,8 C 0,8 C 19,1 km/h 100,00 %
26.02.2020 11:54 3,4 C 96 % 998,6 hPa 0,0 l/m 7,1 km/h W 274 0 min 0,000 mm 0,6 UV-I 143 W/m 2,8 C 2,7 C 11,5 km/h 100,00 %
26.02.2020 11:53 3,4 C 96 % 998,6 hPa 0,0 l/m 8,6 km/h SW 230 0 min 0,000 mm 0,7 UV-I 173 W/m 2,8 C 1,4 C 17,2 km/h 100,00 %
26.02.2020 11:52 3,4 C 96 % 998,5 hPa 0,0 l/m 9,9 km/h S 189 0 min 0,000 mm 0,8 UV-I 203 W/m 2,8 C 0,4 C 17,2 km/h 100,00 %
26.02.2020 11:51 3,4 C 96 % 998,5 hPa 0,0 l/m 8,9 km/h SW 215 0 min 0,000 mm 0,7 UV-I 175 W/m 2,8 C 1,2 C 17,2 km/h 100,00 %
26.02.2020 11:50 3,4 C 96 % 998,5 hPa 0,0 l/m 11,4 km/h S-SW 209 0 min 0,000 mm 0,6 UV-I 149 W/m 2,8 C -0,7 C 19,1 km/h 96,30 %
26.02.2020 11:49 3,4 C 96 % 998,5 hPa 0,0 l/m 11,7 km/h S-SW 197 0 min 0,000 mm 0,7 UV-I 156 W/m 2,8 C -0,9 C 21,0 km/h 96,15 %
26.02.2020 11:48 3,3 C 96 % 998,5 hPa 0,0 l/m 9,4 km/h SW 220 0 min 0,000 mm 0,7 UV-I 168 W/m 2,7 C 0,7 C 13,4 km/h 100,00 %
26.02.2020 11:47 3,3 C 96 % 998,4 hPa 0,0 l/m 14,6 km/h SW 221 0 min 0,000 mm 0,8 UV-I 172 W/m 2,7 C -2,8 C 23,0 km/h 100,00 %
26.02.2020 11:46 3,3 C 96 % 998,4 hPa 0,0 l/m 9,3 km/h SW 220 0 min 0,000 mm 0,7 UV-I 162 W/m 2,7 C 0,7 C 17,2 km/h 100,00 %
26.02.2020 11:45 3,3 C 96 % 998,4 hPa 0,0 l/m 8,3 km/h SW 227 0 min 0,000 mm 0,7 UV-I 153 W/m 2,7 C 1,6 C 15,3 km/h 100,00 %
26.02.2020 11:44 3,3 C 96 % 998,4 hPa 0,0 l/m 15,4 km/h S-SW 208 0 min 0,000 mm 0,5 UV-I 134 W/m 2,7 C -3,2 C 24,9 km/h 100,00 %
26.02.2020 11:43 3,3 C 96 % 998,3 hPa 0,0 l/m 14,4 km/h W-SW 240 0 min 0,000 mm 0,5 UV-I 123 W/m 2,7 C -2,7 C 24,9 km/h 100,00 %
26.02.2020 11:42 3,3 C 96 % 998,3 hPa 0,0 l/m 17,8 km/h S-SW 200 0 min 0,000 mm 0,5 UV-I 119 W/m 2,7 C -4,4 C 21,0 km/h 100,00 %
26.02.2020 11:41 3,3 C 96 % 998,3 hPa 0,0 l/m 11,1 km/h SW 217 0 min 0,000 mm 0,4 UV-I 115 W/m 2,7 C -0,6 C 13,4 km/h 100,00 %
26.02.2020 11:40 3,2 C 96 % 998,3 hPa 0,0 l/m 10,6 km/h SW 219 0 min 0,000 mm 0,0 UV-I 102 W/m 2,6 C -0,4 C 15,3 km/h 100,00 %
26.02.2020 11:39 3,2 C 96 % 998,2 hPa 0,0 l/m 9,0 km/h SW 217 0 min 0,000 mm 0,0 UV-I 99 W/m 2,6 C 0,9 C 15,3 km/h 100,00 %
26.02.2020 11:38 3,2 C 96 % 998,2 hPa 0,0 l/m 11,6 km/h SW 226 0 min 0,000 mm 0,0 UV-I 105 W/m 2,6 C -1,1 C 17,2 km/h 100,00 %
26.02.2020 11:37 3,2 C 96 % 998,2 hPa 0,0 l/m 13,1 km/h W-SW 248 0 min 0,000 mm 0,0 UV-I 108 W/m 2,6 C -2,0 C 24,9 km/h 100,00 %
26.02.2020 11:36 3,2 C 96 % 998,2 hPa 0,0 l/m 11,8 km/h SW 226 0 min 0,000 mm 0,0 UV-I 115 W/m 2,6 C -1,2 C 19,1 km/h 100,00 %
26.02.2020 11:35 3,2 C 96 % 998,2 hPa 0,0 l/m 7,5 km/h SW 215 0 min 0,000 mm 0,5 UV-I 134 W/m 2,6 C 2,2 C 11,5 km/h 100,00 %
26.02.2020 11:34 3,1 C 96 % 998,1 hPa 0,0 l/m 10,2 km/h SW 221 0 min 0,000 mm 0,5 UV-I 132 W/m 2,5 C -0,2 C 19,1 km/h 100,00 %
26.02.2020 11:33 3,1 C 96 % 998,1 hPa 0,0 l/m 9,2 km/h SW 229 0 min 0,000 mm 0,5 UV-I 138 W/m 2,5 C 0,6 C 17,2 km/h 100,00 %
26.02.2020 11:32 3,1 C 96 % 998,1 hPa 0,0 l/m 11,0 km/h W-SW 238 0 min 0,000 mm 0,2 UV-I 134 W/m 2,5 C -0,8 C 17,2 km/h 100,00 %
26.02.2020 11:31 3,1 C 96 % 998,1 hPa 0,0 l/m 11,1 km/h SW 223 0 min 0,000 mm 0,0 UV-I 103 W/m 2,5 C -0,8 C 19,1 km/h 100,00 %
26.02.2020 11:30 3,1 C 96 % 998,0 hPa 0,0 l/m 10,3 km/h SW 217 0 min 0,000 mm 0,0 UV-I 93 W/m 2,5 C -0,2 C 17,2 km/h 100,00 %
26.02.2020 11:29 3,1 C 96 % 998,0 hPa 0,0 l/m 12,5 km/h SW 223 0 min 0,000 mm 0,0 UV-I 93 W/m 2,5 C -1,8 C 21,0 km/h 100,00 %
26.02.2020 11:28 3,1 C 96 % 998,0 hPa 0,0 l/m 10,0 km/h S 184 0 min 0,000 mm 0,0 UV-I 100 W/m 2,5 C -0,0 C 15,3 km/h 100,00 %
26.02.2020 11:27 3,1 C 96 % 998,0 hPa 0,0 l/m 12,1 km/h W-SW 238 0 min 0,000 mm 0,0 UV-I 96 W/m 2,5 C -1,5 C 19,1 km/h 96,67 %
26.02.2020 11:26 3,0 C 96 % 997,9 hPa 0,0 l/m 15,4 km/h SW 226 0 min 0,000 mm 0,0 UV-I 88 W/m 2,4 C -3,6 C 21,0 km/h 100,00 %
26.02.2020 11:25 3,1 C 96 % 997,9 hPa 0,0 l/m 12,1 km/h SW 222 0 min 0,000 mm 0,0 UV-I 82 W/m 2,5 C -1,5 C 21,0 km/h 100,00 %
26.02.2020 11:24 3,1 C 96 % 997,9 hPa 0,0 l/m 7,5 km/h SW 230 0 min 0,000 mm 0,0 UV-I 76 W/m 2,5 C 2,1 C 11,5 km/h 100,00 %
26.02.2020 11:23 3,0 C 96 % 997,9 hPa 0,0 l/m 11,1 km/h SW 215 0 min 0,000 mm 0,0 UV-I 76 W/m 2,4 C -0,9 C 19,1 km/h 100,00 %
26.02.2020 11:22 3,0 C 96 % 997,9 hPa 0,0 l/m 12,1 km/h SW 217 0 min 0,000 mm 0,0 UV-I 105 W/m 2,4 C -1,6 C 21,0 km/h 100,00 %
26.02.2020 11:21 3,0 C 96 % 997,8 hPa 0,0 l/m 11,9 km/h S-SW 211 0 min 0,000 mm 0,2 UV-I 134 W/m 2,4 C -1,5 C 19,1 km/h 100,00 %
26.02.2020 11:20 2,9 C 96 % 997,8 hPa 0,0 l/m 8,9 km/h SW 236 0 min 0,000 mm 0,5 UV-I 141 W/m 2,3 C 0,6 C 17,2 km/h 100,00 %
26.02.2020 11:19 2,9 C 96 % 997,8 hPa 0,0 l/m 9,8 km/h S-SW 209 0 min 0,000 mm 0,5 UV-I 155 W/m 2,3 C -0,1 C 17,2 km/h 100,00 %
26.02.2020 11:18 2,9 C 96 % 997,8 hPa 0,0 l/m 10,4 km/h S-SO 160 0 min 0,000 mm 0,6 UV-I 168 W/m 2,3 C -0,5 C 21,0 km/h 100,00 %
26.02.2020 11:17 2,9 C 96 % 997,8 hPa 0,0 l/m 10,4 km/h S-SW 211 0 min 0,000 mm 0,6 UV-I 163 W/m 2,3 C -0,5 C 15,3 km/h 100,00 %
26.02.2020 11:16 2,8 C 96 % 997,8 hPa 0,0 l/m 8,5 km/h S 180 0 min 0,000 mm 0,6 UV-I 164 W/m 2,2 C 0,9 C 17,2 km/h 100,00 %
26.02.2020 11:15 2,8 C 96 % 997,8 hPa 0,0 l/m 7,3 km/h SW 223 0 min 0,000 mm 0,7 UV-I 162 W/m 2,2 C 1,9 C 11,5 km/h 100,00 %
26.02.2020 11:14 2,8 C 96 % 997,8 hPa 0,0 l/m 12,3 km/h SW 216 0 min 0,000 mm 0,6 UV-I 147 W/m 2,2 C -2,0 C 24,9 km/h 100,00 %
26.02.2020 11:13 2,8 C 96 % 997,7 hPa 0,0 l/m 6,9 km/h SW 225 0 min 0,000 mm 0,5 UV-I 131 W/m 2,2 C 2,3 C 11,5 km/h 100,00 %
26.02.2020 11:12 2,8 C 96 % 997,7 hPa 0,0 l/m 10,4 km/h SW 220 0 min 0,000 mm 0,5 UV-I 128 W/m 2,2 C -0,7 C 17,2 km/h 100,00 %
26.02.2020 11:11 2,8 C 96 % 997,8 hPa 0,0 l/m 12,0 km/h S-SW 212 0 min 0,000 mm 0,5 UV-I 128 W/m 2,2 C -1,8 C 23,0 km/h 95,65 %
26.02.2020 11:10 2,7 C 96 % 997,7 hPa 0,0 l/m 9,1 km/h SW 225 0 min 0,000 mm 0,5 UV-I 128 W/m 2,1 C 0,2 C 15,3 km/h 96,30 %
26.02.2020 11:09 2,7 C 96 % 997,7 hPa 0,0 l/m 9,1 km/h S-SW 202 0 min 0,000 mm 0,5 UV-I 130 W/m 2,1 C 0,2 C 15,3 km/h 100,00 %
26.02.2020 11:08 2,7 C 96 % 997,7 hPa 0,0 l/m 8,7 km/h S-SW 211 0 min 0,000 mm 0,5 UV-I 137 W/m 2,1 C 0,6 C 13,4 km/h 100,00 %
26.02.2020 11:07 2,7 C 96 % 997,7 hPa 0,0 l/m 9,6 km/h SW 219 0 min 0,000 mm 0,6 UV-I 140 W/m 2,1 C -0,2 C 15,3 km/h 100,00 %
26.02.2020 11:06 2,7 C 96 % 997,6 hPa 0,0 l/m 11,1 km/h S-SW 213 0 min 0,000 mm 0,6 UV-I 136 W/m 2,1 C -1,3 C 17,2 km/h 100,00 %
26.02.2020 11:05 2,7 C 96 % 997,7 hPa 0,2 l/m 8,5 km/h SW 232 0 min 0,000 mm 0,4 UV-I 112 W/m 2,1 C 0,7 C 11,5 km/h 100,00 %
26.02.2020 11:04 2,7 C 96 % 997,7 hPa 0,0 l/m 11,3 km/h SW 219 0 min 0,000 mm 0,0 UV-I 96 W/m 2,1 C -1,4 C 19,1 km/h 100,00 %
26.02.2020 11:03 2,7 C 96 % 997,6 hPa 0,0 l/m 10,8 km/h W-SW 242 0 min 0,000 mm 0,0 UV-I 87 W/m 2,1 C -1,1 C 17,2 km/h 100,00 %
26.02.2020 11:02 2,7 C 96 % 997,6 hPa 0,0 l/m 9,2 km/h S-SW 196 0 min 0,000 mm 0,0 UV-I 88 W/m 2,1 C 0,2 C 15,3 km/h 100,00 %
26.02.2020 11:01 2,7 C 96 % 997,6 hPa 0,0 l/m 9,2 km/h S-SW 208 0 min 0,051 mm 0,0 UV-I 103 W/m 2,1 C 0,2 C 15,3 km/h 100,00 %
26.02.2020 11:00 2,7 C 96 % 997,6 hPa 0,0 l/m 15,5 km/h S-SW 211 0 min 0,000 mm 0,5 UV-I 130 W/m 2,1 C -4,0 C 26,8 km/h 100,00 %
26.02.2020 10:59 2,7 C 96 % 997,5 hPa 0,0 l/m 9,3 km/h SW 222 0 min 0,000 mm 0,5 UV-I 146 W/m 2,1 C 0,1 C 19,1 km/h 100,00 %
26.02.2020 10:58 2,7 C 96 % 997,5 hPa 0,0 l/m 14,9 km/h SW 224 0 min 0,000 mm 0,6 UV-I 157 W/m 2,1 C -3,7 C 24,9 km/h 100,00 %
26.02.2020 10:57 2,7 C 96 % 997,5 hPa 0,0 l/m 11,7 km/h S-SW 202 0 min 0,000 mm 0,5 UV-I 175 W/m 2,1 C -1,7 C 19,1 km/h 100,00 %
26.02.2020 10:56 2,7 C 96 % 997,5 hPa 0,0 l/m 11,7 km/h SW 216 0 min 0,000 mm 0,6 UV-I 224 W/m 2,1 C -1,7 C 15,3 km/h 100,00 %
26.02.2020 10:55 2,7 C 96 % 997,5 hPa 0,0 l/m 7,2 km/h S-SW 211 0 min 0,000 mm 0,6 UV-I 217 W/m 2,1 C 1,9 C 11,5 km/h 100,00 %
26.02.2020 10:54 2,7 C 96 % 997,4 hPa 0,0 l/m 12,3 km/h S-SW 211 0 min 0,000 mm 0,5 UV-I 153 W/m 2,1 C -2,1 C 19,1 km/h 100,00 %
26.02.2020 10:53 2,7 C 96 % 997,5 hPa 0,0 l/m 13,2 km/h SW 225 0 min 0,000 mm 0,5 UV-I 139 W/m 2,1 C -2,7 C 21,0 km/h 100,00 %
26.02.2020 10:52 2,6 C 96 % 997,4 hPa 0,0 l/m 7,1 km/h S-SW 210 0 min 0,000 mm 0,5 UV-I 134 W/m 2,0 C 1,9 C 11,5 km/h 100,00 %
26.02.2020 10:51 2,6 C 96 % 997,4 hPa 0,0 l/m 9,6 km/h SW 232 0 min 0,000 mm 0,2 UV-I 131 W/m 2,0 C -0,3 C 15,3 km/h 95,83 %
26.02.2020 10:50 2,6 C 96 % 997,4 hPa 0,0 l/m 6,6 km/h S-SW 200 0 min 0,000 mm 0,4 UV-I 121 W/m 2,0 C 2,4 C 11,5 km/h 100,00 %
26.02.2020 10:49 2,6 C 96 % 997,4 hPa 0,2 l/m 9,6 km/h W-SW 254 0 min 0,000 mm 0,5 UV-I 115 W/m 2,0 C -0,3 C 15,3 km/h 100,00 %
26.02.2020 10:48 2,6 C 96 % 997,4 hPa 0,0 l/m 8,8 km/h SW 228 0 min 0,000 mm 0,4 UV-I 98 W/m 2,0 C 0,4 C 15,3 km/h 100,00 %
26.02.2020 10:47 2,6 C 96 % 997,4 hPa 0,0 l/m 12,2 km/h S-SW 211 0 min 0,000 mm 0,0 UV-I 83 W/m 2,0 C -2,1 C 17,2 km/h 100,00 %
26.02.2020 10:46 2,6 C 96 % 997,4 hPa 0,0 l/m 13,8 km/h SW 215 0 min 0,000 mm 0,0 UV-I 77 W/m 2,0 C -3,1 C 21,0 km/h 100,00 %
26.02.2020 10:45 2,5 C 96 % 997,4 hPa 0,0 l/m 11,9 km/h W-SW 239 0 min 0,000 mm 0,0 UV-I 79 W/m 1,9 C -2,1 C 19,1 km/h 100,00 %
26.02.2020 10:44 2,5 C 96 % 997,3 hPa 0,0 l/m 10,3 km/h SW 215 0 min 0,000 mm 0,0 UV-I 89 W/m 1,9 C -0,9 C 19,1 km/h 100,00 %
26.02.2020 10:43 2,5 C 96 % 997,3 hPa 0,0 l/m 9,1 km/h SW 222 0 min 0,000 mm 0,5 UV-I 116 W/m 1,9 C 0,0 C 15,3 km/h 96,30 %
26.02.2020 10:42 2,5 C 96 % 997,2 hPa 0,0 l/m 11,9 km/h SW 233 0 min 0,000 mm 0,5 UV-I 123 W/m 1,9 C -2,1 C 15,3 km/h 100,00 %
26.02.2020 10:41 2,4 C 96 % 997,2 hPa 0,0 l/m 13,1 km/h SW 219 0 min 0,000 mm 0,6 UV-I 124 W/m 1,8 C -3,0 C 19,1 km/h 100,00 %
26.02.2020 10:40 2,4 C 96 % 997,2 hPa 0,0 l/m 10,3 km/h SW 227 0 min 0,000 mm 0,5 UV-I 118 W/m 1,8 C -1,0 C 13,4 km/h 95,65 %
26.02.2020 10:39 2,4 C 96 % 997,2 hPa 0,0 l/m 14,8 km/h W-SW 240 0 min 0,000 mm 0,5 UV-I 114 W/m 1,8 C -4,0 C 19,1 km/h 100,00 %
26.02.2020 10:38 2,4 C 96 % 997,2 hPa 0,0 l/m 11,7 km/h SW 220 0 min 0,000 mm 0,5 UV-I 111 W/m 1,8 C -2,0 C 17,2 km/h 100,00 %
26.02.2020 10:37 2,4 C 96 % 997,2 hPa 0,0 l/m 10,5 km/h SW 234 0 min 0,000 mm 0,0 UV-I 104 W/m 1,8 C -1,2 C 19,1 km/h 100,00 %
26.02.2020 10:36 2,4 C 96 % 997,2 hPa 0,0 l/m 14,8 km/h S-SW 203 0 min 0,000 mm 0,0 UV-I 96 W/m 1,8 C -4,0 C 24,9 km/h 100,00 %
26.02.2020 10:35 2,4 C 96 % 997,1 hPa 0,2 l/m 6,3 km/h SW 233 0 min 0,000 mm 0,0 UV-I 94 W/m 1,8 C 2,4 C 9,6 km/h 100,00 %
26.02.2020 10:34 2,4 C 96 % 997,1 hPa 0,0 l/m 6,3 km/h SW 217 0 min 0,000 mm 0,0 UV-I 89 W/m 1,8 C 2,4 C 11,5 km/h 95,83 %
26.02.2020 10:33 2,3 C 96 % 997,1 hPa 0,0 l/m 10,8 km/h W-SW 242 0 min 0,000 mm 0,0 UV-I 88 W/m 1,7 C -1,5 C 21,0 km/h 100,00 %
26.02.2020 10:32 2,3 C 96 % 997,1 hPa 0,0 l/m 14,6 km/h SW 219 0 min 0,000 mm 0,0 UV-I 91 W/m 1,7 C -4,0 C 21,0 km/h 100,00 %
26.02.2020 10:31 2,3 C 96 % 997,0 hPa 0,0 l/m 12,0 km/h SW 216 0 min 0,000 mm 0,0 UV-I 90 W/m 1,7 C -2,4 C 15,3 km/h 100,00 %
26.02.2020 10:30 2,3 C 96 % 997,1 hPa 0,0 l/m 11,1 km/h W 260 0 min 0,000 mm 0,0 UV-I 87 W/m 1,7 C -1,7 C 21,0 km/h 100,00 %
26.02.2020 10:29 2,3 C 96 % 997,0 hPa 0,0 l/m 11,4 km/h SW 221 0 min 0,000 mm 0,0 UV-I 91 W/m 1,7 C -1,9 C 15,3 km/h 100,00 %
26.02.2020 10:28 2,3 C 96 % 997,0 hPa 0,2 l/m 10,5 km/h SW 233 0 min 0,000 mm 0,0 UV-I 105 W/m 1,7 C -1,3 C 13,4 km/h 100,00 %
26.02.2020 10:27 2,2 C 96 % 997,0 hPa 0,0 l/m 7,9 km/h SW 236 0 min 0,000 mm 0,0 UV-I 117 W/m 1,6 C 0,8 C 13,4 km/h 92,86 %
26.02.2020 10:26 2,2 C 96 % 997,0 hPa 0,0 l/m 6,2 km/h SW 228 0 min 0,000 mm 0,0 UV-I 120 W/m 1,6 C 2,2 C 9,6 km/h 100,00 %
26.02.2020 10:25 2,2 C 96 % 997,0 hPa 0,0 l/m 7,5 km/h SW 227 0 min 0,000 mm 0,0 UV-I 120 W/m 1,6 C 1,1 C 9,6 km/h 100,00 %
26.02.2020 10:24 2,2 C 96 % 997,0 hPa 0,0 l/m 8,7 km/h S-SW 213 0 min 0,000 mm 0,0 UV-I 120 W/m 1,6 C 0,0 C 17,2 km/h 100,00 %
26.02.2020 10:23 2,2 C 96 % 996,9 hPa 0,0 l/m 11,7 km/h S-SW 208 0 min 0,000 mm 0,0 UV-I 122 W/m 1,6 C -2,3 C 17,2 km/h 100,00 %
26.02.2020 10:22 2,1 C 96 % 996,9 hPa 0,0 l/m 8,7 km/h S-SW 212 0 min 0,000 mm 0,0 UV-I 115 W/m 1,5 C -0,1 C 19,1 km/h 100,00 %
26.02.2020 10:21 2,1 C 96 % 996,8 hPa 0,0 l/m 6,1 km/h SW 215 0 min 0,000 mm 0,0 UV-I 110 W/m 1,5 C 2,1 C 11,5 km/h 100,00 %
26.02.2020 10:20 2,1 C 96 % 996,8 hPa 0,0 l/m 5,3 km/h SW 234 0 min 0,000 mm 0,0 UV-I 112 W/m 1,5 C 2,1 C 7,7 km/h 100,00 %
26.02.2020 10:19 2,1 C 96 % 996,8 hPa 0,0 l/m 12,6 km/h W-SW 244 0 min 0,000 mm 0,0 UV-I 108 W/m 1,5 C -3,0 C 17,2 km/h 100,00 %
26.02.2020 10:18 2,1 C 96 % 996,9 hPa 0,0 l/m 11,4 km/h SW 227 0 min 0,000 mm 0,0 UV-I 97 W/m 1,5 C -2,2 C 17,2 km/h 100,00 %
26.02.2020 10:17 2,0 C 96 % 996,9 hPa 0,0 l/m 7,5 km/h SW 227 0 min 0,000 mm 0,0 UV-I 97 W/m 1,4 C 0,9 C 13,4 km/h 100,00 %
26.02.2020 10:16 2,0 C 96 % 996,7 hPa 0,0 l/m 5,8 km/h W-SW 245 0 min 0,000 mm 0,0 UV-I 103 W/m 1,4 C 2,0 C 9,6 km/h 100,00 %
26.02.2020 10:15 2,0 C 96 % 996,7 hPa 0,2 l/m 6,5 km/h W-SW 246 0 min 0,000 mm 0,0 UV-I 108 W/m 1,4 C 1,9 C 9,6 km/h 100,00 %
26.02.2020 10:14 1,9 C 96 % 996,7 hPa 0,0 l/m 4,5 km/h S-SW 213 0 min 0,000 mm 0,0 UV-I 105 W/m 1,3 C 1,9 C 11,5 km/h 100,00 %
26.02.2020 10:13 1,9 C 96 % 996,7 hPa 0,0 l/m 5,4 km/h SW 232 0 min 0,000 mm 0,0 UV-I 97 W/m 1,3 C 1,9 C 15,3 km/h 100,00 %
26.02.2020 10:12 1,9 C 96 % 996,7 hPa 0,0 l/m 9,9 km/h W-SW 242 0 min 0,000 mm 0,0 UV-I 93 W/m 1,3 C -1,3 C 17,2 km/h 100,00 %
26.02.2020 10:11 1,9 C 96 % 996,6 hPa 0,0 l/m 8,4 km/h W-SW 240 0 min 0,000 mm 0,0 UV-I 86 W/m 1,3 C -0,0 C 13,4 km/h 100,00 %
26.02.2020 10:10 1,9 C 96 % 996,6 hPa 0,0 l/m 9,7 km/h SW 223 0 min 0,000 mm 0,0 UV-I 76 W/m 1,3 C -1,1 C 15,3 km/h 100,00 %
26.02.2020 10:09 1,9 C 96 % 996,7 hPa 0,0 l/m 10,4 km/h S-SW 198 0 min 0,000 mm 0,0 UV-I 69 W/m 1,3 C -1,7 C 17,2 km/h 100,00 %
26.02.2020 10:08 1,9 C 96 % 996,6 hPa 0,0 l/m 9,5 km/h W-SW 241 0 min 0,000 mm 0,0 UV-I 68 W/m 1,3 C -1,0 C 17,2 km/h 100,00 %
26.02.2020 10:07 1,8 C 96 % 996,6 hPa 0,2 l/m 7,0 km/h W-SW 242 0 min 0,000 mm 0,0 UV-I 69 W/m 1,2 C 1,2 C 11,5 km/h 100,00 %
26.02.2020 10:06 1,8 C 96 % 996,6 hPa 0,0 l/m 7,3 km/h S-SW 210 0 min 0,000 mm 0,0 UV-I 74 W/m 1,2 C 0,9 C 15,3 km/h 100,00 %
26.02.2020 10:05 1,8 C 96 % 996,6 hPa 0,0 l/m 8,5 km/h SW 217 0 min 0,000 mm 0,0 UV-I 69 W/m 1,2 C -0,2 C 11,5 km/h 100,00 %
26.02.2020 10:04 1,8 C 96 % 996,6 hPa 0,0 l/m 7,1 km/h SW 229 0 min 0,000 mm 0,0 UV-I 67 W/m 1,2 C 1,1 C 17,2 km/h 95,65 %
26.02.2020 10:03 1,8 C 96 % 996,5 hPa 0,0 l/m 8,5 km/h SW 218 0 min 0,000 mm 0,0 UV-I 64 W/m 1,2 C -0,2 C 13,4 km/h 100,00 %
26.02.2020 10:02 1,8 C 96 % 996,5 hPa 0,0 l/m 8,8 km/h SW 216 0 min 0,001 mm 0,0 UV-I 57 W/m 1,2 C -0,5 C 11,5 km/h 100,00 %
26.02.2020 10:01 1,8 C 96 % 996,5 hPa 0,0 l/m 9,9 km/h SW 233 0 min 0,025 mm 0,0 UV-I 54 W/m 1,2 C -1,4 C 13,4 km/h 96,30 %
26.02.2020 10:00 1,7 C 96 % 996,5 hPa 0,0 l/m 6,6 km/h W-SW 252 0 min 0,000 mm 0,0 UV-I 51 W/m 1,1 C 1,5 C 13,4 km/h 100,00 %
26.02.2020 09:59 1,7 C 96 % 996,5 hPa 0,0 l/m 6,4 km/h S-SW 211 0 min 0,000 mm 0,0 UV-I 52 W/m 1,1 C 1,7 C 9,6 km/h 100,00 %
26.02.2020 09:58 1,7 C 96 % 996,5 hPa 0,0 l/m 3,2 km/h SW 226 0 min 0,000 mm 0,0 UV-I 53 W/m 1,1 C 1,7 C 5,7 km/h 95,83 %
26.02.2020 09:57 1,7 C 96 % 996,4 hPa 0,0 l/m 6,9 km/h SW 227 0 min 0,000 mm 0,0 UV-I 56 W/m 1,1 C 1,2 C 9,6 km/h 95,65 %
26.02.2020 09:56 1,7 C 96 % 996,4 hPa 0,0 l/m 8,1 km/h W-SW 243 0 min 0,000 mm 0,0 UV-I 59 W/m 1,1 C 0,0 C 11,5 km/h 100,00 %
26.02.2020 09:55 1,7 C 96 % 996,4 hPa 0,0 l/m 7,1 km/h SW 219 0 min 0,000 mm 0,0 UV-I 63 W/m 1,1 C 1,0 C 17,2 km/h 100,00 %
26.02.2020 09:54 1,7 C 96 % 996,4 hPa 0,2 l/m 8,5 km/h SW 234 0 min 0,000 mm 0,0 UV-I 63 W/m 1,1 C -0,3 C 17,2 km/h 100,00 %
26.02.2020 09:53 1,7 C 96 % 996,3 hPa 0,0 l/m 7,2 km/h W-SW 238 0 min 0,000 mm 0,0 UV-I 62 W/m 1,1 C 0,9 C 13,4 km/h 100,00 %
26.02.2020 09:52 1,6 C 96 % 996,3 hPa 0,0 l/m 6,4 km/h SW 222 0 min 0,000 mm 0,0 UV-I 58 W/m 1,0 C 1,6 C 11,5 km/h 100,00 %
26.02.2020 09:51 1,6 C 96 % 996,3 hPa 0,0 l/m 7,4 km/h SW 215 0 min 0,000 mm 0,0 UV-I 53 W/m 1,0 C 0,6 C 13,4 km/h 100,00 %
26.02.2020 09:50 1,6 C 96 % 996,3 hPa 0,0 l/m 7,7 km/h SW 234 0 min 0,000 mm 0,0 UV-I 47 W/m 1,0 C 0,3 C 17,2 km/h 100,00 %
26.02.2020 09:49 1,6 C 96 % 996,3 hPa 0,0 l/m 6,9 km/h W-SW 239 0 min 0,000 mm 0,0 UV-I 46 W/m 1,0 C 1,1 C 15,3 km/h 95,65 %
26.02.2020 09:48 1,6 C 96 % 996,3 hPa 0,0 l/m 7,3 km/h SW 216 0 min 0,000 mm 0,0 UV-I 44 W/m 1,0 C 0,7 C 11,5 km/h 100,00 %
26.02.2020 09:47 1,6 C 96 % 996,3 hPa 0,0 l/m 9,5 km/h S-SW 209 0 min 0,000 mm 0,0 UV-I 43 W/m 1,0 C -1,3 C 13,4 km/h 100,00 %
26.02.2020 09:46 1,6 C 96 % 996,3 hPa 0,0 l/m 3,7 km/h SW 236 0 min 0,000 mm 0,0 UV-I 42 W/m 1,0 C 1,6 C 7,7 km/h 100,00 %
26.02.2020 09:45 1,6 C 96 % 996,2 hPa 0,0 l/m 6,7 km/h W-SW 237 0 min 0,000 mm 0,0 UV-I 44 W/m 1,0 C 1,3 C 11,5 km/h 100,00 %
26.02.2020 09:44 1,6 C 96 % 996,2 hPa 0,2 l/m 6,3 km/h SW 236 0 min 0,000 mm 0,0 UV-I 47 W/m 1,0 C 1,6 C 13,4 km/h 100,00 %
26.02.2020 09:43 1,5 C 96 % 996,2 hPa 0,0 l/m 7,3 km/h S-SW 207 0 min 0,000 mm 0,0 UV-I 47 W/m 0,9 C 0,6 C 9,6 km/h 100,00 %
26.02.2020 09:42 1,5 C 96 % 996,2 hPa 0,0 l/m 4,5 km/h SW 219 0 min 0,000 mm 0,0 UV-I 45 W/m 0,9 C 1,5 C 9,6 km/h 100,00 %
26.02.2020 09:41 1,5 C 96 % 996,2 hPa 0,0 l/m 6,2 km/h S-SW 209 0 min 0,000 mm 0,0 UV-I 42 W/m 0,9 C 1,5 C 11,5 km/h 100,00 %
26.02.2020 09:40 1,5 C 96 % 996,1 hPa 0,0 l/m 8,0 km/h SW 225 0 min 0,000 mm 0,0 UV-I 41 W/m 0,9 C -0,1 C 13,4 km/h 100,00 %
26.02.2020 09:39 1,5 C 96 % 996,0 hPa 0,0 l/m 5,8 km/h W-SW 238 0 min 0,000 mm 0,0 UV-I 41 W/m 0,9 C 1,5 C 9,6 km/h 95,65 %
26.02.2020 09:38 1,5 C 96 % 996,1 hPa 0,0 l/m 5,5 km/h SW 236 0 min 0,000 mm 0,0 UV-I 38 W/m 0,9 C 1,5 C 9,6 km/h 100,00 %
26.02.2020 09:37 1,5 C 96 % 996,1 hPa 0,0 l/m 6,4 km/h W-SW 245 0 min 0,000 mm 0,0 UV-I 35 W/m 0,9 C 1,5 C 9,6 km/h 96,30 %
26.02.2020 09:36 1,4 C 96 % 996,0 hPa 0,0 l/m 10,4 km/h SW 220 0 min 0,000 mm 0,0 UV-I 33 W/m 0,8 C -2,2 C 15,3 km/h 93,10 %
26.02.2020 09:35 1,4 C 96 % 996,0 hPa 0,0 l/m 10,0 km/h SW 220 0 min 0,000 mm 0,0 UV-I 33 W/m 0,8 C -1,9 C 15,3 km/h 100,00 %
26.02.2020 09:34 1,4 C 96 % 996,0 hPa 0,0 l/m 6,3 km/h S-SW 206 0 min 0,000 mm 0,0 UV-I 31 W/m 0,8 C 1,4 C 9,6 km/h 95,65 %
26.02.2020 09:33 1,4 C 96 % 996,0 hPa 0,0 l/m 9,2 km/h SW 225 0 min 0,000 mm 0,0 UV-I 30 W/m 0,8 C -1,2 C 13,4 km/h 100,00 %
26.02.2020 09:32 1,4 C 96 % 996,0 hPa 0,0 l/m 7,1 km/h W-SW 246 0 min 0,000 mm 0,0 UV-I 32 W/m 0,8 C 0,7 C 13,4 km/h 100,00 %
26.02.2020 09:31 1,4 C 96 % 995,9 hPa 0,0 l/m 5,9 km/h W-SW 246 0 min 0,000 mm 0,0 UV-I 33 W/m 0,8 C 1,4 C 13,4 km/h 100,00 %
26.02.2020 09:30 1,4 C 96 % 995,8 hPa 0,2 l/m 7,3 km/h SW 236 0 min 0,000 mm 0,0 UV-I 36 W/m 0,8 C 0,5 C 9,6 km/h 100,00 %
26.02.2020 09:29 1,4 C 96 % 995,9 hPa 0,0 l/m 5,6 km/h SW 225 0 min 0,000 mm 0,0 UV-I 38 W/m 0,8 C 1,4 C 7,7 km/h 100,00 %
26.02.2020 09:28 1,4 C 96 % 995,8 hPa 0,0 l/m 6,6 km/h SW 233 0 min 0,000 mm 0,0 UV-I 38 W/m 0,8 C 1,2 C 11,5 km/h 100,00 %
26.02.2020 09:27 1,4 C 96 % 995,8 hPa 0,0 l/m 5,3 km/h SW 223 0 min 0,000 mm 0,0 UV-I 38 W/m 0,8 C 1,4 C 9,6 km/h 100,00 %
26.02.2020 09:26 1,3 C 96 % 995,8 hPa 0,0 l/m 7,9 km/h SW 234 0 min 0,000 mm 0,0 UV-I 39 W/m 0,7 C -0,2 C 11,5 km/h 100,00 %
26.02.2020 09:25 1,3 C 96 % 995,8 hPa 0,0 l/m 5,7 km/h W-SW 251 0 min 0,000 mm 0,0 UV-I 39 W/m 0,7 C 1,3 C 13,4 km/h 95,83 %
26.02.2020 09:24 1,3 C 96 % 995,8 hPa 0,0 l/m 6,5 km/h S-SW 213 0 min 0,000 mm 0,0 UV-I 40 W/m 0,7 C 1,2 C 9,6 km/h 100,00 %
26.02.2020 09:23 1,3 C 96 % 995,7 hPa 0,0 l/m 3,6 km/h W 266 0 min 0,000 mm 0,0 UV-I 38 W/m 0,7 C 1,3 C 5,7 km/h 100,00 %
26.02.2020 09:22 1,3 C 96 % 995,7 hPa 0,0 l/m 5,9 km/h W 267 0 min 0,000 mm 0,0 UV-I 35 W/m 0,7 C 1,3 C 13,4 km/h 100,00 %
26.02.2020 09:21 1,3 C 96 % 995,7 hPa 0,0 l/m 5,1 km/h SW 223 0 min 0,000 mm 0,0 UV-I 32 W/m 0,7 C 1,3 C 7,7 km/h 100,00 %
26.02.2020 09:20 1,3 C 96 % 995,7 hPa 0,2 l/m 3,2 km/h SW 225 0 min 0,000 mm 0,0 UV-I 30 W/m 0,7 C 1,3 C 7,7 km/h 100,00 %
26.02.2020 09:19 1,3 C 96 % 995,7 hPa 0,0 l/m 3,6 km/h W 263 0 min 0,000 mm 0,0 UV-I 30 W/m 0,7 C 1,3 C 7,7 km/h 100,00 %
26.02.2020 09:18 1,2 C 96 % 995,7 hPa 0,0 l/m 4,6 km/h W-SW 240 0 min 0,000 mm 0,0 UV-I 30 W/m 0,6 C 1,2 C 7,7 km/h 100,00 %
26.02.2020 09:17 1,2 C 96 % 995,7 hPa 0,0 l/m 5,1 km/h W-SW 240 0 min 0,000 mm 0,0 UV-I 31 W/m 0,6 C 1,2 C 7,7 km/h 100,00 %
26.02.2020 09:16 1,2 C 96 % 995,7 hPa 0,0 l/m 6,2 km/h W-SW 242 0 min 0,000 mm 0,0 UV-I 34 W/m 0,6 C 1,2 C 9,6 km/h 96,15 %
26.02.2020 09:15 1,2 C 96 % 995,6 hPa 0,0 l/m 5,5 km/h SW 229 0 min 0,000 mm 0,0 UV-I 38 W/m 0,6 C 1,2 C 7,7 km/h 100,00 %
26.02.2020 09:14 1,2 C 96 % 995,6 hPa 0,0 l/m 5,6 km/h W-SW 252 0 min 0,000 mm 0,0 UV-I 39 W/m 0,6 C 1,2 C 7,7 km/h 100,00 %
26.02.2020 09:13 1,2 C 96 % 995,6 hPa 0,0 l/m 7,1 km/h W-SW 258 0 min 0,000 mm 0,0 UV-I 36 W/m 0,6 C 0,5 C 9,6 km/h 96,88 %
26.02.2020 09:12 1,1 C 96 % 995,6 hPa 0,0 l/m 4,2 km/h SW 221 0 min 0,000 mm 0,0 UV-I 34 W/m 0,5 C 1,1 C 7,7 km/h 100,00 %
26.02.2020 09:11 1,1 C 96 % 995,6 hPa 0,0 l/m 3,2 km/h SW 231 0 min 0,000 mm 0,0 UV-I 33 W/m 0,5 C 1,1 C 5,7 km/h 93,33 %
26.02.2020 09:10 1,1 C 96 % 995,6 hPa 0,0 l/m 5,0 km/h SW 231 0 min 0,000 mm 0,0 UV-I 33 W/m 0,5 C 1,1 C 9,6 km/h 100,00 %
26.02.2020 09:09 1,1 C 96 % 995,5 hPa 0,0 l/m 4,3 km/h W-SW 242 0 min 0,000 mm 0,0 UV-I 33 W/m 0,5 C 1,1 C 7,7 km/h 100,00 %
26.02.2020 09:08 1,1 C 96 % 995,5 hPa 0,0 l/m 2,7 km/h W-SW 242 0 min 0,000 mm 0,0 UV-I 33 W/m 0,5 C 1,1 C 3,8 km/h 100,00 %
26.02.2020 09:07 1,1 C 96 % 995,5 hPa 0,0 l/m 2,4 km/h W-SW 242 0 min 0,000 mm 0,0 UV-I 30 W/m 0,5 C 1,1 C 3,8 km/h 100,00 %
26.02.2020 09:06 1,1 C 96 % 995,5 hPa 0,0 l/m 3,9 km/h W-SW 242 0 min 0,000 mm 0,0 UV-I 30 W/m 0,5 C 1,1 C 5,7 km/h 100,00 %
26.02.2020 09:05 1,0 C 96 % 995,5 hPa 0,0 l/m 3,1 km/h W-SW 241 0 min 0,000 mm 0,0 UV-I 30 W/m 0,4 C 1,0 C 5,7 km/h 100,00 %
26.02.2020 09:04 1,0 C 96 % 995,5 hPa 0,0 l/m 4,1 km/h SW 235 0 min 0,000 mm 0,0 UV-I 29 W/m 0,4 C 1,0 C 7,7 km/h 100,00 %
26.02.2020 09:03 1,0 C 96 % 995,5 hPa 0,0 l/m 4,4 km/h SW 234 0 min 0,000 mm 0,0 UV-I 26 W/m 0,4 C 1,0 C 5,7 km/h 100,00 %
26.02.2020 09:02 1,0 C 96 % 995,4 hPa 0,0 l/m 5,4 km/h SW 235 0 min 0,000 mm 0,0 UV-I 26 W/m 0,4 C 1,0 C 7,7 km/h 100,00 %
26.02.2020 09:01 1,0 C 96 % 995,4 hPa 0,0 l/m 5,4 km/h SW 229 0 min 0,000 mm 0,0 UV-I 28 W/m 0,4 C 1,0 C 7,7 km/h 96,15 %
26.02.2020 09:00 0,9 C 96 % 995,4 hPa 0,0 l/m 3,1 km/h SW 228 0 min 0,000 mm 0,0 UV-I 30 W/m 0,3 C 0,9 C 5,7 km/h 100,00 %
26.02.2020 08:59 0,9 C 96 % 995,4 hPa 0,0 l/m 4,1 km/h SW 227 0 min 0,000 mm 0,0 UV-I 27 W/m 0,3 C 0,9 C 9,6 km/h 100,00 %
26.02.2020 08:58 0,9 C 96 % 995,4 hPa 0,0 l/m 5,4 km/h W-SW 248 0 min 0,000 mm 0,0 UV-I 24 W/m 0,3 C 0,9 C 13,4 km/h 100,00 %
26.02.2020 08:57 0,9 C 96 % 995,3 hPa 0,0 l/m 6,9 km/h W-SW 238 0 min 0,000 mm 0,0 UV-I 21 W/m 0,3 C 0,4 C 9,6 km/h 100,00 %
26.02.2020 08:56 0,9 C 96 % 995,3 hPa 0,0 l/m 4,3 km/h SW 218 0 min 0,000 mm 0,0 UV-I 19 W/m 0,3 C 0,9 C 7,7 km/h 100,00 %
26.02.2020 08:55 0,9 C 96 % 995,3 hPa 0,0 l/m 6,2 km/h SW 218 0 min 0,000 mm 0,0 UV-I 21 W/m 0,3 C 0,9 C 11,5 km/h 100,00 %
26.02.2020 08:54 0,9 C 96 % 995,2 hPa 0,0 l/m 5,3 km/h W-SW 252 0 min 0,000 mm 0,0 UV-I 22 W/m 0,3 C 0,9 C 7,7 km/h 100,00 %
26.02.2020 08:53 0,9 C 96 % 995,2 hPa 0,0 l/m 4,9 km/h SW 221 0 min 0,000 mm 0,0 UV-I 24 W/m 0,3 C 0,9 C 7,7 km/h 100,00 %
26.02.2020 08:52 0,9 C 96 % 995,2 hPa 0,0 l/m 4,8 km/h W-SW 243 0 min 0,000 mm 0,0 UV-I 25 W/m 0,3 C 0,9 C 7,7 km/h 100,00 %
26.02.2020 08:51 0,9 C 96 % 995,2 hPa 0,0 l/m 3,9 km/h SW 222 0 min 0,000 mm 0,0 UV-I 23 W/m 0,3 C 0,9 C 5,7 km/h 100,00 %
26.02.2020 08:50 0,9 C 96 % 995,2 hPa 0,0 l/m 5,7 km/h SW 217 0 min 0,000 mm 0,0 UV-I 23 W/m 0,3 C 0,9 C 7,7 km/h 100,00 %
26.02.2020 08:49 0,9 C 96 % 995,2 hPa 0,0 l/m 4,4 km/h SW 231 0 min 0,000 mm 0,0 UV-I 20 W/m 0,3 C 0,9 C 7,7 km/h 100,00 %
26.02.2020 08:48 1,0 C 96 % 995,2 hPa 0,0 l/m 4,0 km/h SW 229 0 min 0,000 mm 0,0 UV-I 19 W/m 0,4 C 1,0 C 9,6 km/h 100,00 %
26.02.2020 08:47 0,9 C 96 % 995,2 hPa 0,0 l/m 4,5 km/h SW 222 0 min 0,000 mm 0,0 UV-I 16 W/m 0,3 C 0,9 C 9,6 km/h 100,00 %
26.02.2020 08:46 1,0 C 96 % 995,1 hPa 0,0 l/m 7,1 km/h SW 215 0 min 0,000 mm 0,0 UV-I 13 W/m 0,4 C 0,3 C 13,4 km/h 100,00 %
26.02.2020 08:45 1,0 C 96 % 995,0 hPa 0,0 l/m 2,2 km/h W-SW 242 0 min 0,000 mm 0,0 UV-I 12 W/m 0,4 C 1,0 C 5,7 km/h 100,00 %
26.02.2020 08:44 1,0 C 96 % 995,1 hPa 0,0 l/m 5,0 km/h W-SW 242 0 min 0,000 mm 0,0 UV-I 11 W/m 0,4 C 1,0 C 7,7 km/h 100,00 %
26.02.2020 08:43 1,1 C 96 % 995,0 hPa 0,0 l/m 5,3 km/h W-SW 241 0 min 0,000 mm 0,0 UV-I 12 W/m 0,5 C 1,1 C 7,7 km/h 100,00 %
26.02.2020 08:42 1,1 C 96 % 995,0 hPa 0,0 l/m 3,4 km/h W-SW 241 0 min 0,000 mm 0,0 UV-I 12 W/m 0,5 C 1,1 C 5,7 km/h 100,00 %
26.02.2020 08:41 1,1 C 95 % 995,0 hPa 0,0 l/m 4,4 km/h W-SW 245 0 min 0,000 mm 0,0 UV-I 13 W/m 0,4 C 1,1 C 7,7 km/h 100,00 %
26.02.2020 08:40 1,1 C 95 % 995,0 hPa 0,0 l/m 4,8 km/h W-SW 255 0 min 0,000 mm 0,0 UV-I 16 W/m 0,4 C 1,1 C 13,4 km/h 100,00 %
26.02.2020 08:39 1,1 C 95 % 994,9 hPa 0,0 l/m 1,9 km/h SW 220 0 min 0,000 mm 0,0 UV-I 16 W/m 0,4 C 1,1 C 3,8 km/h 100,00 %
26.02.2020 08:38 1,1 C 95 % 994,9 hPa 0,0 l/m 4,5 km/h SW 220 0 min 0,000 mm 0,0 UV-I 16 W/m 0,4 C 1,1 C 5,7 km/h 100,00 %
26.02.2020 08:37 1,1 C 95 % 994,9 hPa 0,0 l/m 5,5 km/h SW 219 0 min 0,000 mm 0,0 UV-I 16 W/m 0,4 C 1,1 C 9,6 km/h 100,00 %
26.02.2020 08:36 1,1 C 95 % 994,9 hPa 0,0 l/m 6,0 km/h SW 214 0 min 0,000 mm 0,0 UV-I 16 W/m 0,4 C 1,1 C 9,6 km/h 100,00 %
26.02.2020 08:35 1,1 C 95 % 994,8 hPa 0,0 l/m 7,7 km/h SW 232 0 min 0,000 mm 0,0 UV-I 15 W/m 0,4 C -0,2 C 17,2 km/h 100,00 %
26.02.2020 08:34 1,1 C 95 % 994,8 hPa 0,0 l/m 8,8 km/h SW 220 0 min 0,000 mm 0,0 UV-I 14 W/m 0,4 C -1,2 C 13,4 km/h 100,00 %
26.02.2020 08:33 1,1 C 95 % 994,9 hPa 0,0 l/m 5,7 km/h SW 223 0 min 0,000 mm 0,0 UV-I 14 W/m 0,4 C 1,1 C 7,7 km/h 100,00 %
26.02.2020 08:32 1,2 C 96 % 994,8 hPa 0,0 l/m 2,4 km/h SW 234 0 min 0,000 mm 0,0 UV-I 12 W/m 0,6 C 1,2 C 5,7 km/h 100,00 %
26.02.2020 08:31 1,2 C 96 % 994,8 hPa 0,0 l/m 8,2 km/h SW 235 0 min 0,000 mm 0,0 UV-I 12 W/m 0,6 C -0,6 C 13,4 km/h 100,00 %
26.02.2020 08:30 1,2 C 96 % 994,8 hPa 0,0 l/m 6,2 km/h SW 215 0 min 0,000 mm 0,0 UV-I 12 W/m 0,6 C 1,2 C 15,3 km/h 100,00 %
26.02.2020 08:29 1,2 C 96 % 994,8 hPa 0,0 l/m 5,4 km/h SW 231 0 min 0,000 mm 0,0 UV-I 11 W/m 0,6 C 1,2 C 9,6 km/h 100,00 %
26.02.2020 08:28 1,2 C 96 % 994,8 hPa 0,0 l/m 8,7 km/h W-SW 237 0 min 0,000 mm 0,0 UV-I 11 W/m 0,6 C -1,0 C 17,2 km/h 100,00 %
26.02.2020 08:27 1,2 C 96 % 994,7 hPa 0,0 l/m 6,3 km/h SW 232 0 min 0,000 mm 0,0 UV-I 11 W/m 0,6 C 1,2 C 7,7 km/h 100,00 %
26.02.2020 08:26 1,2 C 96 % 994,7 hPa 0,0 l/m 6,2 km/h SW 216 0 min 0,000 mm 0,0 UV-I 11 W/m 0,6 C 1,2 C 9,6 km/h 100,00 %
26.02.2020 08:25 1,2 C 96 % 994,7 hPa 0,0 l/m 6,2 km/h SW 221 0 min 0,000 mm 0,0 UV-I 11 W/m 0,6 C 1,2 C 9,6 km/h 100,00 %
26.02.2020 08:24 1,2 C 96 % 994,6 hPa 0,0 l/m 5,4 km/h S-SW 211 0 min 0,000 mm 0,0 UV-I 11 W/m 0,6 C 1,2 C 11,5 km/h 100,00 %
26.02.2020 08:23 1,3 C 96 % 994,6 hPa 0,2 l/m 10,6 km/h SW 232 0 min 0,000 mm 0,0 UV-I 12 W/m 0,7 C -2,5 C 17,2 km/h 96,15 %
26.02.2020 08:22 1,2 C 96 % 994,6 hPa 0,0 l/m 5,5 km/h W-SW 258 0 min 0,000 mm 0,0 UV-I 12 W/m 0,6 C 1,2 C 13,4 km/h 100,00 %
26.02.2020 08:21 1,2 C 96 % 994,6 hPa 0,0 l/m 8,8 km/h W-SW 252 0 min 0,000 mm 0,0 UV-I 12 W/m 0,6 C -1,1 C 17,2 km/h 95,65 %
26.02.2020 08:20 1,2 C 96 % 994,5 hPa 0,0 l/m 11,5 km/h S-SW 200 0 min 0,000 mm 0,0 UV-I 12 W/m 0,6 C -3,3 C 21,0 km/h 95,83 %
26.02.2020 08:19 1,3 C 96 % 994,5 hPa 0,0 l/m 7,3 km/h SW 228 0 min 0,000 mm 0,0 UV-I 12 W/m 0,7 C 0,4 C 11,5 km/h 100,00 %
26.02.2020 08:18 1,3 C 96 % 994,4 hPa 0,0 l/m 12,9 km/h SW 217 0 min 0,000 mm 0,0 UV-I 12 W/m 0,7 C -4,1 C 23,0 km/h 95,65 %
26.02.2020 08:17 1,3 C 96 % 994,4 hPa 0,0 l/m 12,9 km/h SW 222 0 min 0,000 mm 0,0 UV-I 13 W/m 0,7 C -4,1 C 17,2 km/h 100,00 %
26.02.2020 08:16 1,2 C 96 % 994,4 hPa 0,0 l/m 10,4 km/h SW 215 0 min 0,000 mm 0,0 UV-I 14 W/m 0,6 C -2,4 C 17,2 km/h 95,65 %
26.02.2020 08:15 1,3 C 96 % 994,4 hPa 0,0 l/m 9,3 km/h SW 223 0 min 0,000 mm 0,0 UV-I 14 W/m 0,7 C -1,4 C 15,3 km/h 95,83 %
26.02.2020 08:14 1,3 C 96 % 994,4 hPa 0,0 l/m 8,0 km/h W-SW 246 0 min 0,000 mm 0,0 UV-I 14 W/m 0,7 C -0,3 C 15,3 km/h 91,30 %
26.02.2020 08:13 1,3 C 96 % 994,4 hPa 0,0 l/m 8,8 km/h W-SW 240 0 min 0,000 mm 0,0 UV-I 14 W/m 0,7 C -1,0 C 13,4 km/h 96,00 %
26.02.2020 08:12 1,3 C 96 % 994,3 hPa 0,0 l/m 8,6 km/h SW 218 0 min 0,000 mm 0,0 UV-I 14 W/m 0,7 C -0,8 C 13,4 km/h 100,00 %
26.02.2020 08:11 1,3 C 96 % 994,3 hPa 0,0 l/m 8,1 km/h S-SW 200 0 min 0,000 mm 0,0 UV-I 14 W/m 0,7 C -0,4 C 11,5 km/h 96,30 %
26.02.2020 08:10 1,3 C 96 % 994,3 hPa 0,2 l/m 12,8 km/h SW 219 0 min 0,000 mm 0,0 UV-I 14 W/m 0,7 C -4,0 C 19,1 km/h 100,00 %
26.02.2020 08:09 1,3 C 96 % 994,3 hPa 0,0 l/m 16,1 km/h S 190 0 min 0,000 mm 0,0 UV-I 14 W/m 0,7 C -6,0 C 24,9 km/h 93,33 %
26.02.2020 08:08 1,3 C 96 % 994,3 hPa 0,0 l/m 12,5 km/h SW 235 0 min 0,000 mm 0,0 UV-I 14 W/m 0,7 C -3,8 C 24,9 km/h 96,15 %
26.02.2020 08:07 1,3 C 95 % 994,3 hPa 0,0 l/m 6,1 km/h SW 225 0 min 0,000 mm 0,0 UV-I 14 W/m 0,6 C 1,3 C 13,4 km/h 96,30 %
26.02.2020 08:06 1,3 C 96 % 994,2 hPa 0,0 l/m 10,0 km/h SW 236 0 min 0,000 mm 0,0 UV-I 14 W/m 0,7 C -2,0 C 15,3 km/h 100,00 %
26.02.2020 08:05 1,3 C 95 % 994,2 hPa 0,0 l/m 11,3 km/h SW 230 0 min 0,000 mm 0,0 UV-I 15 W/m 0,6 C -3,0 C 21,0 km/h 96,30 %
26.02.2020 08:04 1,3 C 95 % 994,2 hPa 0,0 l/m 6,2 km/h SW 229 0 min 0,000 mm 0,0 UV-I 16 W/m 0,6 C 1,3 C 11,5 km/h 95,65 %
26.02.2020 08:03 1,3 C 95 % 994,1 hPa 0,0 l/m 6,7 km/h SW 218 0 min 0,000 mm 0,0 UV-I 16 W/m 0,6 C 1,0 C 13,4 km/h 100,00 %
26.02.2020 08:02 1,3 C 95 % 994,2 hPa 0,0 l/m 8,2 km/h SW 219 0 min 0,000 mm 0,0 UV-I 14 W/m 0,6 C -0,5 C 19,1 km/h 91,30 %
26.02.2020 08:01 1,3 C 95 % 994,2 hPa 0,0 l/m 10,1 km/h W-SW 241 0 min 0,000 mm 0,0 UV-I 14 W/m 0,6 C -2,1 C 21,0 km/h 100,00 %
26.02.2020 08:00 1,3 C 95 % 994,1 hPa 0,0 l/m 8,1 km/h W-SW 246 0 min 0,000 mm 0,0 UV-I 14 W/m 0,6 C -0,4 C 17,2 km/h 95,83 %
26.02.2020 07:59 1,3 C 95 % 994,1 hPa 0,0 l/m 10,4 km/h W-SW 238 0 min 0,000 mm 0,0 UV-I 13 W/m 0,6 C -2,3 C 17,2 km/h 100,00 %
26.02.2020 07:58 1,3 C 95 % 994,0 hPa 0,0 l/m 8,4 km/h SW 225 0 min 0,000 mm 0,0 UV-I 12 W/m 0,6 C -0,7 C 17,2 km/h 95,83 %
26.02.2020 07:57 1,3 C 95 % 994,0 hPa 0,0 l/m 7,9 km/h W-SW 246 0 min 0,000 mm 0,0 UV-I 12 W/m 0,6 C -0,2 C 21,0 km/h 96,15 %
26.02.2020 07:56 1,3 C 95 % 994,0 hPa 0,0 l/m 4,8 km/h W 260 0 min 0,000 mm 0,0 UV-I 12 W/m 0,6 C 1,3 C 7,7 km/h 100,00 %
26.02.2020 07:55 1,3 C 95 % 994,0 hPa 0,0 l/m 9,2 km/h SW 216 0 min 0,000 mm 0,0 UV-I 12 W/m 0,6 C -1,4 C 17,2 km/h 95,65 %
26.02.2020 07:54 1,3 C 95 % 993,9 hPa 0,0 l/m 10,3 km/h SW 217 0 min 0,000 mm 0,0 UV-I 12 W/m 0,6 C -2,3 C 21,0 km/h 100,00 %
26.02.2020 07:53 1,3 C 95 % 993,9 hPa 0,0 l/m 11,0 km/h SW 223 0 min 0,000 mm 0,0 UV-I 11 W/m 0,6 C -2,8 C 17,2 km/h 93,33 %
26.02.2020 07:52 1,3 C 95 % 993,9 hPa 0,0 l/m 10,4 km/h SW 215 0 min 0,000 mm 0,0 UV-I 11 W/m 0,6 C -2,3 C 15,3 km/h 100,00 %
26.02.2020 07:51 1,3 C 95 % 993,9 hPa 0,0 l/m 7,3 km/h S-SW 209 0 min 0,000 mm 0,0 UV-I 11 W/m 0,6 C 0,4 C 13,4 km/h 96,15 %
26.02.2020 07:50 1,3 C 95 % 993,9 hPa 0,0 l/m 11,1 km/h W 281 0 min 0,000 mm 0,0 UV-I 10 W/m 0,6 C -2,9 C 13,4 km/h 96,67 %
26.02.2020 07:49 1,3 C 95 % 993,9 hPa 0,0 l/m 10,7 km/h SW 229 0 min 0,000 mm 0,0 UV-I 9 W/m 0,6 C -2,6 C 17,2 km/h 100,00 %
26.02.2020 07:48 1,3 C 95 % 993,9 hPa 0,2 l/m 12,2 km/h SW 215 0 min 0,000 mm 0,0 UV-I 9 W/m 0,6 C -3,6 C 21,0 km/h 96,30 %
26.02.2020 07:47 1,3 C 95 % 993,8 hPa 0,0 l/m 8,7 km/h SW 227 0 min 0,000 mm 0,0 UV-I 9 W/m 0,6 C -0,9 C 13,4 km/h 100,00 %
26.02.2020 07:46 1,3 C 95 % 993,8 hPa 0,0 l/m 10,0 km/h W-SW 238 0 min 0,000 mm 0,0 UV-I 9 W/m 0,6 C -2,0 C 13,4 km/h 95,83 %
26.02.2020 07:45 1,3 C 95 % 993,7 hPa 0,0 l/m 13,0 km/h S-SW 211 0 min 0,000 mm 0,0 UV-I 9 W/m 0,6 C -4,2 C 19,1 km/h 100,00 %
26.02.2020 07:44 1,3 C 95 % 993,7 hPa 0,0 l/m 12,7 km/h W-SW 243 0 min 0,000 mm 0,0 UV-I 9 W/m 0,6 C -4,0 C 17,2 km/h 95,83 %
26.02.2020 07:43 1,3 C 95 % 993,7 hPa 0,0 l/m 6,5 km/h SW 217 0 min 0,000 mm 0,0 UV-I 8 W/m 0,6 C 1,2 C 13,4 km/h 100,00 %
26.02.2020 07:42 1,3 C 95 % 993,7 hPa 0,0 l/m 6,8 km/h SW 222 0 min 0,000 mm 0,0 UV-I 7 W/m 0,6 C 0,9 C 11,5 km/h 96,30 %
26.02.2020 07:41 1,2 C 95 % 993,7 hPa 0,0 l/m 6,9 km/h SW 232 0 min 0,000 mm 0,0 UV-I 5 W/m 0,5 C 0,7 C 17,2 km/h 96,15 %
26.02.2020 07:40 1,2 C 95 % 993,6 hPa 0,0 l/m 7,6 km/h SW 216 0 min 0,000 mm 0,0 UV-I 5 W/m 0,5 C -0,0 C 11,5 km/h 100,00 %
26.02.2020 07:39 1,2 C 95 % 993,6 hPa 0,0 l/m 5,6 km/h SW 223 0 min 0,000 mm 0,0 UV-I 4 W/m 0,5 C 1,2 C 13,4 km/h 92,86 %
26.02.2020 07:38 1,2 C 95 % 993,6 hPa 0,0 l/m 11,6 km/h SW 236 0 min 0,000 mm 0,0 UV-I 0 W/m 0,5 C -3,3 C 17,2 km/h 100,00 %
26.02.2020 07:37 1,2 C 95 % 993,6 hPa 0,0 l/m 11,0 km/h SW 234 0 min 0,000 mm 0,0 UV-I 0 W/m 0,5 C -2,9 C 15,3 km/h 92,31 %
26.02.2020 07:36 1,2 C 95 % 993,5 hPa 0,0 l/m 11,2 km/h SW 215 0 min 0,000 mm 0,0 UV-I 0 W/m 0,5 C -3,0 C 17,2 km/h 100,00 %
26.02.2020 07:35 1,2 C 95 % 993,5 hPa 0,0 l/m 8,3 km/h SW 219 0 min 0,000 mm 0,0 UV-I 0 W/m 0,5 C -0,7 C 15,3 km/h 95,83 %
26.02.2020 07:34 1,2 C 95 % 993,6 hPa 0,0 l/m 12,9 km/h S-SW 198 0 min 0,000 mm 0,0 UV-I 0 W/m 0,5 C -4,2 C 21,0 km/h 96,55 %
26.02.2020 07:33 1,2 C 95 % 993,5 hPa 0,0 l/m 10,4 km/h SW 236 0 min 0,000 mm 0,0 UV-I 0 W/m 0,5 C -2,4 C 17,2 km/h 100,00 %
26.02.2020 07:32 1,2 C 95 % 993,5 hPa 0,0 l/m 14,6 km/h W-SW 245 0 min 0,000 mm 0,0 UV-I 0 W/m 0,5 C -5,3 C 21,0 km/h 97,16 %
26.02.2020 07:31 1,2 C 95 % 993,5 hPa 0,2 l/m 16,2 km/h SW 227 0 min 0,000 mm 0,0 UV-I 0 W/m 0,5 C -6,2 C 23,0 km/h 92,00 %
26.02.2020 07:30 1,2 C 95 % 993,4 hPa 0,0 l/m 11,5 km/h SW 232 0 min 0,000 mm 0,0 UV-I 0 W/m 0,5 C -3,3 C 19,1 km/h 92,31 %
26.02.2020 07:29 1,2 C 95 % 993,4 hPa 0,0 l/m 9,1 km/h S-SW 204 0 min 0,000 mm 0,0 UV-I 0 W/m 0,5 C -1,4 C 15,3 km/h 100,00 %
26.02.2020 07:28 1,2 C 95 % 993,4 hPa 0,0 l/m 10,0 km/h S-SW 205 0 min 0,000 mm 0,0 UV-I 0 W/m 0,5 C -2,1 C 15,3 km/h 95,65 %
26.02.2020 07:27 1,2 C 95 % 993,4 hPa 0,0 l/m 11,7 km/h S-SW 211 0 min 0,000 mm 0,0 UV-I 0 W/m 0,5 C -3,4 C 19,1 km/h 100,00 %
26.02.2020 07:26 1,1 C 95 % 993,4 hPa 0,0 l/m 10,0 km/h SW 219 0 min 0,000 mm 0,0 UV-I 0 W/m 0,4 C -2,2 C 13,4 km/h 92,86 %
26.02.2020 07:25 1,1 C 95 % 993,4 hPa 0,0 l/m 9,3 km/h SW 225 0 min 0,000 mm 0,0 UV-I 0 W/m 0,4 C -1,7 C 17,2 km/h 100,00 %
26.02.2020 07:24 1,1 C 95 % 993,3 hPa 0,0 l/m 12,1 km/h SW 236 0 min 0,000 mm 0,0 UV-I 0 W/m 0,4 C -3,8 C 24,9 km/h 96,15 %
26.02.2020 07:23 1,1 C 95 % 993,3 hPa 0,0 l/m 8,8 km/h W 271 0 min 0,000 mm 0,0 UV-I 0 W/m 0,4 C -1,2 C 17,2 km/h 100,00 %
26.02.2020 07:22 1,1 C 95 % 993,2 hPa 0,0 l/m 6,0 km/h SW 215 0 min 0,000 mm 0,0 UV-I 0 W/m 0,4 C 1,1 C 11,5 km/h 95,65 %
26.02.2020 07:21 1,1 C 95 % 993,2 hPa 0,0 l/m 6,3 km/h W-SW 242 0 min 0,000 mm 0,0 UV-I 0 W/m 0,4 C 1,1 C 9,6 km/h 95,83 %
26.02.2020 07:20 1,1 C 95 % 993,2 hPa 0,0 l/m 9,7 km/h S-SW 207 0 min 0,000 mm 0,0 UV-I 0 W/m 0,4 C -2,0 C 15,3 km/h 100,00 %
26.02.2020 07:19 1,1 C 95 % 993,2 hPa 0,0 l/m 9,1 km/h SW 215 0 min 0,000 mm 0,0 UV-I 0 W/m 0,4 C -1,5 C 15,3 km/h 96,30 %
26.02.2020 07:18 1,1 C 95 % 993,2 hPa 0,0 l/m 6,2 km/h SW 217 0 min 0,000 mm 0,0 UV-I 0 W/m 0,4 C 1,1 C 9,6 km/h 100,00 %
26.02.2020 07:17 1,1 C 95 % 993,2 hPa 0,0 l/m 9,6 km/h SW 235 0 min 0,000 mm 0,0 UV-I 0 W/m 0,4 C -1,9 C 13,4 km/h 96,88 %
26.02.2020 07:16 1,1 C 95 % 993,1 hPa 0,0 l/m 8,7 km/h SW 215 0 min 0,000 mm 0,0 UV-I 0 W/m 0,4 C -1,1 C 11,5 km/h 100,00 %
26.02.2020 07:15 1,1 C 95 % 993,1 hPa 0,0 l/m 3,2 km/h W-SW 238 0 min 0,000 mm 0,0 UV-I 0 W/m 0,4 C 1,1 C 5,7 km/h 95,65 %
26.02.2020 07:14 1,1 C 95 % 993,1 hPa 0,0 l/m 4,7 km/h SW 233 0 min 0,000 mm 0,0 UV-I 0 W/m 0,4 C 1,1 C 7,7 km/h 100,00 %
26.02.2020 07:13 1,1 C 95 % 993,1 hPa 0,0 l/m 5,6 km/h W-SW 242 0 min 0,000 mm 0,0 UV-I 0 W/m 0,4 C 1,1 C 13,4 km/h 95,83 %
26.02.2020 07:12 1,1 C 95 % 993,1 hPa 0,0 l/m 10,5 km/h W-SW 250 0 min 0,000 mm 0,0 UV-I 0 W/m 0,4 C -2,6 C 15,3 km/h 95,83 %
26.02.2020 07:11 1,1 C 95 % 993,0 hPa 0,0 l/m 7,4 km/h SW 228 0 min 0,000 mm 0,0 UV-I 0 W/m 0,4 C 0,1 C 9,6 km/h 100,00 %
26.02.2020 07:10 1,1 C 95 % 993,0 hPa 0,0 l/m 11,1 km/h SW 226 0 min 0,000 mm 0,0 UV-I 0 W/m 0,4 C -3,1 C 17,2 km/h 96,30 %
26.02.2020 07:09 1,1 C 95 % 993,0 hPa 0,0 l/m 6,3 km/h W-SW 252 0 min 0,000 mm 0,0 UV-I 0 W/m 0,4 C 1,1 C 9,6 km/h 100,00 %
26.02.2020 07:08 1,1 C 95 % 993,0 hPa 0,0 l/m 7,8 km/h SW 235 0 min 0,000 mm 0,0 UV-I 0 W/m 0,4 C -0,3 C 11,5 km/h 96,30 %
26.02.2020 07:07 1,1 C 95 % 993,0 hPa 0,0 l/m 9,7 km/h SW 216 0 min 0,000 mm 0,0 UV-I 0 W/m 0,4 C -2,0 C 13,4 km/h 92,31 %
26.02.2020 07:06 1,1 C 95 % 993,0 hPa 0,0 l/m 13,9 km/h SW 225 0 min 0,000 mm 0,0 UV-I 0 W/m 0,4 C -5,0 C 19,1 km/h 100,00 %
26.02.2020 07:05 1,1 C 95 % 992,9 hPa 0,0 l/m 11,0 km/h SW 215 0 min 0,000 mm 0,0 UV-I 0 W/m 0,4 C -3,0 C 15,3 km/h 96,55 %
26.02.2020 07:04 1,1 C 95 % 993,0 hPa 0,0 l/m 11,8 km/h SW 228 0 min 0,000 mm 0,0 UV-I 0 W/m 0,4 C -3,6 C 19,1 km/h 100,00 %
26.02.2020 07:03 1,1 C 95 % 993,0 hPa 0,0 l/m 8,3 km/h S 191 0 min 0,000 mm 0,0 UV-I 0 W/m 0,4 C -0,8 C 11,5 km/h 95,65 %
26.02.2020 07:02 1,1 C 95 % 993,0 hPa 0,0 l/m 6,0 km/h W-SW 242 0 min 0,000 mm 0,0 UV-I 0 W/m 0,4 C 1,1 C 13,4 km/h 100,00 %
26.02.2020 07:01 1,1 C 95 % 992,9 hPa 0,0 l/m 9,4 km/h SW 223 0 min 0,000 mm 0,0 UV-I 0 W/m 0,4 C -1,7 C 17,2 km/h 95,65 %
26.02.2020 07:00 1,1 C 95 % 992,9 hPa 0,0 l/m 9,9 km/h S-SW 209 0 min 0,000 mm 0,0 UV-I 0 W/m 0,4 C -2,2 C 19,1 km/h 100,00 %
26.02.2020 06:59 1,1 C 95 % 992,9 hPa 0,0 l/m 7,5 km/h SW 225 0 min 0,000 mm 0,0 UV-I 0 W/m 0,4 C -0,0 C 13,4 km/h 95,83 %
26.02.2020 06:58 1,1 C 95 % 992,9 hPa 0,0 l/m 6,9 km/h SW 234 0 min 0,000 mm 0,0 UV-I 0 W/m 0,4 C 0,6 C 13,4 km/h 100,00 %
26.02.2020 06:57 1,1 C 95 % 992,9 hPa 0,0 l/m 8,9 km/h W-SW 241 0 min 0,000 mm 0,0 UV-I 0 W/m 0,4 C -1,3 C 13,4 km/h 95,83 %
26.02.2020 06:56 1,1 C 95 % 992,8 hPa 0,0 l/m 8,9 km/h S-SW 212 0 min 0,000 mm 0,0 UV-I 0 W/m 0,4 C -1,3 C 11,5 km/h 100,00 %
26.02.2020 06:55 1,1 C 95 % 992,8 hPa 0,0 l/m 7,3 km/h SW 216 0 min 0,000 mm 0,0 UV-I 0 W/m 0,4 C 0,2 C 13,4 km/h 96,00 %
26.02.2020 06:54 1,1 C 95 % 992,9 hPa 0,0 l/m 6,5 km/h SW 214 0 min 0,000 mm 0,0 UV-I 0 W/m 0,4 C 1,0 C 9,6 km/h 96,15 %
26.02.2020 06:53 1,1 C 95 % 992,8 hPa 0,0 l/m 8,5 km/h S-SW 206 0 min 0,000 mm 0,0 UV-I 0 W/m 0,4 C -1,0 C 15,3 km/h 100,00 %
26.02.2020 06:52 1,1 C 95 % 992,8 hPa 0,0 l/m 9,4 km/h SW 223 0 min 0,000 mm 0,0 UV-I 0 W/m 0,4 C -1,7 C 15,3 km/h 92,86 %
26.02.2020 06:51 1,1 C 95 % 992,8 hPa 0,0 l/m 8,9 km/h S-SW 198 0 min 0,000 mm 0,0 UV-I 0 W/m 0,4 C -1,3 C 13,4 km/h 100,00 %
26.02.2020 06:50 1,1 C 95 % 992,8 hPa 0,0 l/m 6,1 km/h SW 221 0 min 0,000 mm 0,0 UV-I 0 W/m 0,4 C 1,1 C 9,6 km/h 91,30 %
26.02.2020 06:49 1,1 C 95 % 992,8 hPa 0,0 l/m 6,5 km/h SW 234 0 min 0,000 mm 0,0 UV-I 0 W/m 0,4 C 1,0 C 11,5 km/h 96,30 %
26.02.2020 06:48 1,1 C 95 % 992,8 hPa 0,0 l/m 10,6 km/h S-SW 213 0 min 0,000 mm 0,0 UV-I 0 W/m 0,4 C -2,7 C 15,3 km/h 100,00 %
26.02.2020 06:47 1,1 C 95 % 992,8 hPa 0,0 l/m 8,1 km/h SW 221 0 min 0,000 mm 0,0 UV-I 0 W/m 0,4 C -0,6 C 13,4 km/h 91,67 %
26.02.2020 06:46 1,1 C 95 % 992,8 hPa 0,0 l/m 4,9 km/h SW 217 0 min 0,000 mm 0,0 UV-I 0 W/m 0,4 C 1,1 C 9,6 km/h 100,00 %
26.02.2020 06:45 1,1 C 95 % 992,8 hPa 0,0 l/m 7,2 km/h S 182 0 min 0,000 mm 0,0 UV-I 0 W/m 0,4 C 0,3 C 11,5 km/h 95,83 %
26.02.2020 06:44 1,1 C 95 % 992,8 hPa 0,0 l/m 9,9 km/h SW 231 0 min 0,000 mm 0,0 UV-I 0 W/m 0,4 C -2,2 C 15,3 km/h 100,00 %
26.02.2020 06:43 1,1 C 95 % 992,8 hPa 0,0 l/m 6,3 km/h SW 220 0 min 0,000 mm 0,0 UV-I 0 W/m 0,4 C 1,1 C 9,6 km/h 91,67 %
26.02.2020 06:42 1,1 C 95 % 992,8 hPa 0,0 l/m 7,2 km/h S 189 0 min 0,000 mm 0,0 UV-I 0 W/m 0,4 C 0,3 C 11,5 km/h 100,00 %
26.02.2020 06:41 1,1 C 95 % 992,8 hPa 0,0 l/m 6,7 km/h S-SW 199 0 min 0,000 mm 0,0 UV-I 0 W/m 0,4 C 0,8 C 13,4 km/h 95,83 %
26.02.2020 06:40 1,1 C 95 % 992,8 hPa 0,0 l/m 12,1 km/h SW 217 0 min 0,000 mm 0,0 UV-I 0 W/m 0,4 C -3,8 C 17,2 km/h 100,00 %
26.02.2020 06:39 1,1 C 95 % 992,8 hPa 0,0 l/m 8,9 km/h S-SW 202 0 min 0,000 mm 0,0 UV-I 0 W/m 0,4 C -1,3 C 13,4 km/h 96,30 %
26.02.2020 06:38 1,1 C 94 % 992,8 hPa 0,0 l/m 8,0 km/h W-SW 238 0 min 0,000 mm 0,0 UV-I 0 W/m 0,2 C -0,5 C 13,4 km/h 96,15 %
26.02.2020 06:37 1,1 C 94 % 992,8 hPa 0,0 l/m 8,2 km/h S-SW 202 0 min 0,000 mm 0,0 UV-I 0 W/m 0,2 C -0,7 C 13,4 km/h 100,00 %
26.02.2020 06:36 1,1 C 94 % 992,8 hPa 0,0 l/m 5,3 km/h SW 221 0 min 0,000 mm 0,0 UV-I 0 W/m 0,2 C 1,1 C 11,5 km/h 83,33 %
26.02.2020 06:35 1,1 C 94 % 992,8 hPa 0,0 l/m 7,3 km/h SW 229 0 min 0,000 mm 0,0 UV-I 0 W/m 0,2 C 0,2 C 13,4 km/h 100,00 %
26.02.2020 06:34 1,1 C 94 % 992,8 hPa 0,0 l/m 4,1 km/h SW 225 0 min 0,000 mm 0,0 UV-I 0 W/m 0,2 C 1,1 C 7,7 km/h 96,30 %
26.02.2020 06:33 1,1 C 94 % 992,8 hPa 0,0 l/m 3,9 km/h SW 227 0 min 0,000 mm 0,0 UV-I 0 W/m 0,2 C 1,1 C 7,7 km/h 92,86 %
26.02.2020 06:32 1,1 C 94 % 992,7 hPa 0,0 l/m 10,1 km/h SW 231 0 min 0,000 mm 0,0 UV-I 0 W/m 0,2 C -2,3 C 21,0 km/h 96,30 %
26.02.2020 06:31 1,1 C 94 % 992,7 hPa 0,0 l/m 5,1 km/h SW 234 0 min 0,000 mm 0,0 UV-I 0 W/m 0,2 C 1,1 C 9,6 km/h 100,00 %
26.02.2020 06:30 1,1 C 94 % 992,7 hPa 0,0 l/m 4,5 km/h SW 235 0 min 0,000 mm 0,0 UV-I 0 W/m 0,2 C 1,1 C 11,5 km/h 87,50 %
26.02.2020 06:29 1,2 C 94 % 992,7 hPa 0,0 l/m 4,1 km/h SW 218 0 min 0,000 mm 0,0 UV-I 0 W/m 0,3 C 1,2 C 5,7 km/h 100,00 %
26.02.2020 06:28 1,2 C 94 % 992,6 hPa 0,0 l/m 11,2 km/h SW 220 0 min 0,000 mm 0,0 UV-I 0 W/m 0,3 C -3,0 C 19,1 km/h 96,30 %
26.02.2020 06:27 1,2 C 94 % 992,7 hPa 0,0 l/m 5,6 km/h SW 225 0 min 0,000 mm 0,0 UV-I 0 W/m 0,3 C 1,2 C 11,5 km/h 95,65 %
26.02.2020 06:26 1,2 C 94 % 992,6 hPa 0,0 l/m 5,9 km/h SW 234 0 min 0,000 mm 0,0 UV-I 0 W/m 0,3 C 1,2 C 7,7 km/h 100,00 %
26.02.2020 06:25 1,2 C 94 % 992,7 hPa 0,0 l/m 7,0 km/h SW 218 0 min 0,000 mm 0,0 UV-I 0 W/m 0,3 C 0,6 C 13,4 km/h 95,65 %
26.02.2020 06:24 1,2 C 94 % 992,7 hPa 0,0 l/m 7,7 km/h S-SW 198 0 min 0,000 mm 0,0 UV-I 0 W/m 0,3 C -0,1 C 11,5 km/h 100,00 %
26.02.2020 06:23 1,2 C 94 % 992,7 hPa 0,0 l/m 10,2 km/h W-SW 239 0 min 0,000 mm 0,0 UV-I 0 W/m 0,3 C -2,3 C 17,2 km/h 96,15 %
26.02.2020 06:22 1,3 C 94 % 992,7 hPa 0,0 l/m 7,0 km/h SW 231 0 min 0,000 mm 0,0 UV-I 0 W/m 0,4 C 0,7 C 11,5 km/h 95,83 %
26.02.2020 06:21 1,3 C 94 % 992,6 hPa 0,0 l/m 9,5 km/h SW 219 0 min 0,000 mm 0,0 UV-I 0 W/m 0,4 C -1,6 C 17,2 km/h 100,00 %
26.02.2020 06:20 1,3 C 94 % 992,5 hPa 0,0 l/m 9,3 km/h SW 218 0 min 0,000 mm 0,0 UV-I 0 W/m 0,4 C -1,4 C 11,5 km/h 96,15 %
26.02.2020 06:19 1,3 C 94 % 992,5 hPa 0,0 l/m 6,5 km/h S-SW 213 0 min 0,000 mm 0,0 UV-I 0 W/m 0,4 C 1,2 C 11,5 km/h 100,00 %
26.02.2020 06:18 1,3 C 94 % 992,5 hPa 0,0 l/m 5,9 km/h SW 234 0 min 0,000 mm 0,0 UV-I 0 W/m 0,4 C 1,3 C 9,6 km/h 96,15 %
26.02.2020 06:17 1,4 C 94 % 992,6 hPa 0,0 l/m 5,8 km/h S-SW 211 0 min 0,000 mm 0,0 UV-I 0 W/m 0,5 C 1,4 C 13,4 km/h 100,00 %
26.02.2020 06:16 1,4 C 94 % 992,6 hPa 0,0 l/m 9,7 km/h SW 221 0 min 0,000 mm 0,0 UV-I 0 W/m 0,5 C -1,7 C 13,4 km/h 91,67 %
26.02.2020 06:15 1,4 C 94 % 992,5 hPa 0,0 l/m 9,6 km/h SW 232 0 min 0,000 mm 0,0 UV-I 0 W/m 0,5 C -1,6 C 15,3 km/h 96,30 %
26.02.2020 06:14 1,4 C 94 % 992,5 hPa 0,0 l/m 11,3 km/h W-SW 254 0 min 0,000 mm 0,0 UV-I 0 W/m 0,5 C -2,9 C 21,0 km/h 95,65 %
26.02.2020 06:13 1,5 C 94 % 992,5 hPa 0,0 l/m 3,8 km/h SW 229 0 min 0,000 mm 0,0 UV-I 0 W/m 0,6 C 1,5 C 7,7 km/h 96,00 %
26.02.2020 06:12 1,5 C 94 % 992,5 hPa 0,0 l/m 6,7 km/h SW 226 0 min 0,000 mm 0,0 UV-I 0 W/m 0,6 C 1,2 C 9,6 km/h 100,00 %
26.02.2020 06:11 1,5 C 94 % 992,5 hPa 0,0 l/m 9,1 km/h SW 226 0 min 0,000 mm 0,0 UV-I 0 W/m 0,6 C -1,1 C 17,2 km/h 95,83 %
26.02.2020 06:10 1,5 C 94 % 992,5 hPa 0,0 l/m 4,8 km/h SW 219 0 min 0,000 mm 0,0 UV-I 0 W/m 0,6 C 1,5 C 7,7 km/h 100,00 %
26.02.2020 06:09 1,5 C 94 % 992,4 hPa 0,0 l/m 8,8 km/h SW 232 0 min 0,000 mm 0,0 UV-I 0 W/m 0,6 C -0,8 C 17,2 km/h 95,83 %
26.02.2020 06:08 1,5 C 94 % 992,4 hPa 0,0 l/m 10,3 km/h SW 224 0 min 0,000 mm 0,0 UV-I 0 W/m 0,6 C -2,0 C 13,4 km/h 100,00 %
26.02.2020 06:07 1,5 C 94 % 992,4 hPa 0,0 l/m 8,7 km/h SW 227 0 min 0,000 mm 0,0 UV-I 0 W/m 0,6 C -0,7 C 13,4 km/h 91,67 %
26.02.2020 06:06 1,5 C 94 % 992,4 hPa 0,0 l/m 7,2 km/h S-SW 192 0 min 0,000 mm 0,0 UV-I 0 W/m 0,6 C 0,7 C 11,5 km/h 100,00 %
26.02.2020 06:05 1,5 C 94 % 992,4 hPa 0,0 l/m 7,8 km/h SW 231 0 min 0,000 mm 0,0 UV-I 0 W/m 0,6 C 0,1 C 11,5 km/h 96,30 %
26.02.2020 06:04 1,5 C 94 % 992,4 hPa 0,0 l/m 9,9 km/h SW 227 0 min 0,000 mm 0,0 UV-I 0 W/m 0,6 C -1,7 C 17,2 km/h 96,15 %
26.02.2020 06:03 1,5 C 94 % 992,4 hPa 0,0 l/m 8,5 km/h SW 234 0 min 0,000 mm 0,0 UV-I 0 W/m 0,6 C -0,5 C 15,3 km/h 100,00 %
26.02.2020 06:02 1,5 C 94 % 992,4 hPa 0,0 l/m 8,2 km/h S-SW 202 0 min 0,000 mm 0,0 UV-I 0 W/m 0,6 C -0,3 C 15,3 km/h 95,65 %
26.02.2020 06:01 1,6 C 94 % 992,4 hPa 0,0 l/m 8,0 km/h S-SW 209 0 min 0,000 mm 0,0 UV-I 0 W/m 0,7 C 0,0 C 15,3 km/h 100,00 %
26.02.2020 06:00 1,6 C 94 % 992,4 hPa 0,0 l/m 10,7 km/h W-SW 250 0 min 0,000 mm 0,0 UV-I 0 W/m 0,7 C -2,2 C 19,1 km/h 95,83 %
26.02.2020 05:59 1,6 C 94 % 992,4 hPa 0,0 l/m 8,8 km/h SW 219 0 min 0,000 mm 0,0 UV-I 0 W/m 0,7 C -0,7 C 15,3 km/h 95,65 %
26.02.2020 05:58 1,6 C 94 % 992,4 hPa 0,0 l/m 7,7 km/h S-SW 199 0 min 0,000 mm 0,0 UV-I 0 W/m 0,7 C 0,3 C 11,5 km/h 96,55 %
26.02.2020 05:57 1,6 C 94 % 992,4 hPa 0,2 l/m 4,7 km/h S-SW 206 0 min 0,000 mm 0,0 UV-I 0 W/m 0,7 C 1,6 C 9,6 km/h 95,83 %
26.02.2020 05:56 1,6 C 94 % 992,4 hPa 0,0 l/m 7,5 km/h S-SW 206 0 min 0,000 mm 0,0 UV-I 0 W/m 0,7 C 0,5 C 11,5 km/h 100,00 %
26.02.2020 05:55 1,6 C 94 % 992,3 hPa 0,0 l/m 8,8 km/h SW 228 0 min 0,000 mm 0,0 UV-I 0 W/m 0,7 C -0,7 C 11,5 km/h 100,00 %
26.02.2020 05:54 1,7 C 94 % 992,3 hPa 0,0 l/m 10,3 km/h S-SW 207 0 min 0,000 mm 0,0 UV-I 0 W/m 0,8 C -1,8 C 17,2 km/h 95,83 %
26.02.2020 05:53 1,7 C 94 % 992,3 hPa 0,0 l/m 5,2 km/h SW 216 0 min 0,000 mm 0,0 UV-I 0 W/m 0,8 C 1,7 C 9,6 km/h 92,31 %
26.02.2020 05:52 1,7 C 94 % 992,3 hPa 0,0 l/m 6,4 km/h SW 220 0 min 0,000 mm 0,0 UV-I 0 W/m 0,8 C 1,7 C 11,5 km/h 100,00 %
26.02.2020 05:51 1,7 C 94 % 992,3 hPa 0,0 l/m 7,9 km/h SW 225 0 min 0,000 mm 0,0 UV-I 0 W/m 0,8 C 0,2 C 17,2 km/h 95,65 %
26.02.2020 05:50 1,8 C 94 % 992,3 hPa 0,0 l/m 8,1 km/h SW 229 0 min 0,000 mm 0,0 UV-I 0 W/m 0,9 C 0,2 C 15,3 km/h 96,30 %
26.02.2020 05:49 1,8 C 94 % 992,3 hPa 0,0 l/m 5,8 km/h SW 215 0 min 0,000 mm 0,0 UV-I 0 W/m 0,9 C 1,8 C 11,5 km/h 100,00 %
26.02.2020 05:48 1,8 C 94 % 992,3 hPa 0,0 l/m 9,7 km/h SW 236 0 min 0,000 mm 0,0 UV-I 0 W/m 0,9 C -1,2 C 15,3 km/h 100,00 %
26.02.2020 05:47 1,8 C 94 % 992,3 hPa 0,0 l/m 6,3 km/h SW 222 0 min 0,000 mm 0,0 UV-I 0 W/m 0,9 C 1,8 C 9,6 km/h 95,65 %
26.02.2020 05:46 1,8 C 94 % 992,3 hPa 0,0 l/m 9,6 km/h W-SW 250 0 min 0,000 mm 0,0 UV-I 0 W/m 0,9 C -1,1 C 13,4 km/h 97,56 %
26.02.2020 05:45 1,9 C 94 % 992,3 hPa 0,0 l/m 9,0 km/h S-SW 207 0 min 0,000 mm 0,0 UV-I 0 W/m 1,0 C -0,5 C 15,3 km/h 97,20 %
26.02.2020 05:44 1,9 C 94 % 992,2 hPa 0,0 l/m 8,8 km/h SW 224 0 min 0,000 mm 0,0 UV-I 0 W/m 1,0 C -0,4 C 13,4 km/h 96,67 %
26.02.2020 05:43 1,9 C 94 % 992,2 hPa 0,0 l/m 12,0 km/h S-SW 212 0 min 0,000 mm 0,0 UV-I 0 W/m 1,0 C -2,8 C 21,0 km/h 100,00 %
26.02.2020 05:42 1,9 C 94 % 992,2 hPa 0,0 l/m 10,0 km/h W-SW 252 0 min 0,000 mm 0,0 UV-I 0 W/m 1,0 C -1,4 C 17,2 km/h 91,67 %
26.02.2020 05:41 2,0 C 94 % 992,2 hPa 0,0 l/m 11,8 km/h S-SW 209 0 min 0,000 mm 0,0 UV-I 0 W/m 1,1 C -2,6 C 23,0 km/h 100,00 %
26.02.2020 05:40 2,0 C 94 % 992,2 hPa 0,0 l/m 8,7 km/h SW 223 0 min 0,000 mm 0,0 UV-I 0 W/m 1,1 C -0,2 C 13,4 km/h 92,31 %
26.02.2020 05:39 2,0 C 94 % 992,2 hPa 0,0 l/m 9,7 km/h W-SW 239 0 min 0,000 mm 0,0 UV-I 0 W/m 1,1 C -1,0 C 15,3 km/h 100,00 %
26.02.2020 05:38 2,0 C 94 % 992,2 hPa 0,0 l/m 14,8 km/h SW 232 0 min 0,000 mm 0,0 UV-I 0 W/m 1,1 C -4,4 C 23,0 km/h 95,65 %
26.02.2020 05:37 2,0 C 94 % 992,2 hPa 0,0 l/m 14,1 km/h W-SW 240 0 min 0,000 mm 0,0 UV-I 0 W/m 1,1 C -4,0 C 24,9 km/h 95,83 %
26.02.2020 05:36 2,1 C 94 % 992,2 hPa 0,0 l/m 10,3 km/h S-SW 198 0 min 0,000 mm 0,0 UV-I 0 W/m 1,2 C -1,4 C 15,3 km/h 100,00 %
26.02.2020 05:35 2,1 C 94 % 992,2 hPa 0,0 l/m 11,1 km/h SW 219 0 min 0,000 mm 0,0 UV-I 0 W/m 1,2 C -2,0 C 15,3 km/h 92,31 %
26.02.2020 05:34 2,1 C 94 % 992,2 hPa 0,0 l/m 10,2 km/h SW 215 0 min 0,000 mm 0,0 UV-I 0 W/m 1,2 C -1,3 C 19,1 km/h 100,00 %
26.02.2020 05:33 2,1 C 94 % 992,1 hPa 0,0 l/m 11,0 km/h S-SW 211 0 min 0,000 mm 0,0 UV-I 0 W/m 1,2 C -1,9 C 15,3 km/h 96,67 %
26.02.2020 05:32 2,1 C 94 % 992,1 hPa 0,0 l/m 12,9 km/h S-SW 211 0 min 0,000 mm 0,0 UV-I 0 W/m 1,2 C -3,2 C 17,2 km/h 96,15 %
26.02.2020 05:31 2,1 C 94 % 992,2 hPa 0,0 l/m 13,0 km/h W-SW 246 0 min 0,000 mm 0,0 UV-I 0 W/m 1,2 C -3,2 C 26,8 km/h 100,00 %
26.02.2020 05:30 2,1 C 94 % 992,1 hPa 0,0 l/m 13,8 km/h SW 219 0 min 0,000 mm 0,0 UV-I 0 W/m 1,2 C -3,7 C 17,2 km/h 96,55 %
26.02.2020 05:29 2,1 C 94 % 992,1 hPa 0,0 l/m 11,1 km/h S-SW 209 0 min 0,000 mm 0,0 UV-I 0 W/m 1,2 C -2,0 C 15,3 km/h 100,00 %
26.02.2020 05:28 2,1 C 94 % 992,1 hPa 0,0 l/m 9,9 km/h SW 234 0 min 0,000 mm 0,0 UV-I 0 W/m 1,2 C -1,1 C 19,1 km/h 95,65 %
26.02.2020 05:27 2,1 C 94 % 992,1 hPa 0,0 l/m 12,7 km/h SW 223 0 min 0,000 mm 0,0 UV-I 0 W/m 1,2 C -3,0 C 17,2 km/h 100,00 %
26.02.2020 05:26 2,1 C 94 % 992,1 hPa 0,0 l/m 10,4 km/h SW 232 0 min 0,000 mm 0,0 UV-I 0 W/m 1,2 C -1,4 C 17,2 km/h 95,65 %
26.02.2020 05:25 2,1 C 94 % 992,1 hPa 0,0 l/m 9,8 km/h S 184 0 min 0,000 mm 0,0 UV-I 0 W/m 1,2 C -1,0 C 17,2 km/h 100,00 %
26.02.2020 05:24 2,2 C 93 % 992,1 hPa 0,0 l/m 10,5 km/h SW 223 0 min 0,000 mm 0,0 UV-I 0 W/m 1,2 C -1,4 C 21,0 km/h 92,86 %
26.02.2020 05:23 2,2 C 93 % 992,0 hPa 0,0 l/m 12,0 km/h W-SW 240 0 min 0,000 mm 0,0 UV-I 0 W/m 1,2 C -2,5 C 17,2 km/h 100,00 %
26.02.2020 05:22 2,2 C 94 % 992,0 hPa 0,0 l/m 10,1 km/h S 186 0 min 0,000 mm 0,0 UV-I 0 W/m 1,3 C -1,1 C 17,2 km/h 95,83 %
26.02.2020 05:21 2,2 C 94 % 992,0 hPa 0,0 l/m 11,3 km/h SW 217 0 min 0,000 mm 0,0 UV-I 0 W/m 1,3 C -2,0 C 17,2 km/h 96,30 %
26.02.2020 05:20 2,2 C 94 % 991,9 hPa 0,2 l/m 13,6 km/h S-SW 213 0 min 0,000 mm 0,0 UV-I 0 W/m 1,3 C -3,5 C 19,1 km/h 100,00 %
26.02.2020 05:19 2,3 C 94 % 991,9 hPa 0,0 l/m 11,4 km/h SW 223 0 min 0,000 mm 0,0 UV-I 0 W/m 1,4 C -1,9 C 17,2 km/h 93,33 %
26.02.2020 05:18 2,3 C 94 % 992,0 hPa 0,0 l/m 9,5 km/h SW 223 0 min 0,000 mm 0,0 UV-I 0 W/m 1,4 C -0,5 C 19,1 km/h 100,00 %
26.02.2020 05:17 2,3 C 94 % 991,9 hPa 0,0 l/m 7,7 km/h S-SW 208 0 min 0,000 mm 0,0 UV-I 0 W/m 1,4 C 1,0 C 19,1 km/h 92,31 %
26.02.2020 05:16 2,3 C 94 % 991,9 hPa 0,0 l/m 10,2 km/h S-SW 206 0 min 0,000 mm 0,0 UV-I 0 W/m 1,4 C -1,1 C 21,0 km/h 100,00 %
26.02.2020 05:15 2,3 C 94 % 991,9 hPa 0,0 l/m 11,2 km/h SW 232 0 min 0,000 mm 0,0 UV-I 0 W/m 1,4 C -1,8 C 17,2 km/h 95,65 %
26.02.2020 05:14 2,3 C 94 % 991,9 hPa 0,0 l/m 8,7 km/h S-SW 196 0 min 0,000 mm 0,0 UV-I 0 W/m 1,4 C 0,1 C 17,2 km/h 95,83 %
26.02.2020 05:13 2,3 C 93 % 991,9 hPa 0,0 l/m 16,8 km/h W-SW 244 0 min 0,000 mm 0,0 UV-I 0 W/m 1,3 C -5,2 C 28,7 km/h 100,00 %
26.02.2020 05:12 2,3 C 94 % 991,8 hPa 0,0 l/m 10,9 km/h S-SW 207 0 min 0,000 mm 0,0 UV-I 0 W/m 1,4 C -1,6 C 21,0 km/h 100,00 %
26.02.2020 05:11 2,4 C 93 % 991,8 hPa 0,0 l/m 7,8 km/h SW 227 0 min 0,000 mm 0,0 UV-I 0 W/m 1,4 C 1,1 C 15,3 km/h 96,88 %
26.02.2020 05:10 2,4 C 93 % 991,8 hPa 0,0 l/m 7,3 km/h SW 224 0 min 0,000 mm 0,0 UV-I 0 W/m 1,4 C 1,5 C 17,2 km/h 96,30 %
26.02.2020 05:09 2,4 C 93 % 991,8 hPa 0,0 l/m 10,8 km/h S-SW 213 0 min 0,000 mm 0,0 UV-I 0 W/m 1,4 C -1,4 C 17,2 km/h 90,91 %
26.02.2020 05:08 2,4 C 93 % 991,8 hPa 0,0 l/m 8,8 km/h S 178 0 min 0,000 mm 0,0 UV-I 0 W/m 1,4 C 0,2 C 17,2 km/h 95,83 %
26.02.2020 05:07 2,4 C 93 % 991,8 hPa 0,0 l/m 10,3 km/h S-SW 207 0 min 0,000 mm 0,0 UV-I 0 W/m 1,4 C -1,0 C 19,1 km/h 96,15 %
26.02.2020 05:06 2,4 C 93 % 991,8 hPa 0,0 l/m 12,9 km/h S-SW 195 0 min 0,000 mm 0,0 UV-I 0 W/m 1,4 C -2,8 C 23,0 km/h 96,30 %
26.02.2020 05:05 2,4 C 93 % 991,8 hPa 0,0 l/m 10,8 km/h SW 235 0 min 0,000 mm 0,0 UV-I 0 W/m 1,4 C -1,4 C 15,3 km/h 96,15 %
26.02.2020 05:04 2,4 C 93 % 991,7 hPa 0,0 l/m 9,7 km/h SW 216 0 min 0,000 mm 0,0 UV-I 0 W/m 1,4 C -0,6 C 13,4 km/h 100,00 %
26.02.2020 05:03 2,4 C 93 % 991,7 hPa 0,0 l/m 7,4 km/h S-SW 204 0 min 0,000 mm 0,0 UV-I 0 W/m 1,4 C 1,4 C 13,4 km/h 96,30 %
26.02.2020 05:02 2,4 C 93 % 991,7 hPa 0,0 l/m 10,5 km/h SW 221 0 min 0,000 mm 0,0 UV-I 0 W/m 1,4 C -1,2 C 13,4 km/h 100,00 %
26.02.2020 05:01 2,4 C 93 % 991,7 hPa 0,0 l/m 10,2 km/h S-SW 210 0 min 0,000 mm 0,0 UV-I 0 W/m 1,4 C -1,0 C 19,1 km/h 96,15 %
26.02.2020 05:00 2,5 C 93 % 991,7 hPa 0,0 l/m 10,4 km/h W 259 0 min 0,000 mm 0,0 UV-I 0 W/m 1,5 C -1,0 C 19,1 km/h 100,00 %
26.02.2020 04:59 2,5 C 93 % 991,7 hPa 0,0 l/m 10,3 km/h W-SW 242 0 min 0,000 mm 0,0 UV-I 0 W/m 1,5 C -0,9 C 15,3 km/h 96,30 %
26.02.2020 04:58 2,6 C 93 % 991,7 hPa 0,0 l/m 15,5 km/h W 260 0 min 0,000 mm 0,0 UV-I 0 W/m 1,6 C -4,1 C 24,9 km/h 100,00 %
26.02.2020 04:57 2,6 C 93 % 991,7 hPa 0,0 l/m 14,5 km/h S-SW 211 0 min 0,000 mm 0,0 UV-I 0 W/m 1,6 C -3,5 C 23,0 km/h 93,33 %
26.02.2020 04:56 2,6 C 93 % 991,6 hPa 0,0 l/m 10,0 km/h SW 214 0 min 0,000 mm 0,0 UV-I 0 W/m 1,6 C -0,6 C 17,2 km/h 100,00 %
26.02.2020 04:55 2,6 C 93 % 991,6 hPa 0,0 l/m 16,8 km/h SW 221 0 min 0,000 mm 0,0 UV-I 0 W/m 1,6 C -4,8 C 38,3 km/h 95,83 %
26.02.2020 04:54 2,7 C 93 % 991,6 hPa 0,0 l/m 12,6 km/h SW 220 0 min 0,000 mm 0,0 UV-I 0 W/m 1,7 C -2,3 C 21,0 km/h 100,00 %
26.02.2020 04:53 2,7 C 93 % 991,6 hPa 0,0 l/m 11,7 km/h SW 221 0 min 0,000 mm 0,0 UV-I 0 W/m 1,7 C -1,7 C 19,1 km/h 96,30 %
26.02.2020 04:52 2,7 C 93 % 991,6 hPa 0,0 l/m 9,0 km/h SW 221 0 min 0,000 mm 0,0 UV-I 0 W/m 1,7 C 0,3 C 15,3 km/h 91,30 %
26.02.2020 04:51 2,7 C 93 % 991,6 hPa 0,0 l/m 11,5 km/h SW 217 0 min 0,000 mm 0,0 UV-I 0 W/m 1,7 C -1,6 C 15,3 km/h 100,00 %
26.02.2020 04:50 2,7 C 93 % 991,6 hPa 0,0 l/m 12,0 km/h S-SW 205 0 min 0,000 mm 0,0 UV-I 0 W/m 1,7 C -1,9 C 19,1 km/h 95,65 %
26.02.2020 04:49 2,7 C 93 % 991,5 hPa 0,0 l/m 7,1 km/h S 191 0 min 0,000 mm 0,0 UV-I 0 W/m 1,7 C 2,0 C 13,4 km/h 100,00 %
26.02.2020 04:48 2,7 C 93 % 991,5 hPa 0,0 l/m 5,7 km/h S-SW 196 0 min 0,000 mm 0,0 UV-I 0 W/m 1,7 C 2,7 C 19,1 km/h 92,31 %
26.02.2020 04:47 2,7 C 93 % 991,5 hPa 0,0 l/m 12,5 km/h W-SW 254 0 min 0,000 mm 0,0 UV-I 0 W/m 1,7 C -2,2 C 19,1 km/h 100,00 %
26.02.2020 04:46 2,7 C 93 % 991,5 hPa 0,0 l/m 12,8 km/h SW 228 0 min 0,000 mm 0,0 UV-I 0 W/m 1,7 C -2,4 C 19,1 km/h 95,65 %
26.02.2020 04:45 2,8 C 93 % 991,5 hPa 0,0 l/m 13,2 km/h W-SW 256 0 min 0,000 mm 0,0 UV-I 0 W/m 1,8 C -2,5 C 21,0 km/h 96,30 %
26.02.2020 04:44 2,8 C 93 % 991,5 hPa 0,0 l/m 12,9 km/h SW 214 0 min 0,000 mm 0,0 UV-I 0 W/m 1,8 C -2,4 C 28,7 km/h 100,00 %
26.02.2020 04:43 2,8 C 93 % 991,5 hPa 0,0 l/m 10,8 km/h W-SW 241 0 min 0,000 mm 0,0 UV-I 0 W/m 1,8 C -0,9 C 19,1 km/h 88,89 %
26.02.2020 04:42 2,8 C 93 % 991,5 hPa 0,0 l/m 8,7 km/h S-SW 213 0 min 0,000 mm 0,0 UV-I 0 W/m 1,8 C 0,7 C 19,1 km/h 100,00 %
26.02.2020 04:41 2,8 C 93 % 991,5 hPa 0,0 l/m 13,3 km/h W-SW 238 0 min 0,000 mm 0,0 UV-I 0 W/m 1,8 C -2,6 C 24,9 km/h 94,44 %
26.02.2020 04:40 2,8 C 93 % 991,4 hPa 0,0 l/m 11,0 km/h SW 217 0 min 0,000 mm 0,0 UV-I 0 W/m 1,8 C -1,1 C 26,8 km/h 96,15 %
26.02.2020 04:39 2,8 C 93 % 991,5 hPa 0,0 l/m 8,8 km/h SW 220 0 min 0,000 mm 0,0 UV-I 0 W/m 1,8 C 0,6 C 13,4 km/h 100,00 %
26.02.2020 04:38 2,8 C 93 % 991,5 hPa 0,0 l/m 16,0 km/h W-SW 239 0 min 0,000 mm 0,0 UV-I 0 W/m 1,8 C -4,1 C 23,0 km/h 100,00 %
26.02.2020 04:37 2,9 C 93 % 991,5 hPa 0,0 l/m 11,2 km/h W-SW 249 0 min 0,000 mm 0,0 UV-I 0 W/m 1,9 C -1,1 C 15,3 km/h 97,14 %
26.02.2020 04:36 2,9 C 93 % 991,4 hPa 0,0 l/m 17,3 km/h SW 223 0 min 0,000 mm 0,0 UV-I 0 W/m 1,9 C -4,7 C 24,9 km/h 100,00 %
26.02.2020 04:35 2,9 C 93 % 991,4 hPa 0,0 l/m 14,6 km/h W-SW 242 0 min 0,000 mm 0,0 UV-I 0 W/m 1,9 C -3,2 C 23,0 km/h 95,65 %
26.02.2020 04:34 2,9 C 93 % 991,3 hPa 0,0 l/m 10,9 km/h S-SO 149 0 min 0,000 mm 0,0 UV-I 0 W/m 1,9 C -0,9 C 15,3 km/h 96,67 %
26.02.2020 04:33 2,9 C 93 % 991,4 hPa 0,2 l/m 9,2 km/h SW 218 0 min 0,000 mm 0,0 UV-I 0 W/m 1,9 C 0,4 C 13,4 km/h 100,00 %
26.02.2020 04:32 3,0 C 93 % 991,4 hPa 0,0 l/m 9,2 km/h S 191 0 min 0,000 mm 0,0 UV-I 0 W/m 2,0 C 0,5 C 13,4 km/h 96,30 %
26.02.2020 04:31 3,0 C 93 % 991,4 hPa 0,0 l/m 17,0 km/h S-SW 203 0 min 0,000 mm 0,0 UV-I 0 W/m 2,0 C -4,4 C 30,6 km/h 96,15 %
26.02.2020 04:30 3,1 C 93 % 991,4 hPa 0,0 l/m 13,8 km/h S-SW 199 0 min 0,000 mm 0,0 UV-I 0 W/m 2,1 C -2,5 C 21,0 km/h 100,00 %
26.02.2020 04:29 3,1 C 93 % 991,3 hPa 0,0 l/m 7,0 km/h SW 217 0 min 0,000 mm 0,0 UV-I 0 W/m 2,1 C 2,5 C 13,4 km/h 96,55 %
26.02.2020 04:28 3,1 C 93 % 991,3 hPa 0,0 l/m 11,4 km/h S-SW 200 0 min 0,000 mm 0,0 UV-I 0 W/m 2,1 C -1,0 C 19,1 km/h 100,00 %
26.02.2020 04:27 3,1 C 93 % 991,3 hPa 0,0 l/m 11,9 km/h SW 219 0 min 0,000 mm 0,0 UV-I 0 W/m 2,1 C -1,4 C 19,1 km/h 95,65 %
26.02.2020 04:26 3,1 C 93 % 991,4 hPa 0,0 l/m 11,3 km/h W-SW 244 0 min 0,000 mm 0,0 UV-I 0 W/m 2,1 C -1,0 C 21,0 km/h 100,00 %
26.02.2020 04:25 3,1 C 93 % 991,4 hPa 0,0 l/m 15,4 km/h S-SW 212 0 min 0,000 mm 0,0 UV-I 0 W/m 2,1 C -3,4 C 28,7 km/h 95,65 %
26.02.2020 04:24 3,1 C 93 % 991,3 hPa 0,0 l/m 12,9 km/h S-SW 196 0 min 0,000 mm 0,0 UV-I 0 W/m 2,1 C -2,0 C 17,2 km/h 100,00 %
26.02.2020 04:23 3,1 C 93 % 991,3 hPa 0,0 l/m 9,3 km/h S-SW 192 0 min 0,000 mm 0,0 UV-I 0 W/m 2,1 C 0,5 C 15,3 km/h 96,15 %
26.02.2020 04:22 3,1 C 93 % 991,3 hPa 0,2 l/m 9,2 km/h S-SW 209 0 min 0,000 mm 0,0 UV-I 0 W/m 2,1 C 0,6 C 17,2 km/h 96,30 %
26.02.2020 04:21 3,1 C 92 % 991,3 hPa 0,0 l/m 8,4 km/h S 190 0 min 0,000 mm 0,0 UV-I 0 W/m 1,9 C 1,3 C 11,5 km/h 100,00 %
26.02.2020 04:20 3,1 C 92 % 991,3 hPa 0,0 l/m 9,8 km/h S-SW 209 0 min 0,000 mm 0,0 UV-I 0 W/m 1,9 C 0,1 C 15,3 km/h 100,00 %
26.02.2020 04:19 3,1 C 92 % 991,3 hPa 0,0 l/m 9,6 km/h S-SW 198 0 min 0,000 mm 0,0 UV-I 0 W/m 1,9 C 0,3 C 19,1 km/h 91,67 %
26.02.2020 04:18 3,1 C 92 % 991,3 hPa 0,0 l/m 10,7 km/h SW 226 0 min 0,000 mm 0,0 UV-I 0 W/m 1,9 C -0,5 C 15,3 km/h 96,15 %
26.02.2020 04:17 3,1 C 92 % 991,3 hPa 0,0 l/m 12,0 km/h SW 231 0 min 0,000 mm 0,0 UV-I 0 W/m 1,9 C -1,4 C 21,0 km/h 100,00 %
26.02.2020 04:16 3,1 C 92 % 991,2 hPa 0,0 l/m 13,1 km/h S-SW 209 0 min 0,000 mm 0,0 UV-I 0 W/m 1,9 C -2,1 C 23,0 km/h 95,65 %
26.02.2020 04:15 3,1 C 92 % 991,2 hPa 0,0 l/m 14,8 km/h S-SO 168 0 min 0,000 mm 0,0 UV-I 0 W/m 1,9 C -3,1 C 24,9 km/h 100,00 %
26.02.2020 04:14 3,1 C 92 % 991,2 hPa 0,0 l/m 14,8 km/h S 185 0 min 0,000 mm 0,0 UV-I 0 W/m 1,9 C -3,1 C 23,0 km/h 96,15 %
26.02.2020 04:13 3,1 C 92 % 991,3 hPa 0,0 l/m 9,6 km/h W-SW 248 0 min 0,000 mm 0,0 UV-I 0 W/m 1,9 C 0,3 C 19,1 km/h 100,00 %
26.02.2020 04:12 3,1 C 92 % 991,2 hPa 0,0 l/m 10,2 km/h SW 236 0 min 0,000 mm 0,0 UV-I 0 W/m 1,9 C -0,2 C 13,4 km/h 96,15 %
26.02.2020 04:11 3,1 C 92 % 991,2 hPa 0,0 l/m 9,1 km/h SW 232 0 min 0,000 mm 0,0 UV-I 0 W/m 1,9 C 0,7 C 13,4 km/h 96,67 %
26.02.2020 04:10 3,1 C 92 % 991,2 hPa 0,0 l/m 10,0 km/h S-SW 200 0 min 0,000 mm 0,0 UV-I 0 W/m 1,9 C -0,0 C 17,2 km/h 100,00 %
26.02.2020 04:09 3,1 C 92 % 991,3 hPa 0,0 l/m 11,3 km/h S-SW 205 0 min 0,000 mm 0,0 UV-I 0 W/m 1,9 C -1,0 C 17,2 km/h 96,30 %
26.02.2020 04:08 3,1 C 92 % 991,2 hPa 0,0 l/m 9,4 km/h S-SW 207 0 min 0,000 mm 0,0 UV-I 0 W/m 1,9 C 0,4 C 17,2 km/h 100,00 %
26.02.2020 04:07 3,2 C 92 % 991,2 hPa 0,0 l/m 14,4 km/h SW 214 0 min 0,000 mm 0,0 UV-I 0 W/m 2,0 C -2,8 C 23,0 km/h 95,83 %
26.02.2020 04:06 3,2 C 92 % 991,2 hPa 0,2 l/m 7,7 km/h W-SW 250 0 min 0,000 mm 0,0 UV-I 0 W/m 2,0 C 2,0 C 11,5 km/h 100,00 %
26.02.2020 04:05 3,2 C 92 % 991,2 hPa 0,0 l/m 8,6 km/h SW 228 0 min 0,000 mm 0,0 UV-I 0 W/m 2,0 C 1,2 C 13,4 km/h 95,83 %
26.02.2020 04:04 3,2 C 91 % 991,2 hPa 0,0 l/m 5,8 km/h S-SW 212 0 min 0,000 mm 0,0 UV-I 0 W/m 1,9 C 3,2 C 9,6 km/h 100,00 %
26.02.2020 04:03 3,2 C 91 % 991,2 hPa 0,0 l/m 8,3 km/h SW 227 0 min 0,000 mm 0,0 UV-I 0 W/m 1,9 C 1,5 C 15,3 km/h 96,30 %
26.02.2020 04:02 3,2 C 91 % 991,2 hPa 0,0 l/m 6,5 km/h SW 228 0 min 0,000 mm 0,0 UV-I 0 W/m 1,9 C 3,1 C 9,6 km/h 96,15 %
26.02.2020 04:01 3,2 C 91 % 991,2 hPa 0,0 l/m 13,1 km/h SW 219 0 min 0,000 mm 0,0 UV-I 0 W/m 1,9 C -2,0 C 19,1 km/h 100,00 %
26.02.2020 04:00 3,2 C 91 % 991,2 hPa 0,0 l/m 10,8 km/h SW 216 0 min 0,000 mm 0,0 UV-I 0 W/m 1,9 C -0,5 C 17,2 km/h 93,33 %
26.02.2020 03:59 3,2 C 91 % 991,2 hPa 0,0 l/m 11,7 km/h W-SW 238 0 min 0,000 mm 0,0 UV-I 0 W/m 1,9 C -1,1 C 19,1 km/h 100,00 %
26.02.2020 03:58 3,2 C 91 % 991,2 hPa 0,0 l/m 8,7 km/h SW 217 0 min 0,000 mm 0,0 UV-I 0 W/m 1,9 C 1,1 C 13,4 km/h 100,00 %
26.02.2020 03:57 3,2 C 91 % 991,2 hPa 0,0 l/m 5,0 km/h S-SW 198 0 min 0,000 mm 0,0 UV-I 0 W/m 1,9 C 3,2 C 11,5 km/h 100,00 %
26.02.2020 03:56 3,2 C 91 % 991,2 hPa 0,2 l/m 9,7 km/h SW 214 0 min 0,000 mm 0,0 UV-I 0 W/m 1,9 C 0,3 C 15,3 km/h 95,83 %
26.02.2020 03:55 3,3 C 91 % 991,3 hPa 0,0 l/m 12,0 km/h S 186 0 min 0,000 mm 0,0 UV-I 0 W/m 2,0 C -1,2 C 23,0 km/h 95,65 %
26.02.2020 03:54 3,3 C 90 % 991,3 hPa 0,0 l/m 9,8 km/h SW 221 0 min 0,000 mm 0,0 UV-I 0 W/m 1,8 C 0,3 C 13,4 km/h 100,00 %
26.02.2020 03:53 3,3 C 91 % 991,3 hPa 0,0 l/m 10,7 km/h S 182 0 min 0,000 mm 0,0 UV-I 0 W/m 2,0 C -0,3 C 17,2 km/h 96,15 %
26.02.2020 03:52 3,4 C 91 % 991,3 hPa 0,0 l/m 16,2 km/h S-SW 213 0 min 0,000 mm 0,0 UV-I 0 W/m 2,1 C -3,5 C 26,8 km/h 100,00 %
26.02.2020 03:51 3,5 C 90 % 991,3 hPa 0,2 l/m 18,3 km/h S-SW 212 0 min 0,000 mm 0,0 UV-I 0 W/m 2,0 C -4,4 C 32,5 km/h 100,00 %
26.02.2020 03:50 3,5 C 90 % 991,3 hPa 0,0 l/m 11,9 km/h S-SW 207 0 min 0,000 mm 0,0 UV-I 0 W/m 2,0 C -0,9 C 15,3 km/h 100,00 %
26.02.2020 03:49 3,6 C 90 % 991,3 hPa 0,0 l/m 8,6 km/h S-SW 206 0 min 0,000 mm 0,0 UV-I 0 W/m 2,1 C 1,6 C 13,4 km/h 95,65 %
26.02.2020 03:48 3,6 C 90 % 991,3 hPa 0,0 l/m 7,3 km/h SW 221 0 min 0,000 mm 0,0 UV-I 0 W/m 2,1 C 2,8 C 15,3 km/h 100,00 %
26.02.2020 03:47 3,6 C 90 % 991,3 hPa 0,0 l/m 10,3 km/h SW 215 0 min 0,000 mm 0,0 UV-I 0 W/m 2,1 C 0,3 C 15,3 km/h 92,86 %
26.02.2020 03:46 3,7 C 90 % 991,3 hPa 0,2 l/m 11,2 km/h S 175 0 min 0,000 mm 0,0 UV-I 0 W/m 2,2 C -0,2 C 19,1 km/h 100,00 %
26.02.2020 03:45 3,7 C 90 % 991,3 hPa 0,0 l/m 14,3 km/h S-SW 205 0 min 0,000 mm 0,0 UV-I 0 W/m 2,2 C -2,1 C 28,7 km/h 100,00 %
26.02.2020 03:44 3,8 C 90 % 991,3 hPa 0,0 l/m 10,5 km/h S-SW 208 0 min 0,000 mm 0,0 UV-I 0 W/m 2,3 C 0,4 C 13,4 km/h 100,00 %
26.02.2020 03:43 3,8 C 90 % 991,3 hPa 0,0 l/m 9,6 km/h SW 217 0 min 0,000 mm 0,0 UV-I 0 W/m 2,3 C 1,0 C 19,1 km/h 96,43 %
26.02.2020 03:42 3,8 C 90 % 991,3 hPa 0,2 l/m 10,8 km/h SW 229 0 min 0,000 mm 0,0 UV-I 0 W/m 2,3 C 0,2 C 15,3 km/h 100,00 %
26.02.2020 03:41 3,9 C 90 % 991,3 hPa 0,0 l/m 13,2 km/h SW 216 0 min 0,000 mm 0,0 UV-I 0 W/m 2,4 C -1,2 C 21,0 km/h 100,00 %
26.02.2020 03:40 3,9 C 89 % 991,3 hPa 0,0 l/m 13,9 km/h W-SW 244 0 min 0,000 mm 0,0 UV-I 0 W/m 2,3 C -1,7 C 21,0 km/h 100,00 %
26.02.2020 03:39 3,9 C 89 % 991,3 hPa 0,0 l/m 11,0 km/h W-NW 285 0 min 0,000 mm 0,0 UV-I 0 W/m 2,3 C 0,1 C 23,0 km/h 100,00 %
26.02.2020 03:38 4,0 C 89 % 991,3 hPa 0,2 l/m 9,3 km/h SW 220 0 min 0,000 mm 0,0 UV-I 0 W/m 2,4 C 1,5 C 17,2 km/h 95,65 %
26.02.2020 03:37 4,0 C 89 % 991,3 hPa 0,0 l/m 13,3 km/h SW 224 0 min 0,000 mm 0,0 UV-I 0 W/m 2,4 C -1,2 C 23,0 km/h 100,00 %
26.02.2020 03:36 4,1 C 89 % 991,3 hPa 0,0 l/m 10,7 km/h S 190 0 min 0,000 mm 0,0 UV-I 0 W/m 2,5 C 0,6 C 17,2 km/h 100,00 %
26.02.2020 03:35 4,1 C 89 % 991,3 hPa 0,0 l/m 13,3 km/h SW 217 0 min 0,000 mm 0,0 UV-I 0 W/m 2,5 C -1,1 C 21,0 km/h 100,00 %
26.02.2020 03:34 4,1 C 89 % 991,3 hPa 0,0 l/m 10,7 km/h W-SW 247 0 min 0,000 mm 0,0 UV-I 0 W/m 2,5 C 0,6 C 19,1 km/h 100,00 %
26.02.2020 03:33 4,1 C 89 % 991,3 hPa 0,0 l/m 10,9 km/h SW 224 0 min 0,000 mm 0,0 UV-I 0 W/m 2,5 C 0,4 C 21,0 km/h 100,00 %
26.02.2020 03:32 4,2 C 89 % 991,3 hPa 0,0 l/m 11,7 km/h W-SW 246 0 min 0,000 mm 0,0 UV-I 0 W/m 2,6 C 0,0 C 17,2 km/h 100,00 %
26.02.2020 03:31 4,2 C 88 % 991,3 hPa 0,0 l/m 14,4 km/h SW 226 0 min 0,000 mm 0,0 UV-I 0 W/m 2,4 C -1,6 C 24,9 km/h 100,00 %
26.02.2020 03:30 4,2 C 88 % 991,3 hPa 0,0 l/m 15,9 km/h SW 229 0 min 0,000 mm 0,0 UV-I 0 W/m 2,4 C -2,4 C 21,0 km/h 100,00 %
26.02.2020 03:29 4,3 C 88 % 991,3 hPa 0,2 l/m 9,9 km/h SW 217 0 min 0,000 mm 0,0 UV-I 0 W/m 2,5 C 1,4 C 21,0 km/h 96,30 %
26.02.2020 03:28 4,3 C 88 % 991,3 hPa 0,0 l/m 16,9 km/h W-SW 237 0 min 0,000 mm 0,0 UV-I 0 W/m 2,5 C -2,7 C 28,7 km/h 100,00 %
26.02.2020 03:27 4,3 C 88 % 991,3 hPa 0,0 l/m 16,6 km/h SW 219 0 min 0,000 mm 0,0 UV-I 0 W/m 2,5 C -2,6 C 23,0 km/h 100,00 %
26.02.2020 03:26 4,4 C 88 % 991,3 hPa 0,0 l/m 17,2 km/h W 264 0 min 0,000 mm 0,0 UV-I 0 W/m 2,6 C -2,7 C 32,5 km/h 100,00 %
26.02.2020 03:25 4,4 C 88 % 991,4 hPa 0,0 l/m 22,2 km/h S 189 0 min 0,000 mm 0,0 UV-I 0 W/m 2,6 C -4,8 C 36,4 km/h 100,00 %
26.02.2020 03:24 4,4 C 88 % 991,3 hPa 0,0 l/m 22,4 km/h SW 214 0 min 0,000 mm 0,0 UV-I 0 W/m 2,6 C -4,9 C 38,3 km/h 100,00 %
26.02.2020 03:23 4,4 C 88 % 991,4 hPa 0,0 l/m 13,1 km/h SW 234 0 min 0,000 mm 0,0 UV-I 0 W/m 2,6 C -0,6 C 23,0 km/h 100,00 %
26.02.2020 03:22 4,5 C 88 % 991,4 hPa 0,0 l/m 12,2 km/h S-SW 212 0 min 0,000 mm 0,0 UV-I 0 W/m 2,7 C 0,1 C 24,9 km/h 100,00 %
26.02.2020 03:21 4,5 C 88 % 991,4 hPa 0,0 l/m 21,5 km/h S-SW 205 0 min 0,000 mm 0,0 UV-I 0 W/m 2,7 C -4,4 C 40,2 km/h 100,00 %
26.02.2020 03:20 4,5 C 88 % 991,3 hPa 0,2 l/m 20,3 km/h S-SW 202 0 min 0,000 mm 0,0 UV-I 0 W/m 2,7 C -3,9 C 32,5 km/h 95,83 %
26.02.2020 03:19 4,5 C 88 % 991,3 hPa 0,0 l/m 15,2 km/h S-SO 153 0 min 0,000 mm 0,0 UV-I 0 W/m 2,7 C -1,6 C 28,7 km/h 96,15 %
26.02.2020 03:18 4,5 C 88 % 991,3 hPa 0,0 l/m 10,4 km/h S 191 0 min 0,000 mm 0,0 UV-I 0 W/m 2,7 C 1,2 C 15,3 km/h 100,00 %
26.02.2020 03:17 4,5 C 88 % 991,3 hPa 0,0 l/m 8,2 km/h S-SW 201 0 min 0,000 mm 0,0 UV-I 0 W/m 2,7 C 2,9 C 13,4 km/h 100,00 %
26.02.2020 03:16 4,5 C 88 % 991,3 hPa 0,0 l/m 8,4 km/h S-SW 192 0 min 0,000 mm 0,0 UV-I 0 W/m 2,7 C 2,7 C 11,5 km/h 100,00 %
26.02.2020 03:15 4,5 C 88 % 991,3 hPa 0,0 l/m 12,9 km/h SW 219 0 min 0,000 mm 0,0 UV-I 0 W/m 2,7 C -0,4 C 23,0 km/h 100,00 %
26.02.2020 03:14 4,5 C 88 % 991,3 hPa 0,0 l/m 15,0 km/h S-SW 203 0 min 0,000 mm 0,0 UV-I 0 W/m 2,7 C -1,5 C 24,9 km/h 100,00 %
26.02.2020 03:13 4,5 C 88 % 991,3 hPa 0,0 l/m 12,8 km/h S 175 0 min 0,000 mm 0,0 UV-I 0 W/m 2,7 C -0,3 C 19,1 km/h 100,00 %
26.02.2020 03:12 4,5 C 88 % 991,3 hPa 0,0 l/m 16,0 km/h S-SW 202 0 min 0,000 mm 0,0 UV-I 0 W/m 2,7 C -2,0 C 24,9 km/h 93,33 %
26.02.2020 03:11 4,5 C 88 % 991,3 hPa 0,0 l/m 10,8 km/h S-SO 156 0 min 0,000 mm 0,0 UV-I 0 W/m 2,7 C 1,0 C 19,1 km/h 95,65 %
26.02.2020 03:10 4,5 C 88 % 991,3 hPa 0,0 l/m 11,4 km/h S-SW 198 0 min 0,000 mm 0,0 UV-I 0 W/m 2,7 C 0,6 C 23,0 km/h 96,30 %
26.02.2020 03:09 4,5 C 88 % 991,3 hPa 0,0 l/m 13,9 km/h S-SW 205 0 min 0,000 mm 0,0 UV-I 0 W/m 2,7 C -0,9 C 21,0 km/h 100,00 %
26.02.2020 03:08 4,5 C 88 % 991,3 hPa 0,0 l/m 16,2 km/h S-SW 207 0 min 0,000 mm 0,0 UV-I 0 W/m 2,7 C -2,1 C 26,8 km/h 100,00 %
26.02.2020 03:07 4,5 C 88 % 991,4 hPa 0,0 l/m 12,8 km/h S-SW 196 0 min 0,000 mm 0,0 UV-I 0 W/m 2,7 C -0,3 C 23,0 km/h 100,00 %
26.02.2020 03:06 4,5 C 88 % 991,3 hPa 0,0 l/m 12,6 km/h S 191 0 min 0,000 mm 0,0 UV-I 0 W/m 2,7 C -0,2 C 21,0 km/h 100,00 %
26.02.2020 03:05 4,5 C 88 % 991,4 hPa 0,0 l/m 16,1 km/h S-SO 159 0 min 0,000 mm 0,0 UV-I 0 W/m 2,7 C -2,1 C 28,7 km/h 100,00 %
26.02.2020 03:04 4,5 C 88 % 991,4 hPa 0,0 l/m 8,4 km/h S-SW 202 0 min 0,000 mm 0,0 UV-I 0 W/m 2,7 C 2,7 C 15,3 km/h 100,00 %
26.02.2020 03:03 4,5 C 88 % 991,4 hPa 0,0 l/m 13,1 km/h S 178 0 min 0,000 mm 0,0 UV-I 0 W/m 2,7 C -0,5 C 23,0 km/h 100,00 %
26.02.2020 03:02 4,5 C 88 % 991,5 hPa 0,0 l/m 14,9 km/h S-SO 165 0 min 0,000 mm 0,0 UV-I 0 W/m 2,7 C -1,5 C 38,3 km/h 96,15 %
26.02.2020 03:01 4,5 C 88 % 991,4 hPa 0,0 l/m 13,1 km/h S-SO 160 0 min 0,025 mm 0,0 UV-I 0 W/m 2,7 C -0,5 C 26,8 km/h 100,00 %
26.02.2020 03:00 4,5 C 88 % 991,4 hPa 0,0 l/m 16,6 km/h S-SW 209 0 min 0,000 mm 0,0 UV-I 0 W/m 2,7 C -2,3 C 30,6 km/h 100,00 %
26.02.2020 02:59 4,5 C 88 % 991,5 hPa 0,0 l/m 14,7 km/h S 169 0 min 0,000 mm 0,0 UV-I 0 W/m 2,7 C -1,4 C 23,0 km/h 100,00 %
26.02.2020 02:58 4,5 C 88 % 991,5 hPa 0,0 l/m 15,5 km/h S 175 0 min 0,000 mm 0,0 UV-I 0 W/m 2,7 C -1,8 C 32,5 km/h 100,00 %
26.02.2020 02:57 4,5 C 88 % 991,6 hPa 0,0 l/m 18,2 km/h S-SW 205 0 min 0,000 mm 0,0 UV-I 0 W/m 2,7 C -3,1 C 28,7 km/h 100,00 %
26.02.2020 02:56 4,6 C 88 % 991,5 hPa 0,0 l/m 10,3 km/h S-SW 194 0 min 0,000 mm 0,0 UV-I 0 W/m 2,8 C 1,4 C 17,2 km/h 100,00 %
26.02.2020 02:55 4,6 C 88 % 991,6 hPa 0,0 l/m 11,7 km/h S 180 0 min 0,000 mm 0,0 UV-I 0 W/m 2,8 C 0,5 C 17,2 km/h 100,00 %
26.02.2020 02:54 4,6 C 88 % 991,6 hPa 0,0 l/m 12,7 km/h S-SW 192 0 min 0,000 mm 0,0 UV-I 0 W/m 2,8 C -0,1 C 19,1 km/h 100,00 %
26.02.2020 02:53 4,6 C 88 % 991,6 hPa 0,0 l/m 15,1 km/h S 190 0 min 0,000 mm 0,0 UV-I 0 W/m 2,8 C -1,5 C 24,9 km/h 96,30 %
26.02.2020 02:52 4,6 C 88 % 991,6 hPa 0,0 l/m 13,3 km/h S 189 0 min 0,000 mm 0,0 UV-I 0 W/m 2,8 C -0,5 C 19,1 km/h 100,00 %
26.02.2020 02:51 4,6 C 88 % 991,6 hPa 0,0 l/m 12,8 km/h S 191 0 min 0,000 mm 0,0 UV-I 0 W/m 2,8 C -0,2 C 21,0 km/h 100,00 %
26.02.2020 02:50 4,6 C 88 % 991,6 hPa 0,0 l/m 19,4 km/h S-SO 164 0 min 0,000 mm 0,0 UV-I 0 W/m 2,8 C -3,4 C 30,6 km/h 95,65 %
26.02.2020 02:49 4,6 C 88 % 991,6 hPa 0,0 l/m 15,1 km/h S-SW 194 0 min 0,000 mm 0,0 UV-I 0 W/m 2,8 C -1,5 C 23,0 km/h 100,00 %
26.02.2020 02:48 4,6 C 88 % 991,6 hPa 0,0 l/m 14,3 km/h S 174 0 min 0,000 mm 0,0 UV-I 0 W/m 2,8 C -1,0 C 28,7 km/h 100,00 %
26.02.2020 02:47 4,6 C 88 % 991,6 hPa 0,0 l/m 14,8 km/h SW 215 0 min 0,000 mm 0,0 UV-I 0 W/m 2,8 C -1,3 C 23,0 km/h 100,00 %
26.02.2020 02:46 4,6 C 88 % 991,7 hPa 0,0 l/m 14,0 km/h S 178 0 min 0,000 mm 0,0 UV-I 0 W/m 2,8 C -0,9 C 21,0 km/h 100,00 %
26.02.2020 02:45 4,6 C 88 % 991,7 hPa 0,0 l/m 5,7 km/h S 182 0 min 0,000 mm 0,0 UV-I 0 W/m 2,8 C 4,6 C 7,7 km/h 95,83 %
26.02.2020 02:44 4,6 C 88 % 991,8 hPa 0,0 l/m 9,4 km/h S 180 0 min 0,000 mm 0,0 UV-I 0 W/m 2,8 C 2,1 C 19,1 km/h 100,00 %
26.02.2020 02:43 4,6 C 88 % 991,7 hPa 0,0 l/m 15,6 km/h S 169 0 min 0,000 mm 0,0 UV-I 0 W/m 2,8 C -1,7 C 23,0 km/h 93,33 %
26.02.2020 02:42 4,6 C 88 % 991,8 hPa 0,0 l/m 8,0 km/h S-SW 208 0 min 0,000 mm 0,0 UV-I 0 W/m 2,8 C 3,2 C 17,2 km/h 96,30 %
26.02.2020 02:41 4,6 C 88 % 991,8 hPa 0,0 l/m 13,7 km/h S 175 0 min 0,000 mm 0,0 UV-I 0 W/m 2,8 C -0,7 C 28,7 km/h 100,00 %
26.02.2020 02:40 4,6 C 88 % 991,8 hPa 0,0 l/m 13,3 km/h S-SW 198 0 min 0,000 mm 0,0 UV-I 0 W/m 2,8 C -0,5 C 19,1 km/h 100,00 %
26.02.2020 02:39 4,6 C 88 % 991,8 hPa 0,0 l/m 19,1 km/h S-SW 211 0 min 0,000 mm 0,0 UV-I 0 W/m 2,8 C -3,3 C 28,7 km/h 100,00 %
26.02.2020 02:38 4,5 C 89 % 991,8 hPa 0,0 l/m 14,3 km/h S-SW 192 0 min 0,000 mm 0,0 UV-I 0 W/m 2,8 C -1,2 C 23,0 km/h 100,00 %
26.02.2020 02:37 4,5 C 89 % 991,8 hPa 0,0 l/m 20,6 km/h S-SW 207 0 min 0,000 mm 0,0 UV-I 0 W/m 2,8 C -4,1 C 26,8 km/h 100,00 %
26.02.2020 02:36 4,5 C 89 % 991,8 hPa 0,0 l/m 10,8 km/h SW 215 0 min 0,000 mm 0,0 UV-I 0 W/m 2,8 C 1,0 C 21,0 km/h 95,83 %
26.02.2020 02:35 4,5 C 89 % 991,8 hPa 0,0 l/m 9,9 km/h S-SO 166 0 min 0,000 mm 0,0 UV-I 0 W/m 2,8 C 1,6 C 21,0 km/h 100,00 %
26.02.2020 02:34 4,5 C 89 % 991,8 hPa 0,0 l/m 12,7 km/h S-SW 211 0 min 0,000 mm 0,0 UV-I 0 W/m 2,8 C -0,2 C 26,8 km/h 100,00 %
26.02.2020 02:33 4,5 C 89 % 991,9 hPa 0,0 l/m 15,5 km/h SW 215 0 min 0,000 mm 0,0 UV-I 0 W/m 2,8 C -1,8 C 23,0 km/h 100,00 %
26.02.2020 02:32 4,5 C 89 % 991,9 hPa 0,0 l/m 14,9 km/h S-SW 201 0 min 0,000 mm 0,0 UV-I 0 W/m 2,8 C -1,5 C 23,0 km/h 95,83 %
26.02.2020 02:31 4,5 C 89 % 991,8 hPa 0,0 l/m 14,0 km/h S 182 0 min 0,000 mm 0,0 UV-I 0 W/m 2,8 C -1,0 C 19,1 km/h 100,00 %
26.02.2020 02:30 4,4 C 89 % 991,9 hPa 0,0 l/m 16,7 km/h S 182 0 min 0,000 mm 0,0 UV-I 0 W/m 2,7 C -2,5 C 26,8 km/h 100,00 %
26.02.2020 02:29 4,4 C 90 % 991,8 hPa 0,0 l/m 13,9 km/h S-SW 202 0 min 0,000 mm 0,0 UV-I 0 W/m 2,9 C -1,1 C 24,9 km/h 100,00 %
26.02.2020 02:28 4,4 C 89 % 991,9 hPa 0,0 l/m 11,5 km/h S 181 0 min 0,000 mm 0,0 UV-I 0 W/m 2,7 C 0,4 C 19,1 km/h 100,00 %
26.02.2020 02:27 4,4 C 89 % 991,9 hPa 0,0 l/m 8,7 km/h S 175 0 min 0,000 mm 0,0 UV-I 0 W/m 2,7 C 2,4 C 15,3 km/h 100,00 %
26.02.2020 02:26 4,4 C 89 % 991,9 hPa 0,0 l/m 9,3 km/h S-SO 159 0 min 0,000 mm 0,0 UV-I 0 W/m 2,7 C 1,9 C 13,4 km/h 95,83 %
26.02.2020 02:25 4,4 C 90 % 991,9 hPa 0,0 l/m 17,1 km/h S 188 0 min 0,000 mm 0,0 UV-I 0 W/m 2,9 C -2,7 C 30,6 km/h 100,00 %
26.02.2020 02:24 4,4 C 90 % 991,9 hPa 0,0 l/m 13,5 km/h SW 215 0 min 0,000 mm 0,0 UV-I 0 W/m 2,9 C -0,8 C 26,8 km/h 100,00 %
26.02.2020 02:23 4,4 C 90 % 992,0 hPa 0,0 l/m 17,0 km/h S-SW 197 0 min 0,000 mm 0,0 UV-I 0 W/m 2,9 C -2,6 C 24,9 km/h 100,00 %
26.02.2020 02:22 4,4 C 90 % 991,9 hPa 0,0 l/m 16,4 km/h S-SW 202 0 min 0,000 mm 0,0 UV-I 0 W/m 2,9 C -2,4 C 23,0 km/h 100,00 %
26.02.2020 02:21 4,4 C 90 % 991,9 hPa 0,0 l/m 13,5 km/h S-SW 202 0 min 0,000 mm 0,0 UV-I 0 W/m 2,9 C -0,8 C 17,2 km/h 100,00 %
26.02.2020 02:20 4,4 C 90 % 992,0 hPa 0,0 l/m 12,8 km/h SW 215 0 min 0,000 mm 0,0 UV-I 0 W/m 2,9 C -0,4 C 23,0 km/h 100,00 %
26.02.2020 02:19 4,4 C 90 % 991,9 hPa 0,0 l/m 14,3 km/h S-SW 196 0 min 0,000 mm 0,0 UV-I 0 W/m 2,9 C -1,3 C 21,0 km/h 100,00 %
26.02.2020 02:18 4,4 C 90 % 992,0 hPa 0,0 l/m 12,0 km/h S-SW 208 0 min 0,000 mm 0,0 UV-I 0 W/m 2,9 C 0,1 C 23,0 km/h 100,00 %
26.02.2020 02:17 4,4 C 90 % 991,9 hPa 0,0 l/m 14,7 km/h SW 236 0 min 0,000 mm 0,0 UV-I 0 W/m 2,9 C -1,5 C 21,0 km/h 100,00 %
26.02.2020 02:16 4,4 C 90 % 991,9 hPa 0,0 l/m 12,5 km/h S 173 0 min 0,000 mm 0,0 UV-I 0 W/m 2,9 C -0,2 C 21,0 km/h 100,00 %
26.02.2020 02:15 4,4 C 90 % 992,0 hPa 0,0 l/m 11,6 km/h S-SO 157 0 min 0,000 mm 0,0 UV-I 0 W/m 2,9 C 0,3 C 19,1 km/h 100,00 %
26.02.2020 02:14 4,4 C 90 % 991,9 hPa 0,0 l/m 13,8 km/h S-SW 205 0 min 0,000 mm 0,0 UV-I 0 W/m 2,9 C -1,0 C 21,0 km/h 100,00 %
26.02.2020 02:13 4,4 C 90 % 992,0 hPa 0,0 l/m 13,8 km/h S-SO 166 0 min 0,000 mm 0,0 UV-I 0 W/m 2,9 C -1,0 C 21,0 km/h 100,00 %
26.02.2020 02:12 4,4 C 90 % 992,0 hPa 0,0 l/m 17,1 km/h S-SW 202 0 min 0,000 mm 0,0 UV-I 0 W/m 2,9 C -2,7 C 32,5 km/h 88,46 %
26.02.2020 02:11 4,4 C 90 % 992,0 hPa 0,0 l/m 12,5 km/h S 190 0 min 0,000 mm 0,0 UV-I 0 W/m 2,9 C -0,2 C 19,1 km/h 100,00 %
26.02.2020 02:10 4,4 C 90 % 992,0 hPa 0,0 l/m 9,7 km/h S-SW 198 0 min 0,000 mm 0,0 UV-I 0 W/m 2,9 C 1,6 C 15,3 km/h 95,65 %
26.02.2020 02:09 4,4 C 90 % 992,0 hPa 0,0 l/m 10,9 km/h S-SO 164 0 min 0,000 mm 0,0 UV-I 0 W/m 2,9 C 0,8 C 19,1 km/h 100,00 %
26.02.2020 02:08 4,4 C 90 % 992,0 hPa 0,0 l/m 7,7 km/h S-SO 160 0 min 0,000 mm 0,0 UV-I 0 W/m 2,9 C 3,2 C 11,5 km/h 100,00 %
26.02.2020 02:07 4,4 C 91 % 992,0 hPa 0,0 l/m 12,8 km/h S-SW 206 0 min 0,000 mm 0,0 UV-I 0 W/m 3,1 C -0,4 C 24,9 km/h 100,00 %
26.02.2020 02:06 4,4 C 91 % 992,0 hPa 0,0 l/m 11,6 km/h SW 236 0 min 0,000 mm 0,0 UV-I 0 W/m 3,1 C 0,3 C 24,9 km/h 100,00 %
26.02.2020 02:05 4,3 C 91 % 992,1 hPa 0,0 l/m 17,9 km/h S 182 0 min 0,000 mm 0,0 UV-I 0 W/m 3,0 C -3,2 C 30,6 km/h 100,00 %
26.02.2020 02:04 4,3 C 91 % 992,1 hPa 0,0 l/m 11,2 km/h S-SW 207 0 min 0,000 mm 0,0 UV-I 0 W/m 3,0 C 0,5 C 17,2 km/h 95,83 %
26.02.2020 02:03 4,3 C 91 % 992,0 hPa 0,0 l/m 12,7 km/h S 180 0 min 0,000 mm 0,0 UV-I 0 W/m 3,0 C -0,5 C 24,9 km/h 100,00 %
26.02.2020 02:02 4,3 C 91 % 992,1 hPa 0,0 l/m 14,9 km/h S-SO 163 0 min 0,000 mm 0,0 UV-I 0 W/m 3,0 C -1,7 C 23,0 km/h 100,00 %
26.02.2020 02:01 4,3 C 91 % 992,1 hPa 0,0 l/m 9,7 km/h S-SW 209 0 min 0,000 mm 0,0 UV-I 0 W/m 3,0 C 1,5 C 17,2 km/h 100,00 %
26.02.2020 02:00 4,3 C 91 % 992,1 hPa 0,0 l/m 11,4 km/h S-SW 198 0 min 0,000 mm 0,0 UV-I 0 W/m 3,0 C 0,3 C 21,0 km/h 100,00 %
26.02.2020 01:59 4,3 C 91 % 992,1 hPa 0,0 l/m 11,4 km/h S-SW 196 0 min 0,000 mm 0,0 UV-I 0 W/m 3,0 C 0,3 C 17,2 km/h 100,00 %
26.02.2020 01:58 4,3 C 91 % 992,1 hPa 0,0 l/m 4,9 km/h S-SW 203 0 min 0,000 mm 0,0 UV-I 0 W/m 3,0 C 4,3 C 7,7 km/h 100,00 %
26.02.2020 01:57 4,3 C 91 % 992,1 hPa 0,0 l/m 10,8 km/h S-SW 200 0 min 0,000 mm 0,0 UV-I 0 W/m 3,0 C 0,7 C 21,0 km/h 100,00 %
26.02.2020 01:56 4,3 C 91 % 992,1 hPa 0,0 l/m 6,8 km/h SW 218 0 min 0,000 mm 0,0 UV-I 0 W/m 3,0 C 3,9 C 11,5 km/h 100,00 %
26.02.2020 01:55 4,3 C 91 % 992,2 hPa 0,0 l/m 12,1 km/h S-SO 159 0 min 0,000 mm 0,0 UV-I 0 W/m 3,0 C -0,1 C 21,0 km/h 100,00 %
26.02.2020 01:54 4,3 C 91 % 992,1 hPa 0,0 l/m 12,0 km/h S-SW 202 0 min 0,000 mm 0,0 UV-I 0 W/m 3,0 C -0,0 C 19,1 km/h 100,00 %
26.02.2020 01:53 4,3 C 91 % 992,1 hPa 0,0 l/m 10,1 km/h SW 234 0 min 0,000 mm 0,0 UV-I 0 W/m 3,0 C 1,2 C 21,0 km/h 95,65 %
26.02.2020 01:52 4,3 C 91 % 992,1 hPa 0,0 l/m 9,5 km/h S-SW 207 0 min 0,000 mm 0,0 UV-I 0 W/m 3,0 C 1,7 C 17,2 km/h 100,00 %
26.02.2020 01:51 4,2 C 91 % 992,1 hPa 0,0 l/m 6,7 km/h S-SW 194 0 min 0,000 mm 0,0 UV-I 0 W/m 2,9 C 3,9 C 13,4 km/h 95,65 %
26.02.2020 01:50 4,2 C 91 % 992,2 hPa 0,0 l/m 5,3 km/h S-SW 194 0 min 0,000 mm 0,0 UV-I 0 W/m 2,9 C 4,2 C 7,7 km/h 100,00 %
26.02.2020 01:49 4,2 C 91 % 992,2 hPa 0,0 l/m 8,5 km/h S-SW 202 0 min 0,000 mm 0,0 UV-I 0 W/m 2,9 C 2,3 C 13,4 km/h 100,00 %
26.02.2020 01:48 4,2 C 91 % 992,2 hPa 0,0 l/m 11,9 km/h S-SW 198 0 min 0,000 mm 0,0 UV-I 0 W/m 2,9 C -0,1 C 19,1 km/h 100,00 %
26.02.2020 01:47 4,2 C 91 % 992,2 hPa 0,0 l/m 7,7 km/h S-SW 211 0 min 0,000 mm 0,0 UV-I 0 W/m 2,9 C 3,0 C 13,4 km/h 91,30 %
26.02.2020 01:46 4,2 C 91 % 992,2 hPa 0,0 l/m 7,7 km/h S-SW 201 0 min 0,000 mm 0,0 UV-I 0 W/m 2,9 C 3,0 C 15,3 km/h 95,83 %
26.02.2020 01:45 4,2 C 92 % 992,2 hPa 0,0 l/m 9,5 km/h S-SW 206 0 min 0,000 mm 0,0 UV-I 0 W/m 3,0 C 1,6 C 15,3 km/h 100,00 %
26.02.2020 01:44 4,2 C 92 % 992,3 hPa 0,0 l/m 13,0 km/h S 188 0 min 0,000 mm 0,0 UV-I 0 W/m 3,0 C -0,8 C 19,1 km/h 100,00 %
26.02.2020 01:43 4,2 C 92 % 992,2 hPa 0,0 l/m 6,7 km/h S-SW 205 0 min 0,000 mm 0,0 UV-I 0 W/m 3,0 C 3,9 C 9,6 km/h 100,00 %
26.02.2020 01:42 4,2 C 92 % 992,2 hPa 0,0 l/m 9,3 km/h SW 219 0 min 0,000 mm 0,0 UV-I 0 W/m 3,0 C 1,7 C 19,1 km/h 100,00 %
26.02.2020 01:41 4,2 C 92 % 992,2 hPa 0,0 l/m 6,8 km/h S-SW 205 0 min 0,000 mm 0,0 UV-I 0 W/m 3,0 C 3,8 C 11,5 km/h 100,00 %
26.02.2020 01:40 4,2 C 92 % 992,2 hPa 0,0 l/m 6,9 km/h SW 222 0 min 0,000 mm 0,0 UV-I 0 W/m 3,0 C 3,8 C 13,4 km/h 95,83 %
26.02.2020 01:39 4,2 C 92 % 992,3 hPa 0,0 l/m 13,7 km/h S 182 0 min 0,000 mm 0,0 UV-I 0 W/m 3,0 C -1,2 C 24,9 km/h 100,00 %
26.02.2020 01:38 4,2 C 92 % 992,2 hPa 0,0 l/m 8,9 km/h SW 234 0 min 0,000 mm 0,0 UV-I 0 W/m 3,0 C 2,0 C 15,3 km/h 100,00 %
26.02.2020 01:37 4,2 C 92 % 992,2 hPa 0,0 l/m 9,1 km/h SW 227 0 min 0,000 mm 0,0 UV-I 0 W/m 3,0 C 1,9 C 13,4 km/h 96,30 %
26.02.2020 01:36 4,2 C 92 % 992,3 hPa 0,0 l/m 9,8 km/h SW 219 0 min 0,000 mm 0,0 UV-I 0 W/m 3,0 C 1,3 C 17,2 km/h 100,00 %
26.02.2020 01:35 4,2 C 92 % 992,3 hPa 0,0 l/m 13,7 km/h S 190 0 min 0,000 mm 0,0 UV-I 0 W/m 3,0 C -1,2 C 23,0 km/h 100,00 %
26.02.2020 01:34 4,1 C 92 % 992,3 hPa 0,0 l/m 10,4 km/h S-SW 195 0 min 0,000 mm 0,0 UV-I 0 W/m 2,9 C 0,8 C 13,4 km/h 95,65 %
26.02.2020 01:33 4,2 C 92 % 992,3 hPa 0,0 l/m 10,4 km/h SW 221 0 min 0,000 mm 0,0 UV-I 0 W/m 3,0 C 0,9 C 17,2 km/h 100,00 %
26.02.2020 01:32 4,2 C 92 % 992,3 hPa 0,0 l/m 6,7 km/h SW 215 0 min 0,000 mm 0,0 UV-I 0 W/m 3,0 C 3,9 C 13,4 km/h 100,00 %
26.02.2020 01:31 4,2 C 92 % 992,3 hPa 0,0 l/m 9,0 km/h S-SW 202 0 min 0,000 mm 0,0 UV-I 0 W/m 3,0 C 1,9 C 19,1 km/h 100,00 %
26.02.2020 01:30 4,2 C 92 % 992,3 hPa 0,0 l/m 9,6 km/h SW 216 0 min 0,000 mm 0,0 UV-I 0 W/m 3,0 C 1,5 C 17,2 km/h 100,00 %
26.02.2020 01:29 4,2 C 92 % 992,3 hPa 0,0 l/m 5,7 km/h S-SW 199 0 min 0,000 mm 0,0 UV-I 0 W/m 3,0 C 4,2 C 9,6 km/h 95,83 %
26.02.2020 01:28 4,2 C 92 % 992,3 hPa 0,0 l/m 8,5 km/h SW 219 0 min 0,000 mm 0,0 UV-I 0 W/m 3,0 C 2,3 C 13,4 km/h 100,00 %
26.02.2020 01:27 4,2 C 92 % 992,3 hPa 0,0 l/m 12,3 km/h SW 219 0 min 0,000 mm 0,0 UV-I 0 W/m 3,0 C -0,4 C 21,0 km/h 100,00 %
26.02.2020 01:26 4,2 C 92 % 992,3 hPa 0,0 l/m 11,5 km/h S-SW 200 0 min 0,000 mm 0,0 UV-I 0 W/m 3,0 C 0,2 C 17,2 km/h 100,00 %
26.02.2020 01:25 4,2 C 92 % 992,2 hPa 0,0 l/m 10,1 km/h S-SW 207 0 min 0,000 mm 0,0 UV-I 0 W/m 3,0 C 1,1 C 19,1 km/h 100,00 %
26.02.2020 01:24 4,2 C 92 % 992,3 hPa 0,0 l/m 18,8 km/h SW 232 0 min 0,000 mm 0,0 UV-I 0 W/m 3,0 C -3,7 C 28,7 km/h 100,00 %
26.02.2020 01:23 4,2 C 92 % 992,3 hPa 0,0 l/m 13,4 km/h S-SW 202 0 min 0,000 mm 0,0 UV-I 0 W/m 3,0 C -1,0 C 21,0 km/h 100,00 %
26.02.2020 01:22 4,2 C 92 % 992,3 hPa 0,0 l/m 7,7 km/h SW 215 0 min 0,000 mm 0,0 UV-I 0 W/m 3,0 C 3,0 C 9,6 km/h 100,00 %
26.02.2020 01:21 4,2 C 92 % 992,3 hPa 0,0 l/m 13,1 km/h S-SW 212 0 min 0,000 mm 0,0 UV-I 0 W/m 3,0 C -0,8 C 21,0 km/h 95,65 %
26.02.2020 01:20 4,2 C 92 % 992,3 hPa 0,0 l/m 6,5 km/h S-SW 210 0 min 0,000 mm 0,0 UV-I 0 W/m 3,0 C 4,1 C 9,6 km/h 100,00 %
26.02.2020 01:19 4,2 C 92 % 992,4 hPa 0,0 l/m 12,9 km/h S 190 0 min 0,000 mm 0,0 UV-I 0 W/m 3,0 C -0,7 C 23,0 km/h 100,00 %
26.02.2020 01:18 4,2 C 92 % 992,3 hPa 0,0 l/m 14,3 km/h S 171 0 min 0,000 mm 0,0 UV-I 0 W/m 3,0 C -1,5 C 23,0 km/h 100,00 %
26.02.2020 01:17 4,2 C 93 % 992,4 hPa 0,0 l/m 13,2 km/h SW 227 0 min 0,000 mm 0,0 UV-I 0 W/m 3,2 C -0,9 C 23,0 km/h 100,00 %
26.02.2020 01:16 4,2 C 93 % 992,4 hPa 0,0 l/m 13,4 km/h S-SW 210 0 min 0,000 mm 0,0 UV-I 0 W/m 3,2 C -1,0 C 23,0 km/h 100,00 %
26.02.2020 01:15 4,2 C 93 % 992,3 hPa 0,0 l/m 13,1 km/h S-SW 203 0 min 0,000 mm 0,0 UV-I 0 W/m 3,2 C -0,8 C 19,1 km/h 100,00 %
26.02.2020 01:14 4,3 C 93 % 992,4 hPa 0,0 l/m 11,9 km/h SW 230 0 min 0,000 mm 0,0 UV-I 0 W/m 3,3 C 0,0 C 24,9 km/h 100,00 %
26.02.2020 01:13 4,3 C 93 % 992,4 hPa 0,0 l/m 15,0 km/h SW 223 0 min 0,000 mm 0,0 UV-I 0 W/m 3,3 C -1,8 C 30,6 km/h 100,00 %
26.02.2020 01:12 4,3 C 93 % 992,4 hPa 0,0 l/m 8,2 km/h SW 219 0 min 0,000 mm 0,0 UV-I 0 W/m 3,3 C 2,7 C 21,0 km/h 100,00 %
26.02.2020 01:11 4,3 C 93 % 992,5 hPa 0,0 l/m 10,6 km/h W-SW 240 0 min 0,000 mm 0,0 UV-I 0 W/m 3,3 C 0,9 C 19,1 km/h 100,00 %
26.02.2020 01:10 4,3 C 93 % 992,5 hPa 0,0 l/m 10,3 km/h SW 215 0 min 0,000 mm 0,0 UV-I 0 W/m 3,3 C 1,1 C 19,1 km/h 100,00 %
26.02.2020 01:09 4,3 C 93 % 992,5 hPa 0,0 l/m 11,1 km/h SW 228 0 min 0,000 mm 0,0 UV-I 0 W/m 3,3 C 0,5 C 17,2 km/h 100,00 %
26.02.2020 01:08 4,3 C 93 % 992,5 hPa 0,0 l/m 8,7 km/h S-SW 209 0 min 0,000 mm 0,0 UV-I 0 W/m 3,3 C 2,3 C 17,2 km/h 100,00 %
26.02.2020 01:07 4,3 C 93 % 992,5 hPa 0,0 l/m 11,1 km/h S-SW 195 0 min 0,000 mm 0,0 UV-I 0 W/m 3,3 C 0,5 C 17,2 km/h 100,00 %
26.02.2020 01:06 4,3 C 93 % 992,6 hPa 0,0 l/m 13,0 km/h W-SW 238 0 min 0,000 mm 0,0 UV-I 0 W/m 3,3 C -0,7 C 24,9 km/h 100,00 %
26.02.2020 01:05 4,2 C 93 % 992,6 hPa 0,0 l/m 7,7 km/h SW 228 0 min 0,000 mm 0,0 UV-I 0 W/m 3,2 C 3,0 C 11,5 km/h 100,00 %
26.02.2020 01:04 4,2 C 93 % 992,6 hPa 0,0 l/m 11,9 km/h S-SW 212 0 min 0,000 mm 0,0 UV-I 0 W/m 3,2 C -0,1 C 17,2 km/h 99,59 %
26.02.2020 01:03 4,2 C 93 % 992,6 hPa 0,0 l/m 10,5 km/h S-SW 199 0 min 0,000 mm 0,0 UV-I 0 W/m 3,2 C 0,8 C 24,9 km/h 100,00 %
26.02.2020 01:02 4,2 C 93 % 992,7 hPa 0,0 l/m 7,4 km/h S-SO 163 0 min 0,000 mm 0,0 UV-I 0 W/m 3,2 C 3,3 C 11,5 km/h 100,00 %
26.02.2020 01:01 4,2 C 93 % 992,6 hPa 0,0 l/m 6,7 km/h S-SW 210 0 min 0,000 mm 0,0 UV-I 0 W/m 3,2 C 3,9 C 11,5 km/h 100,00 %
26.02.2020 01:00 4,2 C 93 % 992,7 hPa 0,0 l/m 10,0 km/h S-SW 210 0 min 0,000 mm 0,0 UV-I 0 W/m 3,2 C 1,2 C 15,3 km/h 100,00 %
26.02.2020 00:59 4,2 C 93 % 992,7 hPa 0,0 l/m 3,2 km/h SW 216 0 min 0,000 mm 0,0 UV-I 0 W/m 3,2 C 4,2 C 9,6 km/h 100,00 %
26.02.2020 00:58 4,2 C 93 % 992,6 hPa 0,0 l/m 9,2 km/h SW 216 0 min 0,000 mm 0,0 UV-I 0 W/m 3,2 C 1,8 C 11,5 km/h 95,83 %
26.02.2020 00:57 4,2 C 93 % 992,7 hPa 0,0 l/m 5,1 km/h SW 214 0 min 0,000 mm 0,0 UV-I 0 W/m 3,2 C 4,2 C 9,6 km/h 100,00 %
26.02.2020 00:56 4,2 C 92 % 992,7 hPa 0,0 l/m 2,0 km/h S-SW 198 0 min 0,000 mm 0,0 UV-I 0 W/m 3,0 C 4,2 C 3,8 km/h 100,00 %
26.02.2020 00:55 4,2 C 92 % 992,7 hPa 0,0 l/m 4,6 km/h S-SW 198 0 min 0,000 mm 0,0 UV-I 0 W/m 3,0 C 4,2 C 7,7 km/h 100,00 %
26.02.2020 00:54 4,2 C 92 % 992,7 hPa 0,0 l/m 4,9 km/h W-SW 238 0 min 0,000 mm 0,0 UV-I 0 W/m 3,0 C 4,2 C 9,6 km/h 100,00 %
26.02.2020 00:53 4,2 C 92 % 992,8 hPa 0,0 l/m 5,0 km/h S-SW 207 0 min 0,000 mm 0,0 UV-I 0 W/m 3,0 C 4,2 C 9,6 km/h 100,00 %
26.02.2020 00:52 4,2 C 92 % 992,7 hPa 0,0 l/m 6,6 km/h S-SW 205 0 min 0,000 mm 0,0 UV-I 0 W/m 3,0 C 4,0 C 11,5 km/h 100,00 %
26.02.2020 00:51 4,2 C 92 % 992,8 hPa 0,0 l/m 7,3 km/h S 177 0 min 0,000 mm 0,0 UV-I 0 W/m 3,0 C 3,4 C 11,5 km/h 93,33 %
26.02.2020 00:50 4,2 C 92 % 992,8 hPa 0,0 l/m 4,3 km/h SW 236 0 min 0,000 mm 0,0 UV-I 0 W/m 3,0 C 4,2 C 9,6 km/h 100,00 %
26.02.2020 00:49 4,2 C 92 % 992,8 hPa 0,0 l/m 6,3 km/h S 182 0 min 0,000 mm 0,0 UV-I 0 W/m 3,0 C 4,2 C 11,5 km/h 96,00 %
26.02.2020 00:48 4,2 C 92 % 992,8 hPa 0,0 l/m 5,0 km/h S-SW 209 0 min 0,000 mm 0,0 UV-I 0 W/m 3,0 C 4,2 C 9,6 km/h 100,00 %
26.02.2020 00:47 4,2 C 92 % 992,8 hPa 0,0 l/m 5,4 km/h S-SW 211 0 min 0,000 mm 0,0 UV-I 0 W/m 3,0 C 4,2 C 9,6 km/h 100,00 %
26.02.2020 00:46 4,2 C 92 % 992,8 hPa 0,0 l/m 7,3 km/h S 182 0 min 0,000 mm 0,0 UV-I 0 W/m 3,0 C 3,4 C 13,4 km/h 100,00 %
26.02.2020 00:45 4,2 C 92 % 992,7 hPa 0,0 l/m 12,8 km/h S-SW 197 0 min 0,000 mm 0,0 UV-I 0 W/m 3,0 C -0,7 C 17,2 km/h 95,65 %
26.02.2020 00:44 4,2 C 92 % 992,8 hPa 0,0 l/m 8,8 km/h SW 219 0 min 0,000 mm 0,0 UV-I 0 W/m 3,0 C 2,1 C 19,1 km/h 100,00 %
26.02.2020 00:43 4,2 C 92 % 992,7 hPa 0,0 l/m 10,8 km/h SW 217 0 min 0,000 mm 0,0 UV-I 0 W/m 3,0 C 0,6 C 17,2 km/h 100,00 %
26.02.2020 00:42 4,2 C 92 % 992,7 hPa 0,0 l/m 10,6 km/h SW 230 0 min 0,000 mm 0,0 UV-I 0 W/m 3,0 C 0,8 C 19,1 km/h 100,00 %
26.02.2020 00:41 4,2 C 92 % 992,8 hPa 0,0 l/m 8,6 km/h S-SW 194 0 min 0,000 mm 0,0 UV-I 0 W/m 3,0 C 2,3 C 13,4 km/h 100,00 %
26.02.2020 00:40 4,2 C 92 % 992,8 hPa 0,0 l/m 13,7 km/h S-SW 204 0 min 0,000 mm 0,0 UV-I 0 W/m 3,0 C -1,2 C 19,1 km/h 100,00 %
26.02.2020 00:39 4,2 C 92 % 992,8 hPa 0,0 l/m 9,9 km/h S-SW 202 0 min 0,000 mm 0,0 UV-I 0 W/m 3,0 C 1,3 C 17,2 km/h 92,86 %
26.02.2020 00:38 4,2 C 92 % 992,8 hPa 0,0 l/m 8,8 km/h S-SW 206 0 min 0,000 mm 0,0 UV-I 0 W/m 3,0 C 2,1 C 15,3 km/h 100,00 %
26.02.2020 00:37 4,2 C 92 % 992,8 hPa 0,2 l/m 12,7 km/h SW 215 0 min 0,000 mm 0,0 UV-I 0 W/m 3,0 C -0,6 C 23,0 km/h 100,00 %
26.02.2020 00:36 4,3 C 92 % 992,8 hPa 0,0 l/m 18,4 km/h SW 224 0 min 0,000 mm 0,0 UV-I 0 W/m 3,1 C -3,4 C 26,8 km/h 100,00 %
26.02.2020 00:35 4,3 C 92 % 992,8 hPa 0,0 l/m 22,7 km/h SW 229 0 min 0,000 mm 0,0 UV-I 0 W/m 3,1 C -5,1 C 42,1 km/h 100,00 %
26.02.2020 00:34 4,3 C 92 % 992,9 hPa 0,2 l/m 16,1 km/h SW 235 0 min 0,000 mm 0,0 UV-I 0 W/m 3,1 C -2,3 C 28,7 km/h 100,00 %
26.02.2020 00:33 4,4 C 92 % 992,8 hPa 0,0 l/m 8,8 km/h S 171 0 min 0,000 mm 0,0 UV-I 0 W/m 3,2 C 2,3 C 17,2 km/h 100,00 %
26.02.2020 00:32 4,4 C 92 % 992,8 hPa 0,0 l/m 10,8 km/h S-SW 199 0 min 0,000 mm 0,0 UV-I 0 W/m 3,2 C 0,8 C 19,1 km/h 100,00 %
26.02.2020 00:31 4,4 C 93 % 992,8 hPa 0,0 l/m 10,1 km/h S-SW 196 0 min 0,000 mm 0,0 UV-I 0 W/m 3,4 C 1,3 C 21,0 km/h 100,00 %
26.02.2020 00:30 4,4 C 93 % 992,9 hPa 0,0 l/m 9,4 km/h S-SW 202 0 min 0,000 mm 0,0 UV-I 0 W/m 3,4 C 1,9 C 13,4 km/h 100,00 %
26.02.2020 00:29 4,4 C 93 % 992,9 hPa 0,0 l/m 10,9 km/h S-SW 211 0 min 0,000 mm 0,0 UV-I 0 W/m 3,4 C 0,8 C 19,1 km/h 100,00 %
26.02.2020 00:28 4,4 C 93 % 992,9 hPa 0,0 l/m 9,3 km/h S 180 0 min 0,000 mm 0,0 UV-I 0 W/m 3,4 C 1,9 C 15,3 km/h 100,00 %
26.02.2020 00:27 4,4 C 93 % 992,9 hPa 0,2 l/m 14,0 km/h S 171 0 min 0,000 mm 0,0 UV-I 0 W/m 3,4 C -1,1 C 24,9 km/h 100,00 %
26.02.2020 00:26 4,4 C 93 % 992,9 hPa 0,0 l/m 11,8 km/h S 170 0 min 0,000 mm 0,0 UV-I 0 W/m 3,4 C 0,2 C 26,8 km/h 100,00 %
26.02.2020 00:25 4,3 C 93 % 992,9 hPa 0,0 l/m 4,8 km/h S-SO 151 0 min 0,000 mm 0,0 UV-I 0 W/m 3,3 C 4,3 C 9,6 km/h 100,00 %
26.02.2020 00:24 4,3 C 93 % 992,9 hPa 0,0 l/m 4,6 km/h S 181 0 min 0,000 mm 0,0 UV-I 0 W/m 3,3 C 4,3 C 9,6 km/h 100,00 %
26.02.2020 00:23 4,3 C 93 % 992,9 hPa 0,0 l/m 8,3 km/h S-SO 156 0 min 0,000 mm 0,0 UV-I 0 W/m 3,3 C 2,6 C 13,4 km/h 100,00 %
26.02.2020 00:22 4,3 C 93 % 992,9 hPa 0,0 l/m 6,1 km/h S 180 0 min 0,000 mm 0,0 UV-I 0 W/m 3,3 C 4,3 C 11,5 km/h 100,00 %
26.02.2020 00:21 4,3 C 93 % 992,9 hPa 0,0 l/m 6,1 km/h S-SO 163 0 min 0,000 mm 0,0 UV-I 0 W/m 3,3 C 4,3 C 11,5 km/h 100,00 %
26.02.2020 00:20 4,3 C 93 % 992,8 hPa 0,0 l/m 9,9 km/h S 172 0 min 0,000 mm 0,0 UV-I 0 W/m 3,3 C 1,4 C 13,4 km/h 100,00 %
26.02.2020 00:19 4,3 C 93 % 992,8 hPa 0,0 l/m 8,7 km/h S 178 0 min 0,000 mm 0,0 UV-I 0 W/m 3,3 C 2,3 C 17,2 km/h 100,00 %
26.02.2020 00:18 4,3 C 93 % 992,8 hPa 0,0 l/m 7,8 km/h S-SO 165 0 min 0,000 mm 0,0 UV-I 0 W/m 3,3 C 3,0 C 11,5 km/h 100,00 %
26.02.2020 00:17 4,3 C 93 % 992,8 hPa 0,0 l/m 9,1 km/h S 180 0 min 0,000 mm 0,0 UV-I 0 W/m 3,3 C 2,0 C 11,5 km/h 100,00 %
26.02.2020 00:16 4,3 C 93 % 992,8 hPa 0,0 l/m 12,0 km/h S 182 0 min 0,000 mm 0,0 UV-I 0 W/m 3,3 C -0,0 C 23,0 km/h 100,00 %
26.02.2020 00:15 4,3 C 93 % 992,7 hPa 0,0 l/m 5,4 km/h S 174 0 min 0,000 mm 0,0 UV-I 0 W/m 3,3 C 4,3 C 9,6 km/h 100,00 %
26.02.2020 00:14 4,3 C 93 % 992,7 hPa 0,0 l/m 5,2 km/h S 175 0 min 0,000 mm 0,0 UV-I 0 W/m 3,3 C 4,3 C 9,6 km/h 100,00 %
26.02.2020 00:13 4,3 C 93 % 992,7 hPa 0,0 l/m 8,1 km/h S 174 0 min 0,000 mm 0,0 UV-I 0 W/m 3,3 C 2,8 C 15,3 km/h 100,00 %
26.02.2020 00:12 4,3 C 93 % 992,7 hPa 0,0 l/m 9,8 km/h S 171 0 min 0,000 mm 0,0 UV-I 0 W/m 3,3 C 1,4 C 13,4 km/h 100,00 %
26.02.2020 00:11 4,3 C 93 % 992,8 hPa 0,0 l/m 5,3 km/h S-SO 164 0 min 0,000 mm 0,0 UV-I 0 W/m 3,3 C 4,3 C 11,5 km/h 100,00 %
26.02.2020 00:10 4,3 C 93 % 992,7 hPa 0,0 l/m 5,4 km/h S 173 0 min 0,000 mm 0,0 UV-I 0 W/m 3,3 C 4,3 C 9,6 km/h 100,00 %
26.02.2020 00:09 4,3 C 93 % 992,8 hPa 0,0 l/m 5,9 km/h S 170 0 min 0,000 mm 0,0 UV-I 0 W/m 3,3 C 4,3 C 11,5 km/h 100,00 %
26.02.2020 00:08 4,3 C 93 % 992,8 hPa 0,0 l/m 3,8 km/h S 176 0 min 0,000 mm 0,0 UV-I 0 W/m 3,3 C 4,3 C 5,7 km/h 100,00 %
26.02.2020 00:07 4,3 C 93 % 992,7 hPa 0,0 l/m 7,7 km/h S 177 0 min 0,000 mm 0,0 UV-I 0 W/m 3,3 C 3,1 C 13,4 km/h 95,83 %
26.02.2020 00:06 4,3 C 93 % 992,8 hPa 0,0 l/m 8,0 km/h S 171 0 min 0,000 mm 0,0 UV-I 0 W/m 3,3 C 2,9 C 11,5 km/h 100,00 %
26.02.2020 00:05 4,3 C 93 % 992,8 hPa 0,0 l/m 4,2 km/h S 184 0 min 0,000 mm 0,0 UV-I 0 W/m 3,3 C 4,3 C 5,7 km/h 100,00 %
26.02.2020 00:04 4,3 C 93 % 992,8 hPa 0,0 l/m 3,1 km/h S 184 0 min 0,000 mm 0,0 UV-I 0 W/m 3,3 C 4,3 C 5,7 km/h 100,00 %
26.02.2020 00:03 4,3 C 93 % 992,8 hPa 0,0 l/m 2,1 km/h S 184 0 min 0,000 mm 0,0 UV-I 0 W/m 3,3 C 4,3 C 5,7 km/h 100,00 %
26.02.2020 00:02 4,3 C 93 % 992,8 hPa 0,0 l/m 1,9 km/h S 185 0 min 0,000 mm 0,0 UV-I 0 W/m 3,3 C 4,3 C 5,7 km/h 100,00 %
26.02.2020 00:01 4,3 C 93 % 992,8 hPa 0,0 l/m 2,7 km/h S 185 0 min 0,000 mm 0,0 UV-I 0 W/m 3,3 C 4,3 C 3,8 km/h 100,00 %
26.02.2020 00:00 4,3 C 93 % 992,8 hPa 0,0 l/m 6,3 km/h S 185 0 min 0,000 mm 0,0 UV-I 0 W/m 3,3 C 4,3 C 7,7 km/h 100,00 %
25.02.2020 23:59 4,3 C 93 % 992,9 hPa 0,0 l/m 4,5 km/h S 169 0 min 0,000 mm 0,0 UV-I 0 W/m 3,3 C 4,3 C 7,7 km/h 100,00 %
25.02.2020 23:58 4,3 C 93 % 992,9 hPa 0,0 l/m 3,9 km/h S 169 0 min 0,000 mm 0,0 UV-I 0 W/m 3,3 C 4,3 C 7,7 km/h 100,00 %
25.02.2020 23:57 4,3 C 93 % 993,0 hPa 0,0 l/m 6,5 km/h S 169 0 min 0,000 mm 0,0 UV-I 0 W/m 3,3 C 4,2 C 9,6 km/h 95,65 %
25.02.2020 23:56 4,3 C 93 % 993,0 hPa 0,0 l/m 7,3 km/h S 190 0 min 0,000 mm 0,0 UV-I 0 W/m 3,3 C 3,5 C 9,6 km/h 100,00 %
25.02.2020 23:55 4,3 C 93 % 993,0 hPa 0,0 l/m 4,6 km/h S-SO 168 0 min 0,000 mm 0,0 UV-I 0 W/m 3,3 C 4,3 C 7,7 km/h 100,00 %
25.02.2020 23:54 4,3 C 93 % 993,0 hPa 0,0 l/m 5,7 km/h S-SO 168 0 min 0,000 mm 0,0 UV-I 0 W/m 3,3 C 4,3 C 7,7 km/h 100,00 %
25.02.2020 23:53 4,3 C 93 % 993,0 hPa 0,0 l/m 5,3 km/h S 169 0 min 0,000 mm 0,0 UV-I 0 W/m 3,3 C 4,3 C 7,7 km/h 100,00 %
25.02.2020 23:52 4,3 C 93 % 993,1 hPa 0,0 l/m 6,3 km/h S-SO 162 0 min 0,000 mm 0,0 UV-I 0 W/m 3,3 C 4,3 C 9,6 km/h 100,00 %
25.02.2020 23:51 4,3 C 93 % 993,0 hPa 0,0 l/m 6,1 km/h S 178 0 min 0,000 mm 0,0 UV-I 0 W/m 3,3 C 4,3 C 11,5 km/h 92,86 %
25.02.2020 23:50 4,3 C 93 % 993,1 hPa 0,0 l/m 3,6 km/h S 175 0 min 0,000 mm 0,0 UV-I 0 W/m 3,3 C 4,3 C 9,6 km/h 100,00 %
25.02.2020 23:49 4,3 C 93 % 993,1 hPa 0,0 l/m 5,7 km/h S-SO 167 0 min 0,000 mm 0,0 UV-I 0 W/m 3,3 C 4,3 C 7,7 km/h 100,00 %
25.02.2020 23:48 4,3 C 93 % 993,1 hPa 0,0 l/m 10,1 km/h S-SO 167 0 min 0,000 mm 0,0 UV-I 0 W/m 3,3 C 1,2 C 15,3 km/h 95,83 %
25.02.2020 23:47 4,3 C 93 % 993,1 hPa 0,0 l/m 8,8 km/h S 169 0 min 0,000 mm 0,0 UV-I 0 W/m 3,3 C 2,2 C 11,5 km/h 100,00 %
25.02.2020 23:46 4,3 C 93 % 993,2 hPa 0,0 l/m 5,1 km/h S-SO 160 0 min 0,000 mm 0,0 UV-I 0 W/m 3,3 C 4,3 C 7,7 km/h 100,00 %
25.02.2020 23:45 4,3 C 93 % 993,2 hPa 0,0 l/m 6,5 km/h S-SO 160 0 min 0,000 mm 0,0 UV-I 0 W/m 3,3 C 4,2 C 9,6 km/h 93,33 %
25.02.2020 23:44 4,3 C 93 % 993,2 hPa 0,0 l/m 6,7 km/h S 173 0 min 0,000 mm 0,0 UV-I 0 W/m 3,3 C 4,0 C 11,5 km/h 100,00 %
25.02.2020 23:43 4,3 C 93 % 993,2 hPa 0,0 l/m 8,8 km/h S-SO 167 0 min 0,000 mm 0,0 UV-I 0 W/m 3,3 C 2,2 C 17,2 km/h 100,00 %
25.02.2020 23:42 4,3 C 93 % 993,2 hPa 0,0 l/m 7,7 km/h S-SO 155 0 min 0,000 mm 0,0 UV-I 0 W/m 3,3 C 3,1 C 11,5 km/h 100,00 %
25.02.2020 23:41 4,3 C 93 % 993,2 hPa 0,0 l/m 11,0 km/h SO 132 0 min 0,000 mm 0,0 UV-I 0 W/m 3,3 C 0,6 C 17,2 km/h 100,00 %
25.02.2020 23:40 4,3 C 92 % 993,1 hPa 0,0 l/m 6,8 km/h S-SO 152 0 min 0,000 mm 0,0 UV-I 0 W/m 3,1 C 3,9 C 13,4 km/h 100,00 %
25.02.2020 23:39 4,3 C 92 % 993,1 hPa 0,0 l/m 8,3 km/h S-SO 166 0 min 0,000 mm 0,0 UV-I 0 W/m 3,1 C 2,6 C 11,5 km/h 100,00 %
25.02.2020 23:38 4,2 C 92 % 993,1 hPa 0,0 l/m 9,0 km/h SO 130 0 min 0,000 mm 0,0 UV-I 0 W/m 3,0 C 1,9 C 15,3 km/h 100,00 %
25.02.2020 23:37 4,2 C 92 % 993,1 hPa 0,0 l/m 7,4 km/h S 173 0 min 0,000 mm 0,0 UV-I 0 W/m 3,0 C 3,3 C 9,6 km/h 100,00 %
25.02.2020 23:36 4,2 C 92 % 993,1 hPa 0,0 l/m 5,9 km/h S-SO 162 0 min 0,000 mm 0,0 UV-I 0 W/m 3,0 C 4,2 C 7,7 km/h 100,00 %
25.02.2020 23:35 4,2 C 92 % 993,2 hPa 0,0 l/m 7,0 km/h S 187 0 min 0,000 mm 0,0 UV-I 0 W/m 3,0 C 3,7 C 11,5 km/h 100,00 %
25.02.2020 23:34 4,2 C 92 % 993,2 hPa 0,0 l/m 2,3 km/h S-SO 155 0 min 0,000 mm 0,0 UV-I 0 W/m 3,0 C 4,2 C 5,7 km/h 100,00 %
25.02.2020 23:33 4,2 C 92 % 993,2 hPa 0,0 l/m 3,7 km/h S-SO 155 0 min 0,000 mm 0,0 UV-I 0 W/m 3,0 C 4,2 C 5,7 km/h 97,90 %
25.02.2020 23:32 4,2 C 92 % 993,3 hPa 0,0 l/m 6,8 km/h SO 142 0 min 0,000 mm 0,0 UV-I 0 W/m 3,0 C 3,8 C 11,5 km/h 96,15 %
25.02.2020 23:31 4,2 C 92 % 993,2 hPa 0,0 l/m 4,9 km/h S 175 0 min 0,000 mm 0,0 UV-I 0 W/m 3,0 C 4,2 C 9,6 km/h 100,00 %
25.02.2020 23:30 4,2 C 92 % 993,3 hPa 0,0 l/m 4,3 km/h S 182 0 min 0,000 mm 0,0 UV-I 0 W/m 3,0 C 4,2 C 7,7 km/h 100,00 %
25.02.2020 23:29 4,2 C 92 % 993,3 hPa 0,0 l/m 3,7 km/h S 182 0 min 0,000 mm 0,0 UV-I 0 W/m 3,0 C 4,2 C 7,7 km/h 100,00 %
25.02.2020 23:28 4,2 C 92 % 993,3 hPa 0,0 l/m 3,5 km/h S 181 0 min 0,000 mm 0,0 UV-I 0 W/m 3,0 C 4,2 C 7,7 km/h 100,00 %
25.02.2020 23:27 4,2 C 92 % 993,4 hPa 0,0 l/m 2,1 km/h S 181 0 min 0,000 mm 0,0 UV-I 0 W/m 3,0 C 4,2 C 5,7 km/h 100,00 %
25.02.2020 23:26 4,2 C 92 % 993,4 hPa 0,0 l/m 3,1 km/h S 182 0 min 0,000 mm 0,0 UV-I 0 W/m 3,0 C 4,2 C 5,7 km/h 95,65 %
25.02.2020 23:25 4,2 C 92 % 993,4 hPa 0,0 l/m 2,5 km/h S 182 0 min 0,000 mm 0,0 UV-I 0 W/m 3,0 C 4,2 C 5,7 km/h 100,00 %
25.02.2020 23:24 4,2 C 92 % 993,4 hPa 0,0 l/m 3,0 km/h S 182 0 min 0,000 mm 0,0 UV-I 0 W/m 3,0 C 4,2 C 5,7 km/h 100,00 %
25.02.2020 23:23 4,2 C 92 % 993,4 hPa 0,0 l/m 2,7 km/h S 182 0 min 0,000 mm 0,0 UV-I 0 W/m 3,0 C 4,2 C 5,7 km/h 96,15 %
25.02.2020 23:22 4,2 C 92 % 993,4 hPa 0,0 l/m 3,4 km/h S 182 0 min 0,000 mm 0,0 UV-I 0 W/m 3,0 C 4,2 C 5,7 km/h 100,00 %
25.02.2020 23:21 4,2 C 92 % 993,4 hPa 0,0 l/m 2,2 km/h S 182 0 min 0,000 mm 0,0 UV-I 0 W/m 3,0 C 4,2 C 5,7 km/h 100,00 %
25.02.2020 23:20 4,1 C 92 % 993,4 hPa 0,0 l/m 1,7 km/h S 182 0 min 0,000 mm 0,0 UV-I 0 W/m 2,9 C 4,1 C 3,8 km/h 100,00 %
25.02.2020 23:19 4,1 C 92 % 993,4 hPa 0,0 l/m 0,4 km/h S 183 0 min 0,000 mm 0,0 UV-I 0 W/m 2,9 C 4,1 C 1,9 km/h 96,15 %
25.02.2020 23:18 4,2 C 93 % 993,5 hPa 0,0 l/m 2,2 km/h S 183 0 min 0,000 mm 0,0 UV-I 0 W/m 3,2 C 4,2 C 3,8 km/h 100,00 %
25.02.2020 23:17 4,2 C 93 % 993,5 hPa 0,0 l/m 0,5 km/h S 183 0 min 0,000 mm 0,0 UV-I 0 W/m 3,2 C 4,2 C 1,9 km/h 100,00 %
25.02.2020 23:16 4,1 C 93 % 993,5 hPa 0,0 l/m 0,6 km/h S 183 0 min 0,000 mm 0,0 UV-I 0 W/m 3,1 C 4,1 C 3,8 km/h 100,00 %
25.02.2020 23:15 4,1 C 93 % 993,6 hPa 0,0 l/m 5,4 km/h S 183 0 min 0,000 mm 0,0 UV-I 0 W/m 3,1 C 4,1 C 9,6 km/h 100,00 %
25.02.2020 23:14 4,1 C 93 % 993,6 hPa 0,0 l/m 1,1 km/h S 182 0 min 0,000 mm 0,0 UV-I 0 W/m 3,1 C 4,1 C 1,9 km/h 100,00 %
25.02.2020 23:13 4,1 C 93 % 993,6 hPa 0,0 l/m 2,1 km/h S 182 0 min 0,000 mm 0,0 UV-I 0 W/m 3,1 C 4,1 C 3,8 km/h 97,37 %
25.02.2020 23:12 4,1 C 93 % 993,6 hPa 0,0 l/m 2,3 km/h S 182 0 min 0,000 mm 0,0 UV-I 0 W/m 3,1 C 4,1 C 3,8 km/h 97,88 %
25.02.2020 23:11 4,1 C 93 % 993,7 hPa 0,2 l/m 0,4 km/h S 182 0 min 0,051 mm 0,0 UV-I 0 W/m 3,1 C 4,1 C 1,9 km/h 100,00 %
25.02.2020 23:10 4,1 C 93 % 993,8 hPa 0,0 l/m 1,7 km/h S 182 0 min 0,000 mm 0,0 UV-I 0 W/m 3,1 C 4,1 C 1,9 km/h 100,00 %
25.02.2020 23:09 4,1 C 93 % 993,8 hPa 0,0 l/m 3,5 km/h S 182 0 min 0,000 mm 0,0 UV-I 0 W/m 3,1 C 4,1 C 9,6 km/h 96,55 %
25.02.2020 23:08 4,1 C 93 % 993,8 hPa 0,0 l/m 6,1 km/h S 182 0 min 0,000 mm 0,0 UV-I 0 W/m 3,1 C 4,1 C 9,6 km/h 100,00 %
25.02.2020 23:07 4,1 C 93 % 993,9 hPa 0,0 l/m 1,2 km/h S 174 0 min 0,000 mm 0,0 UV-I 0 W/m 3,1 C 4,1 C 3,8 km/h 100,00 %
25.02.2020 23:06 4,1 C 93 % 993,9 hPa 0,0 l/m 3,4 km/h S 175 0 min 0,000 mm 0,0 UV-I 0 W/m 3,1 C 4,1 C 5,7 km/h 95,65 %
25.02.2020 23:05 4,1 C 93 % 993,9 hPa 0,0 l/m 4,3 km/h S 175 0 min 0,000 mm 0,0 UV-I 0 W/m 3,1 C 4,1 C 7,7 km/h 96,30 %
25.02.2020 23:04 4,1 C 93 % 993,9 hPa 0,0 l/m 5,9 km/h S 178 0 min 0,000 mm 0,0 UV-I 0 W/m 3,1 C 4,1 C 9,6 km/h 100,00 %
25.02.2020 23:03 4,1 C 93 % 993,9 hPa 0,0 l/m 8,1 km/h S 169 0 min 0,000 mm 0,0 UV-I 0 W/m 3,1 C 2,6 C 11,5 km/h 100,00 %
25.02.2020 23:02 4,1 C 93 % 993,9 hPa 0,0 l/m 4,7 km/h S 182 0 min 0,000 mm 0,0 UV-I 0 W/m 3,1 C 4,1 C 9,6 km/h 92,86 %
25.02.2020 23:01 4,1 C 93 % 994,0 hPa 0,0 l/m 4,1 km/h S 174 0 min 0,000 mm 0,0 UV-I 0 W/m 3,1 C 4,1 C 5,7 km/h 100,00 %
25.02.2020 23:00 4,1 C 93 % 994,0 hPa 0,0 l/m 5,6 km/h S 174 0 min 0,000 mm 0,0 UV-I 0 W/m 3,1 C 4,1 C 9,6 km/h 95,65 %
25.02.2020 22:59 4,0 C 93 % 994,0 hPa 0,0 l/m 5,4 km/h SO 146 0 min 0,000 mm 0,0 UV-I 0 W/m 3,0 C 4,0 C 11,5 km/h 100,00 %
25.02.2020 22:58 4,0 C 93 % 994,0 hPa 0,0 l/m 6,1 km/h S 169 0 min 0,000 mm 0,0 UV-I 0 W/m 3,0 C 4,0 C 9,6 km/h 100,00 %
25.02.2020 22:57 4,0 C 93 % 994,0 hPa 0,0 l/m 5,3 km/h S 169 0 min 0,000 mm 0,0 UV-I 0 W/m 3,0 C 4,0 C 9,6 km/h 100,00 %
25.02.2020 22:56 4,0 C 93 % 994,0 hPa 0,0 l/m 1,6 km/h S 169 0 min 0,000 mm 0,0 UV-I 0 W/m 3,0 C 4,0 C 3,8 km/h 100,00 %
25.02.2020 22:55 4,0 C 93 % 994,0 hPa 0,0 l/m 4,2 km/h S 169 0 min 0,000 mm 0,0 UV-I 0 W/m 3,0 C 4,0 C 9,6 km/h 95,83 %
25.02.2020 22:54 4,0 C 93 % 994,0 hPa 0,0 l/m 5,9 km/h S 170 0 min 0,000 mm 0,0 UV-I 0 W/m 3,0 C 4,0 C 9,6 km/h 100,00 %
25.02.2020 22:53 4,0 C 93 % 994,0 hPa 0,0 l/m 5,0 km/h SO 142 0 min 0,000 mm 0,0 UV-I 0 W/m 3,0 C 4,0 C 7,7 km/h 96,30 %
25.02.2020 22:52 3,9 C 92 % 994,0 hPa 0,0 l/m 6,6 km/h S 181 0 min 0,000 mm 0,0 UV-I 0 W/m 2,7 C 3,7 C 11,5 km/h 100,00 %
25.02.2020 22:51 3,9 C 92 % 994,0 hPa 0,0 l/m 3,2 km/h S 177 0 min 0,000 mm 0,0 UV-I 0 W/m 2,7 C 3,9 C 7,7 km/h 100,00 %
25.02.2020 22:50 3,9 C 92 % 994,1 hPa 0,0 l/m 3,7 km/h S 175 0 min 0,000 mm 0,0 UV-I 0 W/m 2,7 C 3,9 C 7,7 km/h 100,00 %
25.02.2020 22:49 3,9 C 92 % 994,1 hPa 0,0 l/m 3,5 km/h S-SO 160 0 min 0,000 mm 0,0 UV-I 0 W/m 2,7 C 3,9 C 7,7 km/h 100,00 %
25.02.2020 22:48 3,9 C 92 % 994,1 hPa 0,0 l/m 8,0 km/h S-SO 152 0 min 0,000 mm 0,0 UV-I 0 W/m 2,7 C 2,4 C 13,4 km/h 100,00 %
25.02.2020 22:47 3,9 C 92 % 994,1 hPa 0,0 l/m 4,1 km/h S 171 0 min 0,000 mm 0,0 UV-I 0 W/m 2,7 C 3,9 C 7,7 km/h 95,83 %
25.02.2020 22:46 3,9 C 92 % 994,2 hPa 0,0 l/m 4,1 km/h S 171 0 min 0,000 mm 0,0 UV-I 0 W/m 2,7 C 3,9 C 7,7 km/h 100,00 %
25.02.2020 22:45 3,9 C 92 % 994,2 hPa 0,0 l/m 6,4 km/h S 172 0 min 0,000 mm 0,0 UV-I 0 W/m 2,7 C 3,9 C 11,5 km/h 100,00 %
25.02.2020 22:44 3,9 C 92 % 994,2 hPa 0,0 l/m 5,1 km/h S 169 0 min 0,000 mm 0,0 UV-I 0 W/m 2,7 C 3,9 C 9,6 km/h 100,00 %
25.02.2020 22:43 3,9 C 92 % 994,3 hPa 0,0 l/m 3,7 km/h S 169 0 min 0,000 mm 0,0 UV-I 0 W/m 2,7 C 3,9 C 7,7 km/h 100,00 %
25.02.2020 22:42 3,8 C 92 % 994,3 hPa 0,0 l/m 7,5 km/h S 169 0 min 0,000 mm 0,0 UV-I 0 W/m 2,6 C 2,8 C 11,5 km/h 100,00 %
25.02.2020 22:41 3,8 C 92 % 994,3 hPa 0,0 l/m 4,5 km/h S 178 0 min 0,000 mm 0,0 UV-I 0 W/m 2,6 C 3,8 C 5,7 km/h 100,00 %
25.02.2020 22:40 3,8 C 92 % 994,3 hPa 0,0 l/m 4,1 km/h S 184 0 min 0,000 mm 0,0 UV-I 0 W/m 2,6 C 3,8 C 5,7 km/h 100,00 %
25.02.2020 22:39 3,8 C 92 % 994,3 hPa 0,0 l/m 5,2 km/h S 186 0 min 0,000 mm 0,0 UV-I 0 W/m 2,6 C 3,8 C 7,7 km/h 100,00 %
25.02.2020 22:38 3,8 C 92 % 994,4 hPa 0,0 l/m 4,9 km/h SO 136 0 min 0,000 mm 0,0 UV-I 0 W/m 2,6 C 3,8 C 13,4 km/h 100,00 %
25.02.2020 22:37 3,8 C 92 % 994,4 hPa 0,0 l/m 5,3 km/h S 178 0 min 0,000 mm 0,0 UV-I 0 W/m 2,6 C 3,8 C 9,6 km/h 100,00 %
25.02.2020 22:36 3,8 C 92 % 994,4 hPa 0,0 l/m 3,9 km/h S 172 0 min 0,000 mm 0,0 UV-I 0 W/m 2,6 C 3,8 C 5,7 km/h 100,00 %
25.02.2020 22:35 3,8 C 92 % 994,5 hPa 0,0 l/m 9,4 km/h S 172 0 min 0,000 mm 0,0 UV-I 0 W/m 2,6 C 1,2 C 13,4 km/h 91,30 %
25.02.2020 22:34 3,8 C 92 % 994,5 hPa 0,0 l/m 6,5 km/h S-SO 158 0 min 0,000 mm 0,0 UV-I 0 W/m 2,6 C 3,7 C 13,4 km/h 100,00 %
25.02.2020 22:33 3,8 C 92 % 994,5 hPa 0,0 l/m 5,6 km/h S-SO 155 0 min 0,000 mm 0,0 UV-I 0 W/m 2,6 C 3,8 C 11,5 km/h 100,00 %
25.02.2020 22:32 3,8 C 92 % 994,5 hPa 0,0 l/m 6,2 km/h S-SO 162 0 min 0,000 mm 0,0 UV-I 0 W/m 2,6 C 3,8 C 15,3 km/h 100,00 %
25.02.2020 22:31 3,8 C 92 % 994,6 hPa 0,0 l/m 2,6 km/h S-SO 168 0 min 0,000 mm 0,0 UV-I 0 W/m 2,6 C 3,8 C 7,7 km/h 95,65 %
25.02.2020 22:30 3,8 C 92 % 994,6 hPa 0,0 l/m 5,3 km/h S-SO 167 0 min 0,000 mm 0,0 UV-I 0 W/m 2,6 C 3,8 C 11,5 km/h 100,00 %
25.02.2020 22:29 3,8 C 92 % 994,6 hPa 0,0 l/m 6,1 km/h S 170 0 min 0,000 mm 0,0 UV-I 0 W/m 2,6 C 3,8 C 11,5 km/h 100,00 %
25.02.2020 22:28 3,8 C 92 % 994,6 hPa 0,0 l/m 9,5 km/h S 170 0 min 0,000 mm 0,0 UV-I 0 W/m 2,6 C 1,1 C 13,4 km/h 100,00 %
25.02.2020 22:27 3,8 C 92 % 994,6 hPa 0,0 l/m 7,8 km/h S-SO 161 0 min 0,000 mm 0,0 UV-I 0 W/m 2,6 C 2,5 C 13,4 km/h 100,00 %
25.02.2020 22:26 3,8 C 92 % 994,6 hPa 0,0 l/m 8,2 km/h S 171 0 min 0,000 mm 0,0 UV-I 0 W/m 2,6 C 2,2 C 11,5 km/h 100,00 %
25.02.2020 22:25 3,8 C 92 % 994,7 hPa 0,0 l/m 9,4 km/h S-SO 163 0 min 0,000 mm 0,0 UV-I 0 W/m 2,6 C 1,2 C 15,3 km/h 100,00 %
25.02.2020 22:24 3,8 C 92 % 994,6 hPa 0,0 l/m 2,8 km/h S-SO 159 0 min 0,000 mm 0,0 UV-I 0 W/m 2,6 C 3,8 C 7,7 km/h 100,00 %
25.02.2020 22:23 3,7 C 92 % 994,7 hPa 0,0 l/m 5,4 km/h S-SO 159 0 min 0,000 mm 0,0 UV-I 0 W/m 2,5 C 3,7 C 9,6 km/h 100,00 %
25.02.2020 22:22 3,7 C 92 % 994,7 hPa 0,0 l/m 9,2 km/h S 172 0 min 0,000 mm 0,0 UV-I 0 W/m 2,5 C 1,2 C 15,3 km/h 100,00 %
25.02.2020 22:21 3,7 C 92 % 994,7 hPa 0,0 l/m 6,0 km/h S-SO 153 0 min 0,000 mm 0,0 UV-I 0 W/m 2,5 C 3,7 C 13,4 km/h 100,00 %
25.02.2020 22:20 3,7 C 92 % 994,8 hPa 0,0 l/m 7,7 km/h S 183 0 min 0,000 mm 0,0 UV-I 0 W/m 2,5 C 2,5 C 13,4 km/h 100,00 %
25.02.2020 22:19 3,7 C 92 % 994,7 hPa 0,0 l/m 6,9 km/h S 171 0 min 0,000 mm 0,0 UV-I 0 W/m 2,5 C 3,2 C 9,6 km/h 100,00 %
25.02.2020 22:18 3,7 C 92 % 994,7 hPa 0,0 l/m 12,7 km/h S 180 0 min 0,000 mm 0,0 UV-I 0 W/m 2,5 C -1,2 C 17,2 km/h 100,00 %
25.02.2020 22:17 3,7 C 92 % 994,8 hPa 0,0 l/m 9,8 km/h SO 140 0 min 0,000 mm 0,0 UV-I 0 W/m 2,5 C 0,8 C 15,3 km/h 100,00 %
25.02.2020 22:16 3,7 C 92 % 994,8 hPa 0,0 l/m 10,3 km/h S-SO 157 0 min 0,000 mm 0,0 UV-I 0 W/m 2,5 C 0,4 C 17,2 km/h 100,00 %
25.02.2020 22:15 3,7 C 92 % 994,8 hPa 0,0 l/m 7,1 km/h SO 137 0 min 0,000 mm 0,0 UV-I 0 W/m 2,5 C 3,1 C 15,3 km/h 100,00 %
25.02.2020 22:14 3,7 C 92 % 994,8 hPa 0,0 l/m 9,4 km/h S 169 0 min 0,000 mm 0,0 UV-I 0 W/m 2,5 C 1,1 C 15,3 km/h 100,00 %
25.02.2020 22:13 3,6 C 92 % 994,8 hPa 0,0 l/m 11,6 km/h S-SO 161 0 min 0,000 mm 0,0 UV-I 0 W/m 2,4 C -0,6 C 15,3 km/h 100,00 %
25.02.2020 22:12 3,6 C 92 % 994,8 hPa 0,0 l/m 8,3 km/h SO 132 0 min 0,000 mm 0,0 UV-I 0 W/m 2,4 C 1,9 C 15,3 km/h 95,83 %
25.02.2020 22:11 3,6 C 92 % 994,9 hPa 0,0 l/m 6,0 km/h S-SO 152 0 min 0,000 mm 0,0 UV-I 0 W/m 2,4 C 3,6 C 13,4 km/h 95,65 %
25.02.2020 22:10 3,6 C 92 % 994,9 hPa 0,0 l/m 7,3 km/h S-SO 154 0 min 0,000 mm 0,0 UV-I 0 W/m 2,4 C 2,8 C 11,5 km/h 100,00 %
25.02.2020 22:09 3,6 C 92 % 994,9 hPa 0,0 l/m 5,0 km/h S-SO 156 0 min 0,000 mm 0,0 UV-I 0 W/m 2,4 C 3,6 C 11,5 km/h 100,00 %
25.02.2020 22:08 3,6 C 92 % 994,9 hPa 0,0 l/m 5,0 km/h S 173 0 min 0,000 mm 0,0 UV-I 0 W/m 2,4 C 3,6 C 11,5 km/h 100,00 %
25.02.2020 22:07 3,6 C 92 % 994,9 hPa 0,0 l/m 5,7 km/h S 173 0 min 0,000 mm 0,0 UV-I 0 W/m 2,4 C 3,6 C 9,6 km/h 100,00 %
25.02.2020 22:06 3,6 C 92 % 994,9 hPa 0,0 l/m 7,5 km/h S-SO 157 0 min 0,000 mm 0,0 UV-I 0 W/m 2,4 C 2,6 C 13,4 km/h 100,00 %
25.02.2020 22:05 3,6 C 92 % 994,9 hPa 0,0 l/m 4,9 km/h S 178 0 min 0,000 mm 0,0 UV-I 0 W/m 2,4 C 3,6 C 9,6 km/h 100,00 %
25.02.2020 22:04 3,6 C 92 % 994,9 hPa 0,0 l/m 5,0 km/h S 178 0 min 0,000 mm 0,0 UV-I 0 W/m 2,4 C 3,6 C 7,7 km/h 95,83 %
25.02.2020 22:03 3,6 C 92 % 994,8 hPa 0,0 l/m 3,7 km/h S 179 0 min 0,000 mm 0,0 UV-I 0 W/m 2,4 C 3,6 C 7,7 km/h 100,00 %
25.02.2020 22:02 3,6 C 92 % 994,9 hPa 0,0 l/m 5,1 km/h S 178 0 min 0,000 mm 0,0 UV-I 0 W/m 2,4 C 3,6 C 9,6 km/h 100,00 %
25.02.2020 22:01 3,6 C 92 % 994,9 hPa 0,0 l/m 3,5 km/h S 171 0 min 0,000 mm 0,0 UV-I 0 W/m 2,4 C 3,6 C 7,7 km/h 100,00 %
25.02.2020 22:00 3,6 C 92 % 994,9 hPa 0,0 l/m 6,1 km/h S 171 0 min 0,000 mm 0,0 UV-I 0 W/m 2,4 C 3,6 C 9,6 km/h 100,00 %
25.02.2020 21:59 3,6 C 92 % 994,9 hPa 0,0 l/m 6,8 km/h S 171 0 min 0,000 mm 0,0 UV-I 0 W/m 2,4 C 3,2 C 9,6 km/h 95,65 %
25.02.2020 21:58 3,6 C 92 % 994,9 hPa 0,0 l/m 4,4 km/h S 171 0 min 0,000 mm 0,0 UV-I 0 W/m 2,4 C 3,6 C 7,7 km/h 100,00 %
25.02.2020 21:57 3,6 C 92 % 994,9 hPa 0,0 l/m 2,1 km/h S 171 0 min 0,000 mm 0,0 UV-I 0 W/m 2,4 C 3,6 C 7,7 km/h 100,00 %
25.02.2020 21:56 3,7 C 92 % 994,9 hPa 0,0 l/m 3,5 km/h S 172 0 min 0,000 mm 0,0 UV-I 0 W/m 2,5 C 3,7 C 7,7 km/h 100,00 %
25.02.2020 21:55 3,7 C 92 % 994,9 hPa 0,0 l/m 6,9 km/h S 173 0 min 0,000 mm 0,0 UV-I 0 W/m 2,5 C 3,2 C 11,5 km/h 100,00 %
25.02.2020 21:54 3,7 C 92 % 994,9 hPa 0,0 l/m 4,9 km/h S-SO 167 0 min 0,000 mm 0,0 UV-I 0 W/m 2,5 C 3,7 C 7,7 km/h 96,30 %
25.02.2020 21:53 3,7 C 92 % 995,0 hPa 0,0 l/m 9,5 km/h S-SO 165 0 min 0,000 mm 0,0 UV-I 0 W/m 2,5 C 1,0 C 11,5 km/h 100,00 %
25.02.2020 21:52 3,7 C 92 % 995,0 hPa 0,0 l/m 3,5 km/h S-SO 148 0 min 0,000 mm 0,0 UV-I 0 W/m 2,5 C 3,7 C 7,7 km/h 100,00 %
25.02.2020 21:51 3,7 C 92 % 994,9 hPa 0,0 l/m 2,5 km/h S 172 0 min 0,000 mm 0,0 UV-I 0 W/m 2,5 C 3,7 C 5,7 km/h 100,00 %
25.02.2020 21:50 3,7 C 92 % 995,0 hPa 0,0 l/m 4,7 km/h S 172 0 min 0,000 mm 0,0 UV-I 0 W/m 2,5 C 3,7 C 9,6 km/h 100,00 %
25.02.2020 21:49 3,7 C 92 % 995,1 hPa 0,0 l/m 4,4 km/h S 182 0 min 0,000 mm 0,0 UV-I 0 W/m 2,5 C 3,7 C 9,6 km/h 95,65 %
25.02.2020 21:48 3,7 C 92 % 995,1 hPa 0,0 l/m 5,0 km/h S-SO 168 0 min 0,000 mm 0,0 UV-I 0 W/m 2,5 C 3,7 C 7,7 km/h 100,00 %
25.02.2020 21:47 3,7 C 92 % 995,2 hPa 0,0 l/m 5,2 km/h S-SO 167 0 min 0,000 mm 0,0 UV-I 0 W/m 2,5 C 3,7 C 9,6 km/h 100,00 %
25.02.2020 21:46 3,7 C 92 % 995,2 hPa 0,0 l/m 8,8 km/h S-SO 167 0 min 0,000 mm 0,0 UV-I 0 W/m 2,5 C 1,6 C 11,5 km/h 100,00 %
25.02.2020 21:45 3,7 C 92 % 995,2 hPa 0,0 l/m 8,9 km/h S 169 0 min 0,000 mm 0,0 UV-I 0 W/m 2,5 C 1,5 C 11,5 km/h 100,00 %
25.02.2020 21:44 3,7 C 92 % 995,2 hPa 0,0 l/m 8,7 km/h S 174 0 min 0,000 mm 0,0 UV-I 0 W/m 2,5 C 1,6 C 11,5 km/h 100,00 %
25.02.2020 21:43 3,7 C 92 % 995,2 hPa 0,0 l/m 7,2 km/h S 171 0 min 0,000 mm 0,0 UV-I 0 W/m 2,5 C 3,0 C 11,5 km/h 95,83 %
25.02.2020 21:42 3,7 C 92 % 995,2 hPa 0,0 l/m 2,6 km/h S 181 0 min 0,000 mm 0,0 UV-I 0 W/m 2,5 C 3,7 C 3,8 km/h 100,00 %
25.02.2020 21:41 3,7 C 92 % 995,1 hPa 0,0 l/m 6,1 km/h S 181 0 min 0,000 mm 0,0 UV-I 0 W/m 2,5 C 3,7 C 9,6 km/h 100,00 %
25.02.2020 21:40 3,7 C 92 % 995,1 hPa 0,0 l/m 5,8 km/h S 183 0 min 0,000 mm 0,0 UV-I 0 W/m 2,5 C 3,7 C 11,5 km/h 100,00 %
25.02.2020 21:39 3,7 C 92 % 995,2 hPa 0,0 l/m 7,0 km/h S 182 0 min 0,000 mm 0,0 UV-I 0 W/m 2,5 C 3,1 C 9,6 km/h 95,83 %
25.02.2020 21:38 3,7 C 92 % 995,2 hPa 0,0 l/m 4,1 km/h S-SO 167 0 min 0,000 mm 0,0 UV-I 0 W/m 2,5 C 3,7 C 9,6 km/h 100,00 %
25.02.2020 21:37 3,7 C 92 % 995,2 hPa 0,0 l/m 4,9 km/h S-SO 165 0 min 0,000 mm 0,0 UV-I 0 W/m 2,5 C 3,7 C 9,6 km/h 100,00 %
25.02.2020 21:36 3,7 C 92 % 995,2 hPa 0,0 l/m 8,3 km/h S-SO 165 0 min 0,000 mm 0,0 UV-I 0 W/m 2,5 C 2,0 C 9,6 km/h 100,00 %
25.02.2020 21:35 3,7 C 92 % 995,2 hPa 0,0 l/m 8,2 km/h S-SO 167 0 min 0,000 mm 0,0 UV-I 0 W/m 2,5 C 2,1 C 11,5 km/h 100,00 %
25.02.2020 21:34 3,7 C 91 % 995,2 hPa 0,0 l/m 9,9 km/h S-SO 165 0 min 0,000 mm 0,0 UV-I 0 W/m 2,4 C 0,7 C 11,5 km/h 100,00 %
25.02.2020 21:33 3,7 C 91 % 995,2 hPa 0,0 l/m 3,9 km/h S 172 0 min 0,000 mm 0,0 UV-I 0 W/m 2,4 C 3,7 C 9,6 km/h 100,00 %
25.02.2020 21:32 3,7 C 91 % 995,3 hPa 0,0 l/m 5,7 km/h S 172 0 min 0,000 mm 0,0 UV-I 0 W/m 2,4 C 3,7 C 9,6 km/h 100,00 %
25.02.2020 21:31 3,7 C 91 % 995,4 hPa 0,0 l/m 7,3 km/h S 170 0 min 0,000 mm 0,0 UV-I 0 W/m 2,4 C 2,9 C 11,5 km/h 100,00 %
25.02.2020 21:30 3,7 C 91 % 995,4 hPa 0,0 l/m 10,6 km/h S 178 0 min 0,000 mm 0,0 UV-I 0 W/m 2,4 C 0,2 C 13,4 km/h 100,00 %
25.02.2020 21:29 3,7 C 91 % 995,4 hPa 0,0 l/m 6,7 km/h S 178 0 min 0,000 mm 0,0 UV-I 0 W/m 2,4 C 3,4 C 13,4 km/h 100,00 %
25.02.2020 21:28 3,7 C 91 % 995,3 hPa 0,0 l/m 5,1 km/h S 174 0 min 0,000 mm 0,0 UV-I 0 W/m 2,4 C 3,7 C 7,7 km/h 100,00 %
25.02.2020 21:27 3,7 C 91 % 995,3 hPa 0,0 l/m 3,7 km/h S 182 0 min 0,000 mm 0,0 UV-I 0 W/m 2,4 C 3,7 C 5,7 km/h 100,00 %
25.02.2020 21:26 3,7 C 91 % 995,4 hPa 0,0 l/m 5,5 km/h S 182 0 min 0,000 mm 0,0 UV-I 0 W/m 2,4 C 3,7 C 9,6 km/h 100,00 %
25.02.2020 21:25 3,7 C 91 % 995,4 hPa 0,0 l/m 5,7 km/h S-SO 163 0 min 0,000 mm 0,0 UV-I 0 W/m 2,4 C 3,7 C 9,6 km/h 100,00 %
25.02.2020 21:24 3,7 C 91 % 995,4 hPa 0,0 l/m 8,7 km/h S 180 0 min 0,000 mm 0,0 UV-I 0 W/m 2,4 C 1,6 C 9,6 km/h 100,00 %
25.02.2020 21:23 3,8 C 91 % 995,4 hPa 0,0 l/m 10,0 km/h S 169 0 min 0,000 mm 0,0 UV-I 0 W/m 2,5 C 0,7 C 15,3 km/h 100,00 %
25.02.2020 21:22 3,8 C 91 % 995,4 hPa 0,0 l/m 4,0 km/h S 170 0 min 0,000 mm 0,0 UV-I 0 W/m 2,5 C 3,8 C 9,6 km/h 100,00 %
25.02.2020 21:21 3,8 C 91 % 995,4 hPa 0,0 l/m 7,7 km/h S 170 0 min 0,000 mm 0,0 UV-I 0 W/m 2,5 C 2,6 C 13,4 km/h 100,00 %
25.02.2020 21:20 3,8 C 91 % 995,4 hPa 0,0 l/m 9,1 km/h S 174 0 min 0,000 mm 0,0 UV-I 0 W/m 2,5 C 1,4 C 15,3 km/h 100,00 %
25.02.2020 21:19 3,8 C 91 % 995,5 hPa 0,0 l/m 6,8 km/h S 173 0 min 0,000 mm 0,0 UV-I 0 W/m 2,5 C 3,4 C 9,6 km/h 100,00 %
25.02.2020 21:18 3,8 C 91 % 995,5 hPa 0,0 l/m 5,3 km/h S 181 0 min 0,000 mm 0,0 UV-I 0 W/m 2,5 C 3,8 C 9,6 km/h 100,00 %
25.02.2020 21:17 3,8 C 91 % 995,5 hPa 0,0 l/m 3,9 km/h S 173 0 min 0,000 mm 0,0 UV-I 0 W/m 2,5 C 3,8 C 11,5 km/h 91,30 %
25.02.2020 21:16 3,8 C 91 % 995,5 hPa 0,0 l/m 6,1 km/h S 169 0 min 0,000 mm 0,0 UV-I 0 W/m 2,5 C 3,8 C 9,6 km/h 100,00 %
25.02.2020 21:15 3,8 C 91 % 995,5 hPa 0,0 l/m 6,8 km/h S 169 0 min 0,000 mm 0,0 UV-I 0 W/m 2,5 C 3,4 C 9,6 km/h 100,00 %
25.02.2020 21:14 3,8 C 91 % 995,5 hPa 0,0 l/m 10,0 km/h S 169 0 min 0,000 mm 0,0 UV-I 0 W/m 2,5 C 0,7 C 13,4 km/h 100,00 %
25.02.2020 21:13 3,9 C 91 % 995,5 hPa 0,0 l/m 7,8 km/h S-SO 166 0 min 0,000 mm 0,0 UV-I 0 W/m 2,6 C 2,6 C 17,2 km/h 100,00 %
25.02.2020 21:12 3,9 C 91 % 995,6 hPa 0,0 l/m 9,1 km/h S 185 0 min 0,000 mm 0,0 UV-I 0 W/m 2,6 C 1,5 C 13,4 km/h 100,00 %
25.02.2020 21:11 3,9 C 91 % 995,6 hPa 0,0 l/m 5,4 km/h S 176 0 min 0,000 mm 0,0 UV-I 0 W/m 2,6 C 3,9 C 11,5 km/h 100,00 %
25.02.2020 21:10 3,9 C 91 % 995,6 hPa 0,0 l/m 7,8 km/h S 187 0 min 0,000 mm 0,0 UV-I 0 W/m 2,6 C 2,6 C 11,5 km/h 95,83 %
25.02.2020 21:09 3,9 C 91 % 995,6 hPa 0,0 l/m 8,0 km/h S-SO 149 0 min 0,000 mm 0,0 UV-I 0 W/m 2,6 C 2,4 C 11,5 km/h 91,30 %
25.02.2020 21:08 3,9 C 91 % 995,7 hPa 0,0 l/m 11,7 km/h S-SO 155 0 min 0,000 mm 0,0 UV-I 0 W/m 2,6 C -0,3 C 19,1 km/h 100,00 %
25.02.2020 21:07 3,9 C 90 % 995,6 hPa 0,0 l/m 7,0 km/h S 174 0 min 0,000 mm 0,0 UV-I 0 W/m 2,4 C 3,4 C 15,3 km/h 100,00 %
25.02.2020 21:06 3,9 C 90 % 995,6 hPa 0,0 l/m 3,0 km/h S 175 0 min 0,000 mm 0,0 UV-I 0 W/m 2,4 C 3,9 C 5,7 km/h 100,00 %
25.02.2020 21:05 3,9 C 90 % 995,7 hPa 0,0 l/m 6,5 km/h S 176 0 min 0,000 mm 0,0 UV-I 0 W/m 2,4 C 3,8 C 11,5 km/h 100,00 %
25.02.2020 21:04 3,9 C 90 % 995,7 hPa 0,0 l/m 7,9 km/h S 172 0 min 0,000 mm 0,0 UV-I 0 W/m 2,4 C 2,5 C 11,5 km/h 100,00 %
25.02.2020 21:03 3,9 C 90 % 995,7 hPa 0,0 l/m 8,3 km/h S 175 0 min 0,000 mm 0,0 UV-I 0 W/m 2,4 C 2,2 C 11,5 km/h 100,00 %
25.02.2020 21:02 3,9 C 90 % 995,7 hPa 0,0 l/m 8,0 km/h S 184 0 min 0,000 mm 0,0 UV-I 0 W/m 2,4 C 2,4 C 17,2 km/h 100,00 %
25.02.2020 21:01 3,9 C 90 % 995,7 hPa 0,0 l/m 6,0 km/h S 173 0 min 0,000 mm 0,0 UV-I 0 W/m 2,4 C 3,9 C 11,5 km/h 100,00 %
25.02.2020 21:00 3,9 C 90 % 995,7 hPa 0,0 l/m 5,2 km/h S-SO 157 0 min 0,000 mm 0,0 UV-I 0 W/m 2,4 C 3,9 C 7,7 km/h 100,00 %
25.02.2020 20:59 3,9 C 90 % 995,7 hPa 0,0 l/m 10,2 km/h S-SW 197 0 min 0,000 mm 0,0 UV-I 0 W/m 2,4 C 0,7 C 19,1 km/h 100,00 %
25.02.2020 20:58 4,0 C 90 % 995,7 hPa 0,0 l/m 9,0 km/h S 185 0 min 0,000 mm 0,0 UV-I 0 W/m 2,5 C 1,7 C 15,3 km/h 95,83 %
25.02.2020 20:57 4,0 C 90 % 995,7 hPa 0,0 l/m 5,5 km/h S-SW 205 0 min 0,000 mm 0,0 UV-I 0 W/m 2,5 C 4,0 C 13,4 km/h 100,00 %
25.02.2020 20:56 4,0 C 90 % 995,7 hPa 0,0 l/m 4,3 km/h S 188 0 min 0,000 mm 0,0 UV-I 0 W/m 2,5 C 4,0 C 5,7 km/h 100,00 %
25.02.2020 20:55 4,0 C 90 % 995,7 hPa 0,0 l/m 4,7 km/h S 189 0 min 0,000 mm 0,0 UV-I 0 W/m 2,5 C 4,0 C 9,6 km/h 100,00 %
25.02.2020 20:54 4,0 C 90 % 995,7 hPa 0,0 l/m 6,4 km/h S 178 0 min 0,000 mm 0,0 UV-I 0 W/m 2,5 C 4,0 C 13,4 km/h 97,68 %
25.02.2020 20:53 4,0 C 90 % 995,7 hPa 0,0 l/m 5,1 km/h S 181 0 min 0,000 mm 0,0 UV-I 0 W/m 2,5 C 4,0 C 13,4 km/h 100,00 %
25.02.2020 20:52 4,0 C 90 % 995,8 hPa 0,0 l/m 6,1 km/h S 190 0 min 0,000 mm 0,0 UV-I 0 W/m 2,5 C 4,0 C 11,5 km/h 95,83 %
25.02.2020 20:51 4,1 C 90 % 995,8 hPa 0,0 l/m 9,7 km/h S 173 0 min 0,000 mm 0,0 UV-I 0 W/m 2,6 C 1,3 C 15,3 km/h 100,00 %
25.02.2020 20:50 4,1 C 90 % 995,8 hPa 0,0 l/m 9,2 km/h S 171 0 min 0,000 mm 0,0 UV-I 0 W/m 2,6 C 1,7 C 13,4 km/h 100,00 %
25.02.2020 20:49 4,1 C 90 % 995,8 hPa 0,0 l/m 8,6 km/h S-SW 196 0 min 0,000 mm 0,0 UV-I 0 W/m 2,6 C 2,2 C 15,3 km/h 100,00 %
25.02.2020 20:48 4,1 C 90 % 995,8 hPa 0,0 l/m 7,2 km/h S 190 0 min 0,000 mm 0,0 UV-I 0 W/m 2,6 C 3,4 C 11,5 km/h 95,83 %
25.02.2020 20:47 4,1 C 90 % 995,8 hPa 0,0 l/m 7,5 km/h S 170 0 min 0,000 mm 0,0 UV-I 0 W/m 2,6 C 3,1 C 13,4 km/h 100,00 %
25.02.2020 20:46 4,1 C 90 % 995,9 hPa 0,0 l/m 7,4 km/h S-SO 167 0 min 0,000 mm 0,0 UV-I 0 W/m 2,6 C 3,2 C 13,4 km/h 100,00 %
25.02.2020 20:45 4,1 C 90 % 995,8 hPa 0,0 l/m 2,8 km/h S-SW 193 0 min 0,000 mm 0,0 UV-I 0 W/m 2,6 C 4,1 C 3,8 km/h 100,00 %
25.02.2020 20:44 4,1 C 90 % 995,8 hPa 0,0 l/m 3,1 km/h S-SW 192 0 min 0,000 mm 0,0 UV-I 0 W/m 2,6 C 4,1 C 7,7 km/h 100,00 %
25.02.2020 20:43 4,1 C 90 % 995,8 hPa 0,0 l/m 9,7 km/h S-SW 192 0 min 0,000 mm 0,0 UV-I 0 W/m 2,6 C 1,3 C 13,4 km/h 100,00 %
25.02.2020 20:42 4,1 C 90 % 995,8 hPa 0,0 l/m 8,5 km/h S 184 0 min 0,000 mm 0,0 UV-I 0 W/m 2,6 C 2,2 C 13,4 km/h 100,00 %
25.02.2020 20:41 4,1 C 90 % 995,8 hPa 0,0 l/m 9,4 km/h S 179 0 min 0,000 mm 0,0 UV-I 0 W/m 2,6 C 1,5 C 21,0 km/h 100,00 %
25.02.2020 20:40 4,1 C 90 % 995,8 hPa 0,0 l/m 5,4 km/h S-SW 207 0 min 0,000 mm 0,0 UV-I 0 W/m 2,6 C 4,1 C 7,7 km/h 100,00 %
25.02.2020 20:39 4,1 C 90 % 995,9 hPa 0,0 l/m 5,4 km/h S 182 0 min 0,000 mm 0,0 UV-I 0 W/m 2,6 C 4,1 C 9,6 km/h 100,00 %
25.02.2020 20:38 4,1 C 90 % 995,9 hPa 0,0 l/m 6,0 km/h S-SW 192 0 min 0,000 mm 0,0 UV-I 0 W/m 2,6 C 4,1 C 9,6 km/h 100,00 %
25.02.2020 20:37 4,1 C 90 % 995,9 hPa 0,0 l/m 7,2 km/h S 171 0 min 0,000 mm 0,0 UV-I 0 W/m 2,6 C 3,4 C 11,5 km/h 95,65 %
25.02.2020 20:36 4,1 C 90 % 995,9 hPa 0,0 l/m 8,9 km/h S-SO 167 0 min 0,000 mm 0,0 UV-I 0 W/m 2,6 C 1,9 C 13,4 km/h 100,00 %
25.02.2020 20:35 4,1 C 90 % 996,0 hPa 0,0 l/m 6,7 km/h S-SW 197 0 min 0,000 mm 0,0 UV-I 0 W/m 2,6 C 3,8 C 11,5 km/h 100,00 %
25.02.2020 20:34 4,1 C 90 % 996,0 hPa 0,0 l/m 7,5 km/h S 177 0 min 0,000 mm 0,0 UV-I 0 W/m 2,6 C 3,1 C 11,5 km/h 100,00 %
25.02.2020 20:33 4,1 C 90 % 996,0 hPa 0,0 l/m 9,3 km/h S 178 0 min 0,000 mm 0,0 UV-I 0 W/m 2,6 C 1,6 C 17,2 km/h 100,00 %
25.02.2020 20:32 4,1 C 90 % 996,1 hPa 0,0 l/m 13,1 km/h S-SO 161 0 min 0,000 mm 0,0 UV-I 0 W/m 2,6 C -1,0 C 24,9 km/h 100,00 %
25.02.2020 20:31 4,1 C 90 % 996,1 hPa 0,0 l/m 8,9 km/h S 191 0 min 0,000 mm 0,0 UV-I 0 W/m 2,6 C 1,9 C 13,4 km/h 100,00 %
25.02.2020 20:30 4,1 C 90 % 996,1 hPa 0,0 l/m 6,6 km/h S-SW 195 0 min 0,000 mm 0,0 UV-I 0 W/m 2,6 C 3,9 C 11,5 km/h 100,00 %
25.02.2020 20:29 4,1 C 90 % 996,1 hPa 0,0 l/m 9,9 km/h S 179 0 min 0,000 mm 0,0 UV-I 0 W/m 2,6 C 1,2 C 19,1 km/h 100,00 %
25.02.2020 20:28 4,1 C 90 % 996,2 hPa 0,0 l/m 10,2 km/h S 169 0 min 0,000 mm 0,0 UV-I 0 W/m 2,6 C 0,9 C 15,3 km/h 95,83 %
25.02.2020 20:27 4,1 C 90 % 996,1 hPa 0,0 l/m 9,1 km/h S 171 0 min 0,000 mm 0,0 UV-I 0 W/m 2,6 C 1,8 C 21,0 km/h 100,00 %
25.02.2020 20:26 4,1 C 90 % 996,0 hPa 0,0 l/m 13,9 km/h S-SW 198 0 min 0,000 mm 0,0 UV-I 0 W/m 2,6 C -1,4 C 21,0 km/h 100,00 %
25.02.2020 20:25 4,1 C 90 % 996,0 hPa 0,0 l/m 5,7 km/h S-SO 151 0 min 0,000 mm 0,0 UV-I 0 W/m 2,6 C 4,1 C 9,6 km/h 100,00 %
25.02.2020 20:24 4,2 C 90 % 996,1 hPa 0,0 l/m 6,0 km/h S 175 0 min 0,000 mm 0,0 UV-I 0 W/m 2,7 C 4,2 C 9,6 km/h 100,00 %
25.02.2020 20:23 4,2 C 90 % 996,1 hPa 0,0 l/m 9,8 km/h S 190 0 min 0,000 mm 0,0 UV-I 0 W/m 2,7 C 1,3 C 15,3 km/h 100,00 %
25.02.2020 20:22 4,2 C 90 % 996,2 hPa 0,0 l/m 8,0 km/h S-SW 199 0 min 0,000 mm 0,0 UV-I 0 W/m 2,7 C 2,8 C 13,4 km/h 100,00 %
25.02.2020 20:21 4,2 C 90 % 996,1 hPa 0,0 l/m 9,1 km/h S-SW 201 0 min 0,000 mm 0,0 UV-I 0 W/m 2,7 C 1,9 C 17,2 km/h 100,00 %
25.02.2020 20:20 4,2 C 90 % 996,1 hPa 0,0 l/m 12,1 km/h S 180 0 min 0,000 mm 0,0 UV-I 0 W/m 2,7 C -0,2 C 17,2 km/h 100,00 %
25.02.2020 20:19 4,2 C 90 % 996,1 hPa 0,0 l/m 10,0 km/h S-SW 196 0 min 0,000 mm 0,0 UV-I 0 W/m 2,7 C 1,2 C 15,3 km/h 95,83 %
25.02.2020 20:18 4,2 C 90 % 996,1 hPa 0,0 l/m 10,0 km/h S 180 0 min 0,000 mm 0,0 UV-I 0 W/m 2,7 C 1,2 C 17,2 km/h 100,00 %
25.02.2020 20:17 4,2 C 90 % 996,2 hPa 0,0 l/m 10,5 km/h S 169 0 min 0,000 mm 0,0 UV-I 0 W/m 2,7 C 0,8 C 17,2 km/h 100,00 %
25.02.2020 20:16 4,2 C 90 % 996,2 hPa 0,0 l/m 9,7 km/h S 174 0 min 0,000 mm 0,0 UV-I 0 W/m 2,7 C 1,4 C 17,2 km/h 96,15 %
25.02.2020 20:15 4,2 C 90 % 996,3 hPa 0,0 l/m 9,1 km/h S-SW 202 0 min 0,000 mm 0,0 UV-I 0 W/m 2,7 C 1,9 C 19,1 km/h 100,00 %
25.02.2020 20:14 4,2 C 90 % 996,3 hPa 0,0 l/m 9,6 km/h S 174 0 min 0,000 mm 0,0 UV-I 0 W/m 2,7 C 1,5 C 17,2 km/h 100,00 %
25.02.2020 20:13 4,2 C 90 % 996,3 hPa 0,0 l/m 9,5 km/h S-SO 153 0 min 0,000 mm 0,0 UV-I 0 W/m 2,7 C 1,6 C 19,1 km/h 100,00 %
25.02.2020 20:12 4,2 C 89 % 996,3 hPa 0,0 l/m 9,6 km/h S 187 0 min 0,000 mm 0,0 UV-I 0 W/m 2,6 C 1,5 C 19,1 km/h 100,00 %
25.02.2020 20:11 4,2 C 89 % 996,3 hPa 0,0 l/m 5,2 km/h S-SW 198 0 min 0,000 mm 0,0 UV-I 0 W/m 2,6 C 4,2 C 13,4 km/h 100,00 %
25.02.2020 20:10 4,2 C 89 % 996,3 hPa 0,0 l/m 8,8 km/h S-SW 200 0 min 0,000 mm 0,0 UV-I 0 W/m 2,6 C 2,1 C 13,4 km/h 100,00 %
25.02.2020 20:09 4,2 C 89 % 996,3 hPa 0,0 l/m 7,1 km/h S 191 0 min 0,000 mm 0,0 UV-I 0 W/m 2,6 C 3,6 C 13,4 km/h 100,00 %
25.02.2020 20:08 4,2 C 89 % 996,3 hPa 0,0 l/m 7,6 km/h S-SW 206 0 min 0,000 mm 0,0 UV-I 0 W/m 2,6 C 3,1 C 13,4 km/h 100,00 %
25.02.2020 20:07 4,2 C 89 % 996,4 hPa 0,0 l/m 4,2 km/h S-SW 195 0 min 0,000 mm 0,0 UV-I 0 W/m 2,6 C 4,2 C 5,7 km/h 100,00 %
25.02.2020 20:06 4,2 C 89 % 996,3 hPa 0,0 l/m 7,4 km/h S 179 0 min 0,000 mm 0,0 UV-I 0 W/m 2,6 C 3,3 C 11,5 km/h 100,00 %
25.02.2020 20:05 4,2 C 89 % 996,3 hPa 0,0 l/m 6,5 km/h S 178 0 min 0,000 mm 0,0 UV-I 0 W/m 2,6 C 4,1 C 11,5 km/h 100,00 %
25.02.2020 20:04 4,2 C 89 % 996,2 hPa 0,0 l/m 7,8 km/h S 178 0 min 0,000 mm 0,0 UV-I 0 W/m 2,6 C 2,9 C 15,3 km/h 96,30 %
25.02.2020 20:03 4,2 C 89 % 996,2 hPa 0,0 l/m 10,8 km/h S 187 0 min 0,000 mm 0,0 UV-I 0 W/m 2,6 C 0,6 C 15,3 km/h 100,00 %
25.02.2020 20:02 4,2 C 89 % 996,2 hPa 0,2 l/m 10,7 km/h S 180 0 min 0,000 mm 0,0 UV-I 0 W/m 2,6 C 0,7 C 21,0 km/h 100,00 %
25.02.2020 20:01 4,3 C 89 % 996,2 hPa 0,0 l/m 9,5 km/h S-SO 159 0 min 0,025 mm 0,0 UV-I 0 W/m 2,7 C 1,7 C 23,0 km/h 100,00 %
25.02.2020 20:00 4,3 C 89 % 996,3 hPa 0,0 l/m 9,7 km/h S 186 0 min 0,000 mm 0,0 UV-I 0 W/m 2,7 C 1,5 C 15,3 km/h 100,00 %
25.02.2020 19:59 4,3 C 89 % 996,3 hPa 0,0 l/m 9,7 km/h S 186 0 min 0,000 mm 0,0 UV-I 0 W/m 2,7 C 1,5 C 15,3 km/h 100,00 %
25.02.2020 19:58 4,3 C 89 % 996,3 hPa 0,0 l/m 10,7 km/h S-SW 202 0 min 0,000 mm 0,0 UV-I 0 W/m 2,7 C 0,8 C 17,2 km/h 100,00 %
25.02.2020 19:57 4,3 C 89 % 996,4 hPa 0,0 l/m 6,0 km/h S 189 0 min 0,000 mm 0,0 UV-I 0 W/m 2,7 C 4,3 C 7,7 km/h 100,00 %
25.02.2020 19:56 4,3 C 89 % 996,3 hPa 0,0 l/m 8,6 km/h S-SW 207 0 min 0,000 mm 0,0 UV-I 0 W/m 2,7 C 2,4 C 15,3 km/h 100,00 %
25.02.2020 19:55 4,3 C 89 % 996,4 hPa 0,0 l/m 9,9 km/h S 180 0 min 0,000 mm 0,0 UV-I 0 W/m 2,7 C 1,4 C 17,2 km/h 100,00 %
25.02.2020 19:54 4,4 C 89 % 996,3 hPa 0,0 l/m 6,8 km/h S 190 0 min 0,000 mm 0,0 UV-I 0 W/m 2,7 C 4,1 C 11,5 km/h 100,00 %
25.02.2020 19:53 4,4 C 88 % 996,3 hPa 0,0 l/m 12,7 km/h S 169 0 min 0,000 mm 0,0 UV-I 0 W/m 2,6 C -0,4 C 21,0 km/h 100,00 %
25.02.2020 19:52 4,4 C 88 % 996,3 hPa 0,0 l/m 7,7 km/h S 173 0 min 0,000 mm 0,0 UV-I 0 W/m 2,6 C 3,2 C 15,3 km/h 100,00 %
25.02.2020 19:51 4,4 C 88 % 996,2 hPa 0,0 l/m 7,7 km/h S 185 0 min 0,000 mm 0,0 UV-I 0 W/m 2,6 C 3,2 C 21,0 km/h 100,00 %
25.02.2020 19:50 4,4 C 88 % 996,3 hPa 0,0 l/m 12,1 km/h S 178 0 min 0,000 mm 0,0 UV-I 0 W/m 2,6 C 0,0 C 17,2 km/h 100,00 %
25.02.2020 19:49 4,5 C 88 % 996,3 hPa 0,0 l/m 8,3 km/h S 177 0 min 0,000 mm 0,0 UV-I 0 W/m 2,7 C 2,8 C 13,4 km/h 95,83 %
25.02.2020 19:48 4,5 C 88 % 996,3 hPa 0,0 l/m 8,8 km/h S-SW 193 0 min 0,000 mm 0,0 UV-I 0 W/m 2,7 C 2,4 C 15,3 km/h 100,00 %
25.02.2020 19:47 4,5 C 88 % 996,3 hPa 0,0 l/m 7,6 km/h S-SW 202 0 min 0,000 mm 0,0 UV-I 0 W/m 2,7 C 3,4 C 13,4 km/h 100,00 %
25.02.2020 19:46 4,6 C 88 % 996,4 hPa 0,0 l/m 9,5 km/h S-SO 151 0 min 0,000 mm 0,0 UV-I 0 W/m 2,8 C 2,0 C 13,4 km/h 100,00 %
25.02.2020 19:45 4,6 C 88 % 996,4 hPa 0,0 l/m 12,7 km/h S 190 0 min 0,000 mm 0,0 UV-I 0 W/m 2,8 C -0,1 C 21,0 km/h 100,00 %
25.02.2020 19:44 4,6 C 88 % 996,4 hPa 0,0 l/m 8,0 km/h S 180 0 min 0,000 mm 0,0 UV-I 0 W/m 2,8 C 3,2 C 15,3 km/h 100,00 %
25.02.2020 19:43 4,6 C 88 % 996,4 hPa 0,0 l/m 5,9 km/h S 178 0 min 0,000 mm 0,0 UV-I 0 W/m 2,8 C 4,6 C 7,7 km/h 100,00 %
25.02.2020 19:42 4,6 C 87 % 996,4 hPa 0,0 l/m 8,3 km/h S 184 0 min 0,000 mm 0,0 UV-I 0 W/m 2,6 C 2,9 C 15,3 km/h 88,46 %
25.02.2020 19:41 4,6 C 87 % 996,4 hPa 0,0 l/m 10,7 km/h SW 217 0 min 0,000 mm 0,0 UV-I 0 W/m 2,6 C 1,1 C 15,3 km/h 100,00 %
25.02.2020 19:40 4,7 C 87 % 996,4 hPa 0,0 l/m 11,7 km/h O-SO 123 0 min 0,000 mm 0,0 UV-I 0 W/m 2,7 C 0,6 C 15,3 km/h 100,00 %
25.02.2020 19:39 4,7 C 87 % 996,4 hPa 0,0 l/m 11,4 km/h S 170 0 min 0,000 mm 0,0 UV-I 0 W/m 2,7 C 0,8 C 19,1 km/h 100,00 %
25.02.2020 19:38 4,7 C 87 % 996,4 hPa 0,0 l/m 12,0 km/h S-SO 167 0 min 0,000 mm 0,0 UV-I 0 W/m 2,7 C 0,4 C 21,0 km/h 100,00 %
25.02.2020 19:37 4,7 C 87 % 996,4 hPa 0,0 l/m 14,6 km/h S-SO 166 0 min 0,000 mm 0,0 UV-I 0 W/m 2,7 C -1,1 C 21,0 km/h 100,00 %
25.02.2020 19:36 4,7 C 87 % 996,4 hPa 0,0 l/m 15,0 km/h S 190 0 min 0,000 mm 0,0 UV-I 0 W/m 2,7 C -1,3 C 23,0 km/h 95,65 %
25.02.2020 19:35 4,8 C 87 % 996,4 hPa 0,0 l/m 16,6 km/h S-SO 167 0 min 0,000 mm 0,0 UV-I 0 W/m 2,8 C -2,0 C 32,5 km/h 100,00 %
25.02.2020 19:34 4,8 C 87 % 996,5 hPa 0,0 l/m 14,8 km/h S-SO 165 0 min 0,000 mm 0,0 UV-I 0 W/m 2,8 C -1,1 C 21,0 km/h 95,65 %
25.02.2020 19:33 4,8 C 86 % 996,5 hPa 0,0 l/m 9,9 km/h S-SO 167 0 min 0,000 mm 0,0 UV-I 0 W/m 2,7 C 1,9 C 19,1 km/h 100,00 %
25.02.2020 19:32 4,8 C 87 % 996,5 hPa 0,0 l/m 12,0 km/h S 189 0 min 0,000 mm 0,0 UV-I 0 W/m 2,8 C 0,5 C 17,2 km/h 92,31 %
25.02.2020 19:31 4,8 C 86 % 996,5 hPa 0,0 l/m 10,9 km/h S-SO 156 0 min 0,000 mm 0,0 UV-I 0 W/m 2,7 C 1,2 C 17,2 km/h 100,00 %
25.02.2020 19:30 4,8 C 86 % 996,5 hPa 0,0 l/m 6,7 km/h S-SW 208 0 min 0,000 mm 0,0 UV-I 0 W/m 2,7 C 4,6 C 11,5 km/h 100,00 %
25.02.2020 19:29 4,9 C 86 % 996,5 hPa 0,0 l/m 11,5 km/h S 177 0 min 0,000 mm 0,0 UV-I 0 W/m 2,8 C 1,0 C 17,2 km/h 100,00 %
25.02.2020 19:28 4,9 C 86 % 996,4 hPa 0,0 l/m 14,6 km/h S 171 0 min 0,000 mm 0,0 UV-I 0 W/m 2,8 C -0,8 C 24,9 km/h 96,30 %
25.02.2020 19:27 4,9 C 86 % 996,4 hPa 0,0 l/m 10,5 km/h S-SO 159 0 min 0,000 mm 0,0 UV-I 0 W/m 2,8 C 1,6 C 17,2 km/h 100,00 %
25.02.2020 19:26 4,9 C 86 % 996,5 hPa 0,0 l/m 14,5 km/h S 169 0 min 0,000 mm 0,0 UV-I 0 W/m 2,8 C -0,8 C 19,1 km/h 100,00 %
25.02.2020 19:25 5,0 C 85 % 996,5 hPa 0,0 l/m 13,4 km/h S-SO 150 0 min 0,000 mm 0,0 UV-I 0 W/m 2,7 C -0,1 C 19,1 km/h 100,00 %
25.02.2020 19:24 5,1 C 85 % 996,6 hPa 0,0 l/m 10,1 km/h S-SW 200 0 min 0,000 mm 0,0 UV-I 0 W/m 2,8 C 2,1 C 19,1 km/h 100,00 %
25.02.2020 19:23 5,1 C 85 % 996,6 hPa 0,0 l/m 10,3 km/h S-SO 153 0 min 0,000 mm 0,0 UV-I 0 W/m 2,8 C 2,0 C 13,4 km/h 100,00 %
25.02.2020 19:22 5,1 C 85 % 996,6 hPa 0,0 l/m 9,3 km/h S 171 0 min 0,000 mm 0,0 UV-I 0 W/m 2,8 C 2,7 C 13,4 km/h 100,00 %
25.02.2020 19:21 5,2 C 85 % 996,6 hPa 0,0 l/m 8,6 km/h S-SW 196 0 min 0,000 mm 0,0 UV-I 0 W/m 2,9 C 3,3 C 17,2 km/h 100,00 %
25.02.2020 19:20 5,2 C 85 % 996,6 hPa 0,0 l/m 5,7 km/h S-SW 201 0 min 0,000 mm 0,0 UV-I 0 W/m 2,9 C 5,2 C 9,6 km/h 100,00 %
25.02.2020 19:19 5,2 C 84 % 996,6 hPa 0,0 l/m 9,2 km/h S 170 0 min 0,000 mm 0,0 UV-I 0 W/m 2,7 C 2,9 C 15,3 km/h 100,00 %
25.02.2020 19:18 5,3 C 84 % 996,6 hPa 0,0 l/m 10,4 km/h SW 217 0 min 0,000 mm 0,0 UV-I 0 W/m 2,8 C 2,1 C 17,2 km/h 100,00 %
25.02.2020 19:17 5,3 C 84 % 996,6 hPa 0,0 l/m 9,6 km/h S-SW 198 0 min 0,000 mm 0,0 UV-I 0 W/m 2,8 C 2,7 C 17,2 km/h 95,65 %
25.02.2020 19:16 5,3 C 84 % 996,6 hPa 0,2 l/m 7,1 km/h S-SW 213 0 min 0,000 mm 0,0 UV-I 0 W/m 2,8 C 4,7 C 11,5 km/h 96,30 %
25.02.2020 19:15 5,4 C 84 % 996,5 hPa 0,0 l/m 6,0 km/h S-SW 196 0 min 0,000 mm 0,0 UV-I 0 W/m 2,9 C 5,4 C 9,6 km/h 100,00 %
25.02.2020 19:14 5,4 C 83 % 996,6 hPa 0,0 l/m 12,1 km/h S 190 0 min 0,000 mm 0,0 UV-I 0 W/m 2,7 C 1,2 C 21,0 km/h 100,00 %
25.02.2020 19:13 5,6 C 83 % 996,5 hPa 0,0 l/m 8,7 km/h SW 225 0 min 0,000 mm 0,0 UV-I 0 W/m 2,9 C 3,7 C 15,3 km/h 100,00 %
25.02.2020 19:12 5,6 C 83 % 996,6 hPa 0,0 l/m 13,9 km/h SW 227 0 min 0,000 mm 0,0 UV-I 0 W/m 2,9 C 0,4 C 24,9 km/h 91,67 %
25.02.2020 19:11 5,7 C 83 % 996,6 hPa 0,0 l/m 13,4 km/h S 186 0 min 0,000 mm 0,0 UV-I 0 W/m 3,0 C 0,8 C 19,1 km/h 92,31 %
25.02.2020 19:10 5,8 C 83 % 996,7 hPa 0,0 l/m 9,0 km/h S-SW 205 0 min 0,000 mm 0,0 UV-I 0 W/m 3,1 C 3,7 C 26,8 km/h 96,30 %
25.02.2020 19:09 5,8 C 83 % 996,7 hPa 0,0 l/m 10,9 km/h S-SW 203 0 min 0,000 mm 0,0 UV-I 0 W/m 3,1 C 2,4 C 15,3 km/h 96,15 %
25.02.2020 19:08 5,9 C 82 % 996,7 hPa 0,0 l/m 11,8 km/h S-SW 208 0 min 0,000 mm 0,0 UV-I 0 W/m 3,1 C 1,9 C 17,2 km/h 100,00 %
25.02.2020 19:07 5,9 C 82 % 996,6 hPa 0,0 l/m 8,9 km/h SW 216 0 min 0,000 mm 0,0 UV-I 0 W/m 3,1 C 3,9 C 21,0 km/h 100,00 %
25.02.2020 19:06 6,0 C 82 % 996,6 hPa 0,0 l/m 16,6 km/h S-SW 207 0 min 0,000 mm 0,0 UV-I 0 W/m 3,2 C -0,5 C 26,8 km/h 100,00 %
25.02.2020 19:05 6,1 C 82 % 996,7 hPa 0,0 l/m 12,7 km/h S-SW 203 0 min 0,000 mm 0,0 UV-I 0 W/m 3,3 C 1,6 C 24,9 km/h 100,00 %
25.02.2020 19:04 6,1 C 82 % 996,7 hPa 0,0 l/m 17,5 km/h S-SW 212 0 min 0,000 mm 0,0 UV-I 0 W/m 3,3 C -0,7 C 32,5 km/h 100,00 %
25.02.2020 19:03 6,2 C 82 % 996,7 hPa 0,0 l/m 19,2 km/h S-SW 211 0 min 0,000 mm 0,0 UV-I 0 W/m 3,4 C -1,3 C 26,8 km/h 100,00 %
25.02.2020 19:02 6,3 C 82 % 996,7 hPa 0,0 l/m 15,5 km/h SW 227 0 min 0,000 mm 0,0 UV-I 0 W/m 3,5 C 0,4 C 30,6 km/h 100,00 %
25.02.2020 19:01 6,3 C 82 % 996,6 hPa 0,0 l/m 16,3 km/h S-SW 212 0 min 0,025 mm 0,0 UV-I 0 W/m 3,5 C 0,0 C 26,8 km/h 96,00 %
25.02.2020 19:00 6,3 C 82 % 996,5 hPa 0,0 l/m 20,2 km/h SW 215 0 min 0,000 mm 0,0 UV-I 0 W/m 3,5 C -1,6 C 26,8 km/h 91,30 %
25.02.2020 18:59 6,3 C 82 % 996,6 hPa 0,0 l/m 15,3 km/h SW 220 0 min 0,000 mm 0,0 UV-I 0 W/m 3,5 C 0,5 C 21,0 km/h 100,00 %
25.02.2020 18:58 6,4 C 82 % 996,5 hPa 0,0 l/m 15,9 km/h S-SW 212 0 min 0,000 mm 0,0 UV-I 0 W/m 3,6 C 0,3 C 19,1 km/h 95,65 %
25.02.2020 18:57 6,4 C 82 % 996,6 hPa 0,0 l/m 12,6 km/h SW 216 0 min 0,000 mm 0,0 UV-I 0 W/m 3,6 C 2,0 C 23,0 km/h 96,30 %
25.02.2020 18:56 6,4 C 82 % 996,6 hPa 0,0 l/m 13,9 km/h SW 217 0 min 0,000 mm 0,0 UV-I 0 W/m 3,6 C 1,3 C 19,1 km/h 100,00 %
25.02.2020 18:55 6,4 C 82 % 996,6 hPa 0,0 l/m 19,7 km/h SW 227 0 min 0,000 mm 0,0 UV-I 0 W/m 3,6 C -1,2 C 38,3 km/h 100,00 %
25.02.2020 18:54 6,5 C 82 % 996,5 hPa 0,0 l/m 17,7 km/h S-SW 195 0 min 0,000 mm 0,0 UV-I 0 W/m 3,7 C -0,3 C 28,7 km/h 96,15 %
25.02.2020 18:53 6,5 C 82 % 996,5 hPa 0,0 l/m 13,2 km/h S-SW 209 0 min 0,000 mm 0,0 UV-I 0 W/m 3,7 C 1,8 C 24,9 km/h 100,00 %
25.02.2020 18:52 6,5 C 82 % 996,5 hPa 0,0 l/m 11,9 km/h S 185 0 min 0,000 mm 0,0 UV-I 0 W/m 3,7 C 2,5 C 19,1 km/h 100,00 %
25.02.2020 18:51 6,5 C 82 % 996,5 hPa 0,0 l/m 16,5 km/h SW 218 0 min 0,000 mm 0,0 UV-I 0 W/m 3,7 C 0,2 C 28,7 km/h 100,00 %
25.02.2020 18:50 6,6 C 82 % 996,5 hPa 0,0 l/m 16,1 km/h S-SW 207 0 min 0,000 mm 0,0 UV-I 0 W/m 3,8 C 0,5 C 24,9 km/h 100,00 %
25.02.2020 18:49 6,6 C 82 % 996,5 hPa 0,0 l/m 14,3 km/h S 174 0 min 0,000 mm 0,0 UV-I 0 W/m 3,8 C 1,4 C 19,1 km/h 95,65 %
25.02.2020 18:48 6,6 C 82 % 996,5 hPa 0,0 l/m 11,1 km/h S 175 0 min 0,000 mm 0,0 UV-I 0 W/m 3,8 C 3,1 C 19,1 km/h 100,00 %
25.02.2020 18:47 6,6 C 82 % 996,4 hPa 0,0 l/m 12,5 km/h S 180 0 min 0,000 mm 0,0 UV-I 0 W/m 3,8 C 2,3 C 21,0 km/h 95,65 %
25.02.2020 18:46 6,6 C 82 % 996,4 hPa 0,0 l/m 13,3 km/h S-SO 168 0 min 0,000 mm 0,0 UV-I 0 W/m 3,8 C 1,9 C 21,0 km/h 96,30 %
25.02.2020 18:45 6,6 C 82 % 996,4 hPa 0,0 l/m 11,4 km/h S-SW 203 0 min 0,000 mm 0,0 UV-I 0 W/m 3,8 C 3,0 C 23,0 km/h 100,00 %
25.02.2020 18:44 6,6 C 82 % 996,4 hPa 0,0 l/m 12,5 km/h S 175 0 min 0,000 mm 0,0 UV-I 0 W/m 3,8 C 2,3 C 17,2 km/h 96,30 %
25.02.2020 18:43 6,7 C 82 % 996,4 hPa 0,0 l/m 9,8 km/h S-SO 167 0 min 0,000 mm 0,0 UV-I 0 W/m 3,8 C 4,1 C 17,2 km/h 100,00 %
25.02.2020 18:42 6,7 C 82 % 996,4 hPa 0,0 l/m 8,3 km/h S-SW 197 0 min 0,000 mm 0,0 UV-I 0 W/m 3,8 C 5,2 C 13,4 km/h 97,37 %
25.02.2020 18:41 6,7 C 82 % 996,4 hPa 0,0 l/m 9,7 km/h S 175 0 min 0,000 mm 0,0 UV-I 0 W/m 3,8 C 4,2 C 17,2 km/h 93,33 %
25.02.2020 18:40 6,7 C 82 % 996,4 hPa 0,0 l/m 9,7 km/h SW 217 0 min 0,000 mm 0,0 UV-I 0 W/m 3,8 C 4,2 C 13,4 km/h 96,30 %
25.02.2020 18:39 6,7 C 82 % 996,5 hPa 0,0 l/m 10,3 km/h S-SW 199 0 min 0,000 mm 0,0 UV-I 0 W/m 3,8 C 3,8 C 15,3 km/h 100,00 %
25.02.2020 18:38 6,7 C 82 % 996,4 hPa 0,0 l/m 12,0 km/h S 177 0 min 0,000 mm 0,0 UV-I 0 W/m 3,8 C 2,7 C 15,3 km/h 96,30 %
25.02.2020 18:37 6,7 C 82 % 996,4 hPa 0,0 l/m 10,6 km/h S-SW 195 0 min 0,000 mm 0,0 UV-I 0 W/m 3,8 C 3,6 C 13,4 km/h 96,15 %
25.02.2020 18:36 6,7 C 82 % 996,4 hPa 0,0 l/m 9,3 km/h S-SW 203 0 min 0,000 mm 0,0 UV-I 0 W/m 3,8 C 4,4 C 13,4 km/h 100,00 %
25.02.2020 18:35 6,7 C 82 % 996,4 hPa 0,0 l/m 9,4 km/h S-SO 167 0 min 0,000 mm 0,0 UV-I 0 W/m 3,8 C 4,4 C 17,2 km/h 95,65 %
25.02.2020 18:34 6,7 C 82 % 996,4 hPa 0,0 l/m 9,6 km/h S-SO 156 0 min 0,000 mm 0,0 UV-I 0 W/m 3,8 C 4,2 C 15,3 km/h 100,00 %
25.02.2020 18:33 6,7 C 82 % 996,3 hPa 0,0 l/m 8,6 km/h S 171 0 min 0,000 mm 0,0 UV-I 0 W/m 3,8 C 4,9 C 19,1 km/h 96,15 %
25.02.2020 18:32 6,7 C 82 % 996,4 hPa 0,0 l/m 7,8 km/h S-SW 200 0 min 0,000 mm 0,0 UV-I 0 W/m 3,8 C 5,5 C 17,2 km/h 100,00 %
25.02.2020 18:31 6,7 C 82 % 996,3 hPa 0,0 l/m 7,6 km/h S-SW 193 0 min 0,000 mm 0,0 UV-I 0 W/m 3,8 C 5,7 C 13,4 km/h 96,15 %
25.02.2020 18:30 6,7 C 82 % 996,3 hPa 0,0 l/m 10,9 km/h S 189 0 min 0,000 mm 0,0 UV-I 0 W/m 3,8 C 3,4 C 15,3 km/h 100,00 %
25.02.2020 18:29 6,7 C 82 % 996,4 hPa 0,0 l/m 11,6 km/h S-SW 196 0 min 0,000 mm 0,0 UV-I 0 W/m 3,8 C 2,9 C 24,9 km/h 95,83 %
25.02.2020 18:28 6,7 C 83 % 996,4 hPa 0,0 l/m 11,8 km/h S-SO 163 0 min 0,000 mm 0,0 UV-I 0 W/m 4,0 C 2,8 C 19,1 km/h 84,62 %
25.02.2020 18:27 6,7 C 83 % 996,4 hPa 0,0 l/m 13,0 km/h SW 222 0 min 0,000 mm 0,0 UV-I 0 W/m 4,0 C 2,2 C 15,3 km/h 100,00 %
25.02.2020 18:26 6,7 C 83 % 996,4 hPa 0,0 l/m 9,9 km/h S 186 0 min 0,000 mm 0,0 UV-I 0 W/m 4,0 C 4,0 C 24,9 km/h 95,65 %
25.02.2020 18:25 6,7 C 83 % 996,3 hPa 0,0 l/m 8,9 km/h S-SO 161 0 min 0,000 mm 0,0 UV-I 0 W/m 4,0 C 4,7 C 17,2 km/h 100,00 %
25.02.2020 18:24 6,7 C 83 % 996,3 hPa 0,0 l/m 9,8 km/h S 190 0 min 0,000 mm 0,0 UV-I 0 W/m 4,0 C 4,1 C 17,2 km/h 96,15 %
25.02.2020 18:23 6,6 C 83 % 996,3 hPa 0,0 l/m 11,8 km/h S-SW 208 0 min 0,000 mm 0,0 UV-I 0 W/m 3,9 C 2,7 C 17,2 km/h 100,00 %
25.02.2020 18:22 6,7 C 83 % 996,4 hPa 0,0 l/m 7,9 km/h S-SO 159 0 min 0,000 mm 0,0 UV-I 0 W/m 4,0 C 5,5 C 15,3 km/h 95,65 %
25.02.2020 18:21 6,6 C 83 % 996,3 hPa 0,0 l/m 6,9 km/h S-SO 166 0 min 0,000 mm 0,0 UV-I 0 W/m 3,9 C 6,2 C 15,3 km/h 100,00 %
25.02.2020 18:20 6,6 C 83 % 996,3 hPa 0,0 l/m 7,1 km/h S-SO 167 0 min 0,000 mm 0,0 UV-I 0 W/m 3,9 C 6,0 C 19,1 km/h 96,88 %
25.02.2020 18:19 6,6 C 83 % 996,3 hPa 0,0 l/m 6,3 km/h S 177 0 min 0,000 mm 0,0 UV-I 0 W/m 3,9 C 6,6 C 9,6 km/h 91,67 %
25.02.2020 18:18 6,6 C 83 % 996,3 hPa 0,0 l/m 7,1 km/h S-SW 195 0 min 0,000 mm 0,0 UV-I 0 W/m 3,9 C 6,0 C 13,4 km/h 96,88 %
25.02.2020 18:17 6,6 C 83 % 996,3 hPa 0,0 l/m 4,8 km/h S 187 0 min 0,000 mm 0,0 UV-I 0 W/m 3,9 C 6,6 C 7,7 km/h 91,67 %
25.02.2020 18:16 6,6 C 83 % 996,3 hPa 0,0 l/m 10,4 km/h S 189 0 min 0,000 mm 0,0 UV-I 0 W/m 3,9 C 3,6 C 15,3 km/h 100,00 %
25.02.2020 18:15 6,6 C 83 % 996,3 hPa 0,0 l/m 11,4 km/h S-SW 193 0 min 0,000 mm 0,0 UV-I 0 W/m 3,9 C 3,0 C 21,0 km/h 95,65 %
25.02.2020 18:14 6,6 C 84 % 996,3 hPa 0,0 l/m 10,4 km/h S 173 0 min 0,000 mm 0,0 UV-I 0 W/m 4,1 C 3,6 C 17,2 km/h 100,00 %
25.02.2020 18:13 6,6 C 84 % 996,3 hPa 0,0 l/m 6,8 km/h S-SW 209 0 min 0,000 mm 0,0 UV-I 0 W/m 4,1 C 6,3 C 11,5 km/h 95,65 %
25.02.2020 18:12 6,6 C 84 % 996,3 hPa 0,0 l/m 8,9 km/h S-SW 194 0 min 0,000 mm 0,0 UV-I 0 W/m 4,1 C 4,6 C 13,4 km/h 100,00 %
25.02.2020 18:11 6,6 C 84 % 996,3 hPa 0,0 l/m 4,9 km/h S-SO 155 0 min 0,000 mm 0,0 UV-I 0 W/m 4,1 C 6,6 C 7,7 km/h 96,15 %
25.02.2020 18:10 6,6 C 84 % 996,4 hPa 0,0 l/m 6,6 km/h S 178 0 min 0,000 mm 0,0 UV-I 0 W/m 4,1 C 6,5 C 13,4 km/h 87,50 %
25.02.2020 18:09 6,6 C 84 % 996,4 hPa 0,0 l/m 10,8 km/h S-SW 193 0 min 0,000 mm 0,0 UV-I 0 W/m 4,1 C 3,3 C 15,3 km/h 96,15 %
25.02.2020 18:08 6,6 C 84 % 996,4 hPa 0,0 l/m 8,5 km/h S-SO 154 0 min 0,000 mm 0,0 UV-I 0 W/m 4,1 C 4,9 C 13,4 km/h 96,15 %
25.02.2020 18:07 6,6 C 84 % 996,4 hPa 0,0 l/m 7,9 km/h S-SW 197 0 min 0,000 mm 0,0 UV-I 0 W/m 4,1 C 5,4 C 19,1 km/h 100,00 %
25.02.2020 18:06 6,6 C 84 % 996,4 hPa 0,0 l/m 8,2 km/h S-SW 196 0 min 0,000 mm 0,0 UV-I 0 W/m 4,1 C 5,1 C 15,3 km/h 95,83 %
25.02.2020 18:05 6,6 C 84 % 996,5 hPa 0,0 l/m 6,2 km/h S 172 0 min 0,000 mm 0,0 UV-I 0 W/m 4,1 C 6,6 C 9,6 km/h 100,00 %
25.02.2020 18:04 6,6 C 84 % 996,5 hPa 0,0 l/m 8,8 km/h S 189 0 min 0,000 mm 0,0 UV-I 0 W/m 4,1 C 4,7 C 11,5 km/h 93,33 %
25.02.2020 18:03 6,6 C 84 % 996,5 hPa 0,0 l/m 7,3 km/h S 189 0 min 0,000 mm 0,0 UV-I 0 W/m 4,1 C 5,8 C 11,5 km/h 100,00 %
25.02.2020 18:02 6,6 C 84 % 996,5 hPa 0,0 l/m 6,1 km/h S 180 0 min 0,001 mm 0,0 UV-I 0 W/m 4,1 C 6,6 C 11,5 km/h 95,83 %
25.02.2020 18:01 6,6 C 84 % 996,5 hPa 0,0 l/m 8,4 km/h S-SW 209 0 min 0,025 mm 0,0 UV-I 0 W/m 4,1 C 5,0 C 13,4 km/h 95,65 %
25.02.2020 18:00 6,6 C 84 % 996,5 hPa 0,0 l/m 4,4 km/h S 190 0 min 0,000 mm 0,0 UV-I 0 W/m 4,1 C 6,6 C 7,7 km/h 100,00 %
25.02.2020 17:59 6,6 C 84 % 996,5 hPa 0,0 l/m 5,7 km/h S 186 0 min 0,000 mm 0,0 UV-I 0 W/m 4,1 C 6,6 C 9,6 km/h 95,65 %
25.02.2020 17:58 6,6 C 84 % 996,5 hPa 0,0 l/m 8,9 km/h S-SW 209 0 min 0,000 mm 0,0 UV-I 0 W/m 4,1 C 4,6 C 17,2 km/h 100,00 %
25.02.2020 17:57 6,6 C 84 % 996,6 hPa 0,0 l/m 7,4 km/h S-SW 192 0 min 0,000 mm 0,0 UV-I 0 W/m 4,1 C 5,8 C 15,3 km/h 95,65 %
25.02.2020 17:56 6,6 C 84 % 996,6 hPa 0,0 l/m 12,3 km/h S-SO 158 0 min 0,000 mm 0,0 UV-I 0 W/m 4,1 C 2,4 C 23,0 km/h 100,00 %
25.02.2020 17:55 6,6 C 84 % 996,6 hPa 0,0 l/m 10,4 km/h S 182 0 min 0,000 mm 0,0 UV-I 0 W/m 4,1 C 3,6 C 17,2 km/h 91,30 %
25.02.2020 17:54 6,5 C 84 % 996,6 hPa 0,0 l/m 12,1 km/h S 182 0 min 0,000 mm 0,0 UV-I 0 W/m 4,0 C 2,4 C 21,0 km/h 100,00 %
25.02.2020 17:53 6,5 C 84 % 996,6 hPa 0,0 l/m 10,1 km/h S-SO 165 0 min 0,000 mm 0,0 UV-I 0 W/m 4,0 C 3,7 C 17,2 km/h 96,30 %
25.02.2020 17:52 6,5 C 84 % 996,7 hPa 0,0 l/m 8,3 km/h S 173 0 min 0,000 mm 0,0 UV-I 0 W/m 4,0 C 4,9 C 13,4 km/h 95,83 %
25.02.2020 17:51 6,4 C 84 % 996,7 hPa 0,0 l/m 7,2 km/h S-SO 159 0 min 0,000 mm 0,0 UV-I 0 W/m 3,9 C 5,7 C 11,5 km/h 100,00 %
25.02.2020 17:50 6,4 C 84 % 996,7 hPa 0,0 l/m 6,7 km/h S-SO 159 0 min 0,000 mm 0,0 UV-I 0 W/m 3,9 C 6,2 C 11,5 km/h 95,65 %
25.02.2020 17:49 6,4 C 84 % 996,7 hPa 0,0 l/m 5,3 km/h S 189 0 min 0,000 mm 0,0 UV-I 4 W/m 3,9 C 6,4 C 7,7 km/h 100,00 %
25.02.2020 17:48 6,4 C 84 % 996,8 hPa 0,0 l/m 7,6 km/h S-SW 197 0 min 0,000 mm 0,0 UV-I 5 W/m 3,9 C 5,4 C 15,3 km/h 95,65 %
25.02.2020 17:47 6,4 C 84 % 996,7 hPa 0,0 l/m 6,7 km/h S-SW 213 0 min 0,000 mm 0,0 UV-I 5 W/m 3,9 C 6,2 C 9,6 km/h 100,00 %
25.02.2020 17:46 6,4 C 84 % 996,7 hPa 0,0 l/m 6,8 km/h S 186 0 min 0,000 mm 0,0 UV-I 6 W/m 3,9 C 6,1 C 9,6 km/h 96,15 %
25.02.2020 17:45 6,4 C 84 % 996,7 hPa 0,0 l/m 2,6 km/h S-SW 202 0 min 0,000 mm 0,0 UV-I 7 W/m 3,9 C 6,4 C 3,8 km/h 95,83 %
25.02.2020 17:44 6,3 C 84 % 996,7 hPa 0,0 l/m 5,5 km/h S-SW 203 0 min 0,000 mm 0,0 UV-I 7 W/m 3,8 C 6,3 C 11,5 km/h 100,00 %
25.02.2020 17:43 6,3 C 83 % 996,7 hPa 0,0 l/m 7,7 km/h S 187 0 min 0,000 mm 0,0 UV-I 10 W/m 3,6 C 5,2 C 11,5 km/h 95,83 %
25.02.2020 17:42 6,3 C 83 % 996,7 hPa 0,0 l/m 7,4 km/h S 173 0 min 0,000 mm 0,0 UV-I 11 W/m 3,6 C 5,5 C 15,3 km/h 100,00 %
25.02.2020 17:41 6,3 C 83 % 996,8 hPa 0,0 l/m 8,2 km/h S-SW 195 0 min 0,000 mm 0,0 UV-I 11 W/m 3,6 C 4,8 C 11,5 km/h 96,67 %
25.02.2020 17:40 6,3 C 83 % 996,8 hPa 0,0 l/m 7,0 km/h S 182 0 min 0,000 mm 0,0 UV-I 12 W/m 3,6 C 5,8 C 13,4 km/h 92,86 %
25.02.2020 17:39 6,3 C 83 % 996,8 hPa 0,0 l/m 7,4 km/h S-SO 168 0 min 0,000 mm 0,0 UV-I 13 W/m 3,6 C 5,5 C 11,5 km/h 96,67 %
25.02.2020 17:38 6,3 C 83 % 996,8 hPa 0,0 l/m 8,8 km/h S-SW 201 0 min 0,000 mm 0,0 UV-I 14 W/m 3,6 C 4,4 C 17,2 km/h 100,00 %
25.02.2020 17:37 6,3 C 83 % 996,8 hPa 0,0 l/m 3,2 km/h S-SW 202 0 min 0,000 mm 0,0 UV-I 14 W/m 3,6 C 6,3 C 5,7 km/h 96,30 %
25.02.2020 17:36 6,3 C 83 % 996,9 hPa 0,0 l/m 3,2 km/h S-SW 202 0 min 0,000 mm 0,0 UV-I 16 W/m 3,6 C 6,3 C 5,7 km/h 95,65 %
25.02.2020 17:35 6,3 C 82 % 996,9 hPa 0,0 l/m 4,9 km/h S-SW 200 0 min 0,000 mm 0,0 UV-I 16 W/m 3,5 C 6,3 C 7,7 km/h 100,00 %
25.02.2020 17:34 6,3 C 82 % 996,9 hPa 0,0 l/m 6,7 km/h S-SW 200 0 min 0,000 mm 0,0 UV-I 16 W/m 3,5 C 6,1 C 9,6 km/h 91,67 %
25.02.2020 17:33 6,3 C 82 % 996,9 hPa 0,0 l/m 7,9 km/h S 184 0 min 0,000 mm 0,0 UV-I 16 W/m 3,5 C 5,0 C 11,5 km/h 100,00 %
25.02.2020 17:32 6,3 C 82 % 996,9 hPa 0,0 l/m 7,4 km/h S-SW 205 0 min 0,000 mm 0,0 UV-I 18 W/m 3,5 C 5,5 C 11,5 km/h 96,55 %
25.02.2020 17:31 6,3 C 82 % 996,9 hPa 0,0 l/m 5,3 km/h S-SW 200 0 min 0,000 mm 0,0 UV-I 18 W/m 3,5 C 6,3 C 7,7 km/h 100,00 %
25.02.2020 17:30 6,3 C 82 % 997,0 hPa 0,0 l/m 7,0 km/h S-SW 192 0 min 0,000 mm 0,0 UV-I 18 W/m 3,5 C 5,8 C 11,5 km/h 97,37 %
25.02.2020 17:29 6,3 C 82 % 996,9 hPa 0,0 l/m 7,0 km/h S-SW 207 0 min 0,000 mm 0,0 UV-I 18 W/m 3,5 C 5,8 C 11,5 km/h 100,00 %
25.02.2020 17:28 6,3 C 81 % 996,9 hPa 0,0 l/m 10,4 km/h S-SW 200 0 min 0,000 mm 0,0 UV-I 18 W/m 3,3 C 3,2 C 15,3 km/h 95,83 %
25.02.2020 17:27 6,3 C 81 % 997,0 hPa 0,0 l/m 9,3 km/h S 187 0 min 0,000 mm 0,0 UV-I 19 W/m 3,3 C 4,0 C 17,2 km/h 100,00 %
25.02.2020 17:26 6,3 C 81 % 997,0 hPa 0,0 l/m 9,4 km/h S 175 0 min 0,000 mm 0,0 UV-I 19 W/m 3,3 C 3,9 C 13,4 km/h 96,30 %
25.02.2020 17:25 6,3 C 81 % 997,0 hPa 0,0 l/m 7,7 km/h S-SW 202 0 min 0,000 mm 0,0 UV-I 21 W/m 3,3 C 5,2 C 17,2 km/h 95,65 %
25.02.2020 17:24 6,4 C 81 % 997,0 hPa 0,0 l/m 8,0 km/h S 174 0 min 0,000 mm 0,0 UV-I 21 W/m 3,4 C 5,1 C 17,2 km/h 100,00 %
25.02.2020 17:23 6,4 C 80 % 997,0 hPa 0,0 l/m 9,7 km/h S-SW 209 0 min 0,000 mm 0,0 UV-I 19 W/m 3,2 C 3,8 C 15,3 km/h 95,65 %
25.02.2020 17:22 6,4 C 80 % 997,0 hPa 0,0 l/m 11,1 km/h S 190 0 min 0,000 mm 0,0 UV-I 19 W/m 3,2 C 2,9 C 15,3 km/h 100,00 %
25.02.2020 17:21 6,4 C 79 % 997,1 hPa 0,0 l/m 8,6 km/h S 176 0 min 0,000 mm 0,0 UV-I 18 W/m 3,0 C 4,6 C 17,2 km/h 96,15 %
25.02.2020 17:20 6,4 C 79 % 997,1 hPa 0,0 l/m 11,5 km/h S-SW 206 0 min 0,000 mm 0,0 UV-I 18 W/m 3,0 C 2,7 C 19,1 km/h 100,00 %
25.02.2020 17:19 6,5 C 79 % 997,0 hPa 0,0 l/m 8,8 km/h S-SW 209 0 min 0,000 mm 0,0 UV-I 18 W/m 3,1 C 4,6 C 11,5 km/h 95,65 %
25.02.2020 17:18 6,6 C 78 % 997,1 hPa 0,0 l/m 6,7 km/h S-SO 167 0 min 0,000 mm 0,0 UV-I 18 W/m 3,0 C 6,4 C 9,6 km/h 96,30 %
25.02.2020 17:17 6,7 C 77 % 997,0 hPa 0,0 l/m 9,2 km/h S 180 0 min 0,000 mm 0,0 UV-I 18 W/m 3,0 C 4,5 C 17,2 km/h 100,00 %
25.02.2020 17:16 6,8 C 77 % 997,0 hPa 0,0 l/m 9,3 km/h S-SW 193 0 min 0,000 mm 0,0 UV-I 19 W/m 3,1 C 4,5 C 17,2 km/h 91,67 %
25.02.2020 17:15 6,8 C 76 % 997,0 hPa 0,0 l/m 9,0 km/h SW 224 0 min 0,000 mm 0,0 UV-I 19 W/m 2,9 C 4,7 C 19,1 km/h 100,00 %
25.02.2020 17:14 6,9 C 75 % 997,0 hPa 0,0 l/m 7,3 km/h SW 219 0 min 0,000 mm 0,0 UV-I 21 W/m 2,8 C 6,2 C 11,5 km/h 95,65 %
25.02.2020 17:13 7,1 C 75 % 997,1 hPa 0,0 l/m 10,6 km/h SW 221 0 min 0,000 mm 0,0 UV-I 21 W/m 3,0 C 4,0 C 15,3 km/h 95,83 %
25.02.2020 17:12 7,2 C 74 % 997,0 hPa 0,0 l/m 14,7 km/h S-SO 166 0 min 0,000 mm 0,0 UV-I 21 W/m 2,9 C 1,9 C 24,9 km/h 95,65 %
25.02.2020 17:11 7,5 C 73 % 997,0 hPa 0,2 l/m 13,6 km/h S 174 0 min 0,000 mm 0,0 UV-I 20 W/m 3,0 C 2,8 C 19,1 km/h 100,00 %
25.02.2020 17:10 7,8 C 71 % 997,1 hPa 0,0 l/m 14,9 km/h S-SO 165 0 min 0,000 mm 0,0 UV-I 18 W/m 2,9 C 2,5 C 24,9 km/h 96,88 %
25.02.2020 17:09 8,2 C 69 % 997,3 hPa 0,0 l/m 22,7 km/h S-SW 202 0 min 0,000 mm 0,0 UV-I 12 W/m 2,9 C 0,1 C 38,3 km/h 91,67 %
25.02.2020 17:08 8,6 C 68 % 997,4 hPa 0,0 l/m 29,5 km/h S-SW 207 0 min 0,000 mm 0,0 UV-I 9 W/m 3,0 C -1,2 C 45,9 km/h 96,55 %
25.02.2020 17:07 8,8 C 69 % 997,3 hPa 0,0 l/m 25,3 km/h SW 220 0 min 0,000 mm 0,0 UV-I 5 W/m 3,4 C 0,1 C 36,4 km/h 92,59 %
25.02.2020 17:06 9,0 C 69 % 997,2 hPa 0,0 l/m 23,4 km/h SW 229 0 min 0,000 mm 0,0 UV-I 5 W/m 3,6 C 0,9 C 42,1 km/h 100,00 %
25.02.2020 17:05 9,1 C 68 % 997,2 hPa 0,0 l/m 25,5 km/h S 191 0 min 0,000 mm 0,0 UV-I 6 W/m 3,5 C 0,5 C 38,3 km/h 91,67 %
25.02.2020 17:04 9,2 C 67 % 997,1 hPa 0,0 l/m 23,1 km/h S-SW 207 0 min 0,000 mm 0,0 UV-I 8 W/m 3,4 C 1,3 C 38,3 km/h 96,55 %
25.02.2020 17:03 9,2 C 66 % 997,1 hPa 0,0 l/m 16,4 km/h SW 230 0 min 0,000 mm 0,0 UV-I 11 W/m 3,2 C 3,6 C 28,7 km/h 96,30 %
25.02.2020 17:02 9,2 C 66 % 997,1 hPa 0,0 l/m 30,7 km/h S 182 0 min 0,000 mm 0,0 UV-I 11 W/m 3,2 C -0,6 C 55,5 km/h 100,00 %
25.02.2020 17:01 9,2 C 65 % 997,0 hPa 0,0 l/m 19,6 km/h S-SW 211 0 min 0,076 mm 0,0 UV-I 12 W/m 3,0 C 2,4 C 28,7 km/h 96,30 %
25.02.2020 17:00 9,2 C 65 % 997,0 hPa 0,0 l/m 11,3 km/h SW 221 0 min 0,000 mm 0,0 UV-I 17 W/m 3,0 C 6,0 C 19,1 km/h 95,65 %
_ Min-Zeit 08:47 17:00 03:56 - 23:11 - - - - - - 06:30 07:31 23:10 06:36
Minimum _ 0,9 C 65 % 991,2 hPa - 0,4 km/h - - - - - - 0,2 C -6,2 C 1,9 km/h 83,33 %
_ Max-Zeit 17:00 08:06 16:01 17:11 17:02 - - 12:00 13:01 12:30 12:32 15:52 17:59 17:02 17:02
Maximum _ 9,2 C 96 % 1001,5 hPa 0,2 l/m 30,7 km/h
S
- - 1 min 0,127 mm 1,3 UV-I 621 W/m 4,7 C 6,6 C 55,5 km/h
S
100,00 %
Durchschnitt _ 4,2 C 90 % 995,5 hPa #7,8 l/m 9,5 km/h SW - #49 min. #0,457 mm 0,7 UV-I 124 W/m 2,5 C 1,6 C 16,0 km/h 98,47 %